[[{"header":{"parameterUnit":"m.s-1","parameterCategory":1,"la1":31.0,"la2":29.5877,"lo1":-88.7671,"lo2":-86.6584,"dy":0.0162,"dx":0.0185,"nx":115,"ny":88,"refTime":"2026-05-03T12:00:00:Z","depth":0,"parameterNumber":2,"parameterNumberName":"U-component_of_WINDS"},"data":[0.0,0.0,0.0,0.0,0.0,0.0,0.0,0.0,0.0,0.0,0.0,0.0,0.0,0.0,0.0,0.0,0.0,0.0,0.0,0.0,0.0,0.0,0.0,0.0,0.0,0.0,0.0,0.0,0.0,0.0,0.0,0.0,0.0,0.0,0.0,0.0,0.0,0.0,0.0,0.0,0.0,0.0,0.0,0.0,0.0,0.0,0.0,0.0,0.0,0.0,0.0,0.0,0.0,0.0,0.0,0.0,0.0,0.0,0.0,0.0,0.0,0.0,0.0,0.0,0.0,0.0,0.0,0.0,0.0,0.0,0.0,0.0,0.0,0.0,0.0,0.0,0.0,0.0,0.0,0.0,0.0,0.0,0.0,0.0,0.0,0.0,0.0,0.0,0.0,0.0,0.0,0.0,0.0,0.0,0.0,0.0,0.0,0.0,0.0,0.0,0.0,0.0,0.0,0.0,0.0,0.0,0.0,0.0,0.0,0.0,0.0,0.0,0.0,0.0,0.0,0.0,0.0,0.0,0.0,0.0,0.0,0.0,0.0,0.0,0.0,0.0,0.0,0.0,0.0,0.0,0.0,0.0,0.0,0.0,0.0,0.0,0.0,0.0,0.0,0.0,0.0,0.0,0.0,0.0,0.0,0.0,0.0,0.0,0.0,0.0,0.0,0.0,0.0,0.0,0.0,0.0,0.0,0.0,0.0,0.0,0.0,0.0,0.0,0.0,0.0,0.0,0.0,0.0,0.0,0.0,0.0,0.0,0.0,0.0,0.0,0.0,0.0,0.0,0.0,0.0,0.0,0.0,0.0,0.0,0.0,0.0,0.0,0.0,0.0,0.0,0.0,0.0,0.0,0.0,0.0,0.0,0.0,0.0,0.0,0.0,0.0,0.0,0.0,0.0,0.0,0.0,0.0,0.0,0.0,0.0,0.0,0.0,0.0,0.0,0.0,0.0,0.0,0.0,0.0,0.0,0.0,0.0,0.0,0.0,0.0,0.0,0.0,0.0,0.0,0.0,0.0,0.0,0.0,0.0,0.0,0.0,0.0,0.0,0.0,0.0,0.0,0.0,0.0,0.0,0.0,0.0,0.0,0.0,0.0,0.0,0.0,0.0,0.0,0.0,0.0,0.0,0.0,0.0,0.0,0.0,0.0,0.0,0.0,0.0,0.0,0.0,0.0,0.0,0.0,0.0,0.0,0.0,0.0,0.0,0.0,0.0,0.0,0.0,0.0,0.0,0.0,0.0,0.0,0.0,0.0,0.0,0.0,0.0,0.0,0.0,0.0,0.0,0.0,0.0,0.0,0.0,0.0,0.0,0.0,0.0,0.0,0.0,0.0,0.0,0.0,0.0,0.0,0.0,0.0,0.0,0.0,0.0,0.0,0.0,0.0,0.0,0.0,0.0,0.0,0.0,0.0,0.0,0.0,0.0,0.0,0.0,0.0,0.0,0.0,0.0,0.0,0.0,0.0,0.0,0.0,0.0,0.0,0.0,0.0,0.0,0.0,0.0,0.0,0.0,0.0,0.0,0.0,0.0,0.0,0.0,0.0,0.0,0.0,0.0,0.0,0.0,0.0,0.0,0.0,0.0,0.0,0.0,0.0,0.0,0.0,0.0,0.0,0.0,0.0,0.0,0.0,0.0,0.0,0.0,0.0,0.0,0.0,0.0,0.0,0.0,0.0,0.0,0.0,0.0,0.0,0.0,0.0,0.0,0.0,0.0,0.0,0.0,0.0,0.0,0.0,0.0,0.0,0.0,0.0,0.0,0.0,0.0,0.0,0.0,0.0,0.0,0.0,0.0,0.0,0.0,0.0,0.0,0.0,0.0,0.0,0.0,0.0,0.0,0.0,0.0,0.0,0.0,0.0,0.0,0.0,0.0,0.0,0.0,0.0,0.0,0.0,0.0,0.0,0.0,0.0,0.0,0.0,0.0,0.0,0.0,0.0,0.0,0.0,0.0,0.0,0.0,0.0,0.0,0.0,0.0,0.0,0.0,0.0,0.0,0.0,0.0,0.0,0.0,0.0,0.0,0.0,0.0,0.0,0.0,0.0,0.0,0.0,0.0,0.0,0.0,0.0,0.0,0.0,0.0,0.0,0.0,0.0,0.0,0.0,0.0,0.0,0.0,0.0,0.0,0.0,0.0,0.0,0.0,0.0,0.0,0.0,0.0,0.0,0.0,0.0,0.0,0.0,0.0,0.0,0.0,0.0,0.0,0.0,0.0,0.0,0.0,0.0,0.0,0.0,0.0,0.0,0.0,0.0,0.0,0.0,0.0,0.0,0.0,0.0,0.0,0.0,0.0,0.0,0.0,0.0,0.0,0.0,0.0,0.0,0.0,0.0,0.0,0.0,0.0,0.0,0.0,0.0,0.0,0.0,0.0,0.0,0.0,0.0,0.0,0.0,0.0,0.0,0.0,0.0,0.0,0.0,0.0,0.0,0.0,0.0,0.0,0.0,0.0,0.0,0.0,0.0,0.0,0.0,0.0,0.0,0.0,0.0,0.0,0.0,0.0,0.0,0.0,0.0,0.0,0.0,0.0,0.0,0.0,0.0,0.0,0.0,0.0,0.0,0.0,0.0,0.0,0.0,0.0,0.0,0.0,0.0,0.0,0.0,0.0,0.0,0.0,0.0,0.0,0.0,0.0,0.0,0.0,0.0,0.0,0.0,0.0,0.0,0.0,0.0,0.0,0.0,0.0,0.0,0.0,0.0,0.0,0.0,0.0,0.0,0.0,0.0,0.0,0.0,0.0,0.0,0.0,0.0,0.0,0.0,0.0,0.0,0.0,0.0,0.0,0.0,0.0,0.0,0.0,0.0,0.0,0.0,0.0,0.0,0.0,0.0,0.0,0.0,0.0,0.0,0.0,0.0,0.0,0.0,0.0,0.0,0.0,0.0,0.0,0.0,0.0,0.0,0.0,0.0,0.0,0.0,0.0,0.0,0.0,0.0,0.0,0.0,0.0,0.0,0.0,0.0,0.0,0.0,0.0,0.0,0.0,0.0,0.0,0.0,0.0,0.0,0.0,0.0,0.0,0.0,0.0,0.0,0.0,0.0,0.0,0.0,0.0,0.0,0.0,0.0,0.0,0.0,0.0,0.0,0.0,0.0,0.0,0.0,0.0,0.0,0.0,0.0,0.0,0.0,0.0,0.0,0.0,0.0,0.0,0.0,0.0,0.0,0.0,0.0,0.0,0.0,0.0,0.0,0.0,0.0,0.0,0.0,0.0,0.0,0.0,0.0,0.0,0.0,0.0,0.0,0.0,0.0,0.0,0.0,0.0,0.0,0.0,0.0,0.0,0.0,0.0,0.0,0.0,0.0,0.0,0.0,0.0,0.0,0.0,0.0,0.0,0.0,0.0,0.0,0.0,0.0,0.0,0.0,0.0,0.0,0.0,0.0,0.0,0.0,0.0,0.0,0.0,0.0,0.0,0.0,0.0,0.0,0.0,0.0,0.0,0.0,0.0,0.0,0.0,0.0,0.0,0.0,0.0,0.0,0.0,0.0,0.0,0.0,0.0,0.0,0.0,0.0,0.0,0.0,0.0,0.0,0.0,0.0,0.0,0.0,0.0,0.0,0.0,0.0,0.0,0.0,0.0,0.0,0.0,0.0,0.0,0.0,0.0,0.0,0.0,0.0,0.0,0.0,0.0,0.0,0.0,0.0,0.0,0.0,0.0,0.0,0.0,0.0,0.0,0.0,0.0,0.0,0.0,0.0,0.0,0.0,0.0,0.0,0.0,0.0,0.0,0.0,0.0,0.0,0.0,0.0,0.0,0.0,0.0,0.0,0.0,0.0,0.0,0.0,0.0,0.0,0.0,0.0,0.0,0.0,0.0,0.0,0.0,0.0,0.0,0.0,0.0,0.0,0.0,0.0,0.0,0.0,0.0,0.0,0.0,0.0,0.0,0.0,0.0,0.0,0.0,0.0,0.0,0.0,0.0,0.0,0.0,0.0,0.0,0.0,0.0,0.0,0.0,0.0,0.0,0.0,0.0,0.0,0.0,0.0,0.0,0.0,0.0,0.0,0.0,0.0,0.0,0.0,0.0,0.0,0.0,0.0,0.0,0.0,0.0,0.0,0.0,0.0,0.0,0.0,0.0,0.0,0.0,0.0,0.0,0.0,0.0,0.0,0.0,0.0,0.0,0.0,0.0,0.0,0.0,0.0,0.0,0.0,0.0,0.0,0.0,0.0,0.0,0.0,0.0,0.0,0.0,0.0,0.0,0.0,0.0,0.0,0.0,0.0,0.0,0.0,0.0,-5.3639,0.0,0.0,0.0,0.0,0.0,0.0,0.0,0.0,0.0,0.0,0.0,0.0,0.0,0.0,0.0,0.0,0.0,0.0,0.0,0.0,0.0,0.0,0.0,0.0,0.0,0.0,0.0,0.0,0.0,0.0,0.0,0.0,0.0,0.0,0.0,0.0,0.0,0.0,0.0,0.0,0.0,0.0,0.0,0.0,0.0,0.0,0.0,0.0,0.0,0.0,0.0,0.0,0.0,0.0,0.0,0.0,0.0,0.0,0.0,0.0,0.0,0.0,0.0,0.0,0.0,0.0,0.0,0.0,0.0,0.0,0.0,0.0,0.0,0.0,0.0,0.0,0.0,0.0,0.0,0.0,0.0,0.0,0.0,0.0,0.0,0.0,0.0,0.0,0.0,0.0,0.0,0.0,0.0,0.0,0.0,0.0,0.0,0.0,0.0,0.0,0.0,0.0,0.0,0.0,0.0,0.0,0.0,0.0,0.0,0.0,-5.6098,-5.6567,-5.5747,-5.4888,-5.399,0.0,0.0,0.0,0.0,0.0,0.0,0.0,0.0,0.0,0.0,0.0,0.0,0.0,0.0,0.0,0.0,0.0,0.0,0.0,0.0,0.0,0.0,0.0,0.0,0.0,0.0,0.0,0.0,0.0,0.0,0.0,0.0,0.0,0.0,0.0,0.0,0.0,0.0,0.0,0.0,0.0,0.0,0.0,0.0,0.0,0.0,0.0,0.0,0.0,0.0,0.0,0.0,0.0,0.0,0.0,0.0,0.0,0.0,0.0,0.0,0.0,0.0,0.0,0.0,0.0,0.0,0.0,0.0,0.0,0.0,0.0,0.0,0.0,0.0,0.0,0.0,0.0,0.0,0.0,0.0,0.0,0.0,0.0,0.0,0.0,0.0,0.0,0.0,0.0,0.0,0.0,0.0,0.0,0.0,0.0,0.0,0.0,0.0,0.0,0.0,0.0,0.0,0.0,0.0,0.0,0.0,0.0,0.0,0.0,0.0,0.0,0.0,-5.6528,-5.5474,-5.399,0.0,0.0,0.0,0.0,0.0,0.0,0.0,0.0,0.0,0.0,0.0,0.0,0.0,0.0,0.0,0.0,0.0,0.0,0.0,0.0,0.0,0.0,0.0,0.0,0.0,0.0,0.0,0.0,0.0,0.0,0.0,0.0,0.0,0.0,0.0,0.0,0.0,0.0,0.0,0.0,0.0,0.0,0.0,0.0,0.0,0.0,0.0,0.0,0.0,0.0,0.0,0.0,0.0,0.0,0.0,0.0,0.0,0.0,0.0,0.0,0.0,0.0,0.0,0.0,0.0,0.0,0.0,0.0,0.0,0.0,0.0,0.0,0.0,0.0,0.0,0.0,0.0,0.0,0.0,0.0,0.0,0.0,0.0,0.0,0.0,0.0,0.0,0.0,0.0,0.0,0.0,0.0,0.0,0.0,0.0,0.0,0.0,0.0,0.0,0.0,0.0,0.0,0.0,0.0,0.0,0.0,0.0,0.0,0.0,0.0,-5.645,-5.879,-5.8753,0.0,-5.4225,0.0,0.0,0.0,0.0,0.0,0.0,0.0,0.0,0.0,0.0,0.0,0.0,0.0,0.0,0.0,0.0,0.0,0.0,0.0,0.0,0.0,0.0,0.0,0.0,0.0,0.0,0.0,0.0,0.0,0.0,0.0,0.0,0.0,0.0,0.0,0.0,0.0,0.0,0.0,0.0,0.0,0.0,0.0,0.0,0.0,0.0,0.0,0.0,0.0,0.0,0.0,0.0,0.0,0.0,0.0,0.0,0.0,0.0,0.0,0.0,0.0,0.0,0.0,0.0,0.0,0.0,0.0,0.0,0.0,0.0,0.0,0.0,0.0,0.0,0.0,0.0,0.0,0.0,0.0,0.0,0.0,0.0,0.0,0.0,0.0,0.0,0.0,0.0,0.0,0.0,0.0,0.0,0.0,0.0,0.0,0.0,0.0,0.0,0.0,0.0,0.0,0.0,0.0,0.0,0.0,0.0,0.0,0.0,0.0,0.0,-5.7504,-5.9063,-5.8126,-5.6489,0.0,0.0,0.0,0.0,0.0,0.0,0.0,0.0,0.0,0.0,0.0,0.0,0.0,0.0,0.0,0.0,0.0,0.0,0.0,0.0,0.0,0.0,0.0,0.0,0.0,0.0,0.0,0.0,0.0,0.0,0.0,0.0,0.0,0.0,0.0,0.0,0.0,0.0,0.0,0.0,0.0,0.0,0.0,0.0,0.0,0.0,0.0,0.0,0.0,0.0,0.0,0.0,0.0,0.0,0.0,0.0,0.0,0.0,0.0,0.0,0.0,0.0,0.0,0.0,0.0,0.0,0.0,0.0,0.0,0.0,0.0,0.0,0.0,0.0,0.0,0.0,0.0,0.0,0.0,0.0,0.0,0.0,0.0,0.0,0.0,0.0,0.0,0.0,0.0,0.0,0.0,0.0,0.0,0.0,0.0,0.0,0.0,0.0,0.0,0.0,0.0,0.0,0.0,0.0,0.0,0.0,0.0,0.0,0.0,0.0,-5.7426,-5.8324,-5.9336,-5.8519,-5.6645,-5.3756,0.0,0.0,0.0,0.0,0.0,0.0,0.0,0.0,0.0,0.0,0.0,0.0,0.0,0.0,0.0,0.0,0.0,0.0,0.0,0.0,0.0,0.0,0.0,0.0,0.0,0.0,0.0,0.0,0.0,0.0,0.0,0.0,0.0,0.0,0.0,0.0,0.0,0.0,0.0,0.0,0.0,0.0,0.0,0.0,0.0,0.0,0.0,0.0,0.0,0.0,0.0,0.0,0.0,0.0,0.0,0.0,0.0,0.0,0.0,0.0,0.0,0.0,0.0,0.0,0.0,0.0,0.0,0.0,0.0,0.0,0.0,0.0,0.0,0.0,0.0,0.0,0.0,0.0,0.0,0.0,0.0,0.0,0.0,0.0,0.0,0.0,0.0,0.0,0.0,0.0,0.0,0.0,0.0,0.0,0.0,0.0,0.0,0.0,0.0,0.0,0.0,0.0,0.0,0.0,0.0,0.0,0.0,0.0,-5.9807,-5.8597,-5.8636,-6.0315,-6.1056,-5.8714,0.0,0.0,0.0,0.0,0.0,0.0,0.0,0.0,0.0,0.0,0.0,0.0,0.0,0.0,0.0,0.0,0.0,0.0,0.0,0.0,0.0,0.0,0.0,0.0,0.0,0.0,0.0,0.0,0.0,0.0,0.0,0.0,0.0,0.0,0.0,0.0,0.0,0.0,0.0,0.0,0.0,0.0,0.0,0.0,0.0,0.0,0.0,0.0,0.0,0.0,0.0,0.0,0.0,0.0,0.0,0.0,0.0,0.0,0.0,0.0,0.0,0.0,0.0,0.0,0.0,0.0,0.0,0.0,0.0,0.0,0.0,0.0,0.0,0.0,0.0,0.0,0.0,0.0,0.0,0.0,0.0,0.0,0.0,0.0,0.0,0.0,0.0,0.0,0.0,0.0,0.0,0.0,0.0,0.0,0.0,0.0,0.0,0.0,0.0,0.0,0.0,0.0,0.0,0.0,0.0,0.0,0.0,0.0,0.0,-5.6216,-5.7816,-6.0002,-6.2657,-5.9495,-5.684,0.0,0.0,0.0,0.0,0.0,0.0,0.0,0.0,0.0,0.0,0.0,0.0,0.0,0.0,0.0,0.0,0.0,0.0,0.0,0.0,0.0,0.0,0.0,0.0,0.0,0.0,0.0,0.0,0.0,0.0,0.0,0.0,0.0,0.0,0.0,0.0,0.0,0.0,0.0,0.0,0.0,0.0,0.0,0.0,0.0,0.0,0.0,0.0,0.0,0.0,0.0,0.0,0.0,0.0,0.0,0.0,0.0,0.0,0.0,0.0,0.0,0.0,0.0,0.0,0.0,0.0,0.0,0.0,0.0,0.0,0.0,0.0,0.0,0.0,0.0,0.0,0.0,0.0,0.0,0.0,0.0,0.0,0.0,0.0,0.0,0.0,0.0,0.0,0.0,0.0,0.0,0.0,0.0,0.0,0.0,0.0,0.0,0.0,0.0,0.0,0.0,0.0,0.0,0.0,0.0,0.0,0.0,0.0,0.0,-5.6059,0.0,-6.1525,-6.2774,-5.8831,-5.5903,0.0,0.0,0.0,0.0,0.0,0.0,0.0,0.0,0.0,0.0,0.0,0.0,0.0,0.0,0.0,0.0,0.0,0.0,0.0,0.0,0.0,0.0,0.0,0.0,0.0,0.0,0.0,0.0,0.0,0.0,0.0,0.0,0.0,0.0,0.0,0.0,0.0,0.0,0.0,0.0,0.0,0.0,0.0,0.0,0.0,0.0,0.0,0.0,0.0,0.0,0.0,0.0,0.0,0.0,0.0,0.0,0.0,0.0,0.0,0.0,0.0,0.0,0.0,0.0,0.0,0.0,0.0,0.0,0.0,0.0,0.0,0.0,0.0,0.0,0.0,0.0,0.0,0.0,0.0,0.0,0.0,0.0,0.0,0.0,0.0,0.0,0.0,0.0,0.0,0.0,0.0,0.0,0.0,0.0,0.0,0.0,0.0,0.0,0.0,0.0,0.0,0.0,0.0,0.0,0.0,0.0,0.0,0.0,-5.5201,-6.008,-6.2735,-6.2891,-6.0588,-5.9456,-5.6213,0.0,0.0,0.0,0.0,0.0,0.0,0.0,0.0,0.0,0.0,0.0,0.0,0.0,0.0,0.0,0.0,0.0,0.0,0.0,0.0,0.0,0.0,0.0,0.0,0.0,0.0,0.0,0.0,0.0,0.0,0.0,0.0,0.0,0.0,0.0,0.0,0.0,0.0,0.0,0.0,0.0,0.0,0.0,0.0,0.0,0.0,0.0,0.0,0.0,0.0,0.0,0.0,0.0,0.0,0.0,0.0,0.0,0.0,0.0,0.0,0.0,0.0,0.0,0.0,0.0,0.0,0.0,0.0,0.0,0.0,0.0,0.0,0.0,0.0,0.0,0.0,0.0,0.0,0.0,0.0,0.0,0.0,0.0,0.0,0.0,0.0,0.0,0.0,0.0,0.0,0.0,0.0,0.0,0.0,0.0,0.0,0.0,0.0,0.0,0.0,0.0,0.0,0.0,0.0,0.0,0.0,0.0,0.0,0.0,-5.7777,-6.0276,-6.211,-6.2891,-5.8792,-5.5903,0.0,0.0,0.0,0.0,0.0,0.0,0.0,0.0,0.0,0.0,0.0,0.0,0.0,0.0,0.0,0.0,0.0,0.0,0.0,0.0,0.0,0.0,0.0,0.0,0.0,0.0,0.0,0.0,0.0,0.0,0.0,0.0,0.0,0.0,0.0,0.0,0.0,0.0,0.0,0.0,0.0,0.0,0.0,0.0,0.0,0.0,0.0,0.0,0.0,0.0,0.0,0.0,0.0,0.0,0.0,0.0,0.0,0.0,0.0,0.0,0.0,0.0,0.0,0.0,0.0,0.0,0.0,0.0,0.0,0.0,0.0,0.0,0.0,0.0,0.0,0.0,0.0,0.0,0.0,0.0,0.0,0.0,0.0,0.0,0.0,0.0,0.0,0.0,0.0,0.0,0.0,0.0,0.0,0.0,0.0,0.0,0.0,0.0,0.0,0.0,0.0,0.0,0.0,0.0,0.0,0.0,0.0,0.0,0.0,-5.9072,-6.18,-6.375,-6.4765,-5.9846,-5.6528,-5.5083,0.0,0.0,0.0,0.0,0.0,0.0,0.0,0.0,0.0,0.0,0.0,0.0,0.0,0.0,0.0,0.0,0.0,0.0,0.0,0.0,0.0,0.0,0.0,0.0,0.0,0.0,0.0,0.0,0.0,0.0,0.0,0.0,0.0,0.0,0.0,0.0,0.0,0.0,0.0,0.0,0.0,0.0,0.0,0.0,0.0,0.0,0.0,0.0,0.0,0.0,0.0,0.0,0.0,0.0,0.0,0.0,0.0,0.0,0.0,0.0,0.0,0.0,0.0,0.0,0.0,0.0,0.0,0.0,0.0,0.0,0.0,0.0,0.0,0.0,0.0,0.0,0.0,0.0,0.0,0.0,0.0,0.0,0.0,0.0,0.0,0.0,0.0,0.0,0.0,0.0,0.0,0.0,0.0,0.0,0.0,0.0,0.0,0.0,0.0,0.0,0.0,0.0,0.0,0.0,0.0,0.0,0.0,0.0,-6.3259,-6.6607,-6.7615,-6.6014,-6.2384,-5.8128,0.0,0.0,0.0,0.0,0.0,0.0,0.0,0.0,0.0,0.0,0.0,0.0,0.0,0.0,0.0,0.0,0.0,0.0,0.0,0.0,0.0,0.0,0.0,0.0,0.0,0.0,0.0,0.0,0.0,0.0,0.0,0.0,0.0,0.0,0.0,0.0,0.0,0.0,0.0,0.0,0.0,0.0,0.0,0.0,0.0,0.0,0.0,0.0,0.0,0.0,0.0,0.0,0.0,0.0,0.0,0.0,0.0,0.0,0.0,0.0,0.0,0.0,0.0,0.0,0.0,0.0,0.0,0.0,0.0,0.0,0.0,0.0,0.0,0.0,0.0,0.0,0.0,0.0,0.0,0.0,0.0,0.0,0.0,0.0,0.0,0.0,0.0,0.0,0.0,0.0,0.0,0.0,0.0,0.0,0.0,0.0,0.0,0.0,0.0,0.0,0.0,0.0,0.0,0.0,0.0,0.0,0.0,0.0,0.0,-6.6667,-7.0173,-7.1451,-7.023,-6.4531,-6.0119,0.0,0.0,0.0,0.0,0.0,0.0,0.0,0.0,0.0,0.0,0.0,0.0,0.0,0.0,0.0,0.0,0.0,0.0,0.0,0.0,0.0,0.0,0.0,0.0,0.0,0.0,0.0,0.0,0.0,0.0,0.0,0.0,0.0,0.0,0.0,0.0,0.0,0.0,0.0,0.0,0.0,0.0,0.0,0.0,0.0,0.0,0.0,0.0,0.0,0.0,0.0,0.0,0.0,0.0,0.0,0.0,0.0,0.0,0.0,0.0,0.0,0.0,0.0,0.0,0.0,0.0,0.0,0.0,0.0,0.0,0.0,0.0,0.0,0.0,0.0,0.0,0.0,0.0,0.0,0.0,0.0,0.0,0.0,0.0,0.0,0.0,0.0,0.0,0.0,0.0,0.0,0.0,0.0,0.0,0.0,0.0,0.0,0.0,0.0,0.0,0.0,0.0,0.0,0.0,0.0,0.0,0.0,0.0,-6.44,-6.8117,-7.291,-7.5048,-7.4184,-6.7813,-6.2694,0.0,0.0,0.0,0.0,0.0,0.0,0.0,0.0,0.0,0.0,0.0,0.0,0.0,0.0,0.0,0.0,0.0,0.0,0.0,0.0,0.0,0.0,0.0,0.0,0.0,0.0,0.0,0.0,0.0,0.0,0.0,0.0,0.0,0.0,0.0,0.0,0.0,0.0,0.0,0.0,0.0,0.0,0.0,0.0,0.0,0.0,0.0,0.0,0.0,0.0,0.0,0.0,0.0,0.0,0.0,0.0,0.0,0.0,0.0,0.0,0.0,0.0,0.0,0.0,0.0,0.0,0.0,0.0,0.0,0.0,0.0,0.0,0.0,0.0,0.0,0.0,0.0,0.0,0.0,0.0,0.0,0.0,0.0,0.0,0.0,0.0,0.0,0.0,0.0,0.0,0.0,0.0,0.0,0.0,0.0,0.0,0.0,0.0,0.0,0.0,0.0,0.0,0.0,0.0,0.0,0.0,0.0,0.0,-6.6629,-6.8747,-7.5063,-7.8022,-7.7124,-7.1292,-6.5429,0.0,0.0,0.0,0.0,0.0,0.0,0.0,0.0,0.0,0.0,0.0,0.0,0.0,0.0,0.0,0.0,0.0,0.0,0.0,0.0,0.0,0.0,0.0,0.0,0.0,0.0,0.0,0.0,0.0,0.0,0.0,0.0,0.0,0.0,0.0,0.0,0.0,0.0,0.0,0.0,0.0,0.0,0.0,0.0,0.0,0.0,0.0,0.0,0.0,0.0,0.0,0.0,0.0,0.0,0.0,0.0,0.0,0.0,0.0,0.0,0.0,0.0,0.0,0.0,0.0,0.0,0.0,0.0,0.0,0.0,0.0,0.0,0.0,0.0,0.0,0.0,0.0,0.0,0.0,0.0,0.0,0.0,0.0,0.0,0.0,0.0,0.0,0.0,0.0,0.0,0.0,0.0,0.0,0.0,0.0,0.0,0.0,0.0,0.0,0.0,0.0,0.0,0.0,0.0,0.0,0.0,0.0,0.0,-6.7732,-7.2148,-7.6246,-7.8312,-7.8111,-7.1612,-6.6249,0.0,0.0,0.0,0.0,0.0,0.0,0.0,0.0,0.0,0.0,0.0,0.0,0.0,0.0,0.0,0.0,0.0,0.0,0.0,0.0,0.0,0.0,0.0,0.0,0.0,0.0,0.0,0.0,0.0,0.0,0.0,0.0,0.0,0.0,0.0,0.0,0.0,0.0,0.0,0.0,0.0,0.0,0.0,0.0,0.0,0.0,0.0,0.0,-5.3132,0.0,0.0,0.0,0.0,0.0,0.0,0.0,0.0,0.0,0.0,0.0,0.0,0.0,0.0,0.0,0.0,0.0,0.0,0.0,0.0,0.0,0.0,0.0,0.0,0.0,0.0,0.0,0.0,0.0,0.0,0.0,0.0,0.0,0.0,0.0,0.0,0.0,0.0,0.0,0.0,0.0,0.0,0.0,0.0,0.0,0.0,0.0,0.0,0.0,0.0,0.0,0.0,0.0,0.0,0.0,0.0,0.0,0.0,0.0,-6.9101,-7.3789,-7.7264,-7.8823,-7.8232,-7.3688,-6.8794,0.0,0.0,0.0,0.0,0.0,0.0,0.0,0.0,0.0,0.0,0.0,0.0,0.0,0.0,0.0,0.0,0.0,0.0,0.0,0.0,0.0,0.0,0.0,0.0,0.0,0.0,0.0,0.0,0.0,0.0,0.0,0.0,0.0,0.0,0.0,0.0,0.0,0.0,0.0,0.0,0.0,0.0,0.0,0.0,0.0,0.0,0.0,0.0,0.0,0.0,0.0,0.0,0.0,0.0,0.0,0.0,0.0,0.0,0.0,0.0,0.0,0.0,0.0,0.0,0.0,0.0,0.0,0.0,0.0,0.0,0.0,0.0,0.0,0.0,0.0,0.0,0.0,0.0,0.0,0.0,0.0,0.0,0.0,0.0,0.0,0.0,0.0,0.0,0.0,0.0,0.0,0.0,0.0,0.0,0.0,0.0,0.0,0.0,0.0,0.0,0.0,0.0,0.0,0.0,0.0,0.0,0.0,-6.5547,-7.0117,-7.4842,-7.793,-7.9062,-7.816,-7.5727,-7.1225,-6.4536,0.0,0.0,0.0,0.0,0.0,0.0,0.0,0.0,0.0,0.0,0.0,0.0,0.0,0.0,0.0,0.0,0.0,0.0,0.0,0.0,0.0,0.0,0.0,0.0,0.0,0.0,0.0,0.0,0.0,0.0,0.0,0.0,0.0,0.0,0.0,0.0,0.0,0.0,-4.8954,-5.0711,0.0,0.0,0.0,0.0,0.0,0.0,0.0,0.0,-5.2741,0.0,0.0,0.0,0.0,0.0,0.0,0.0,0.0,0.0,0.0,0.0,0.0,0.0,0.0,0.0,0.0,0.0,0.0,0.0,0.0,0.0,0.0,0.0,0.0,0.0,0.0,0.0,0.0,0.0,0.0,0.0,0.0,0.0,0.0,0.0,0.0,0.0,0.0,0.0,0.0,0.0,0.0,0.0,0.0,0.0,0.0,0.0,0.0,0.0,0.0,0.0,0.0,0.0,0.0,0.0,0.0,-6.4609,-6.5492,-6.934,-7.6412,-7.7859,-7.81,-7.7213,-7.4804,-7.061,-6.4548,0.0,0.0,0.0,0.0,0.0,0.0,0.0,0.0,0.0,0.0,0.0,0.0,0.0,0.0,0.0,0.0,0.0,0.0,0.0,0.0,0.0,0.0,0.0,0.0,0.0,0.0,0.0,0.0,0.0,0.0,0.0,0.0,0.0,0.0,0.0,0.0,0.0,0.0,0.0,-5.4849,-5.563,0.0,0.0,0.0,0.0,0.0,0.0,0.0,0.0,-5.3327,0.0,0.0,0.0,0.0,0.0,0.0,0.0,0.0,0.0,0.0,0.0,0.0,0.0,0.0,0.0,0.0,0.0,0.0,0.0,0.0,0.0,0.0,0.0,0.0,0.0,0.0,0.0,0.0,0.0,0.0,0.0,0.0,0.0,0.0,0.0,0.0,0.0,0.0,0.0,0.0,0.0,0.0,0.0,0.0,0.0,0.0,0.0,0.0,0.0,0.0,0.0,0.0,0.0,0.0,0.0,-6.3889,-6.7113,-7.1564,-7.735,-7.7979,-7.7992,-7.7504,-7.3844,-6.9255,0.0,0.0,0.0,0.0,0.0,0.0,0.0,0.0,0.0,0.0,0.0,0.0,0.0,0.0,0.0,0.0,0.0,0.0,0.0,0.0,0.0,0.0,0.0,0.0,0.0,0.0,0.0,0.0,0.0,0.0,0.0,0.0,0.0,0.0,0.0,0.0,0.0,0.0,0.0,0.0,-5.5942,-5.6723,-5.8829,0.0,0.0,0.0,0.0,0.0,0.0,-5.3836,-5.329,0.0,0.0,0.0,0.0,0.0,0.0,0.0,0.0,0.0,0.0,0.0,0.0,0.0,0.0,0.0,0.0,0.0,0.0,0.0,0.0,0.0,0.0,0.0,0.0,0.0,0.0,0.0,0.0,0.0,0.0,0.0,0.0,0.0,0.0,0.0,0.0,0.0,0.0,0.0,0.0,0.0,0.0,0.0,0.0,0.0,0.0,0.0,0.0,0.0,0.0,0.0,0.0,0.0,0.0,0.0,-6.2503,-6.8187,-7.3289,-7.7547,-7.7819,-7.7715,-7.7473,-7.2626,-6.7604,0.0,0.0,0.0,0.0,0.0,0.0,0.0,0.0,0.0,0.0,0.0,0.0,0.0,0.0,0.0,0.0,0.0,0.0,0.0,0.0,0.0,0.0,0.0,0.0,0.0,0.0,0.0,0.0,0.0,0.0,0.0,0.0,0.0,0.0,0.0,0.0,0.0,0.0,0.0,0.0,0.0,-5.8126,-5.9414,-5.8168,0.0,0.0,0.0,0.0,-5.5396,-5.5123,0.0,0.0,0.0,0.0,0.0,0.0,0.0,0.0,0.0,0.0,0.0,0.0,0.0,0.0,0.0,0.0,0.0,0.0,0.0,0.0,0.0,0.0,0.0,0.0,0.0,0.0,0.0,0.0,0.0,0.0,0.0,0.0,0.0,0.0,0.0,0.0,0.0,0.0,0.0,0.0,0.0,0.0,0.0,0.0,0.0,0.0,0.0,0.0,0.0,0.0,0.0,0.0,0.0,0.0,0.0,0.0,-6.1539,-6.6606,-7.1667,-7.648,-7.679,-7.641,-7.5563,-7.0742,-6.6073,0.0,0.0,0.0,0.0,0.0,0.0,0.0,0.0,0.0,0.0,0.0,0.0,0.0,0.0,0.0,0.0,0.0,0.0,0.0,0.0,0.0,0.0,0.0,0.0,0.0,0.0,0.0,0.0,0.0,0.0,0.0,0.0,0.0,0.0,0.0,0.0,0.0,0.0,0.0,0.0,0.0,-6.1171,-6.1366,-5.9922,-5.8441,0.0,0.0,-5.7894,-5.6645,-5.9456,0.0,0.0,0.0,0.0,0.0,0.0,0.0,0.0,0.0,0.0,0.0,0.0,0.0,0.0,0.0,0.0,0.0,0.0,0.0,0.0,0.0,0.0,0.0,0.0,0.0,0.0,0.0,0.0,0.0,0.0,0.0,0.0,0.0,0.0,0.0,0.0,0.0,0.0,0.0,0.0,0.0,0.0,0.0,0.0,0.0,0.0,0.0,0.0,0.0,0.0,0.0,0.0,0.0,0.0,0.0,-5.7203,-6.1357,-6.7683,-7.2763,-7.632,-7.6475,-7.6087,-7.5196,-6.8932,-6.3988,0.0,0.0,0.0,0.0,0.0,0.0,0.0,0.0,0.0,0.0,0.0,0.0,0.0,0.0,0.0,0.0,0.0,0.0,0.0,0.0,0.0,0.0,0.0,0.0,0.0,0.0,0.0,0.0,0.0,0.0,0.0,0.0,0.0,0.0,0.0,0.0,0.0,0.0,0.0,0.0,0.0,0.0,-6.0939,-6.1174,0.0,0.0,0.0,-5.9417,-5.8207,0.0,0.0,0.0,0.0,0.0,0.0,0.0,0.0,0.0,0.0,0.0,0.0,0.0,0.0,0.0,0.0,0.0,0.0,0.0,0.0,0.0,0.0,0.0,0.0,0.0,0.0,0.0,0.0,0.0,0.0,0.0,0.0,0.0,0.0,0.0,0.0,0.0,0.0,0.0,0.0,0.0,0.0,0.0,0.0,0.0,0.0,0.0,0.0,0.0,0.0,0.0,0.0,0.0,0.0,0.0,0.0,0.0,-6.0918,-6.8607,-7.3728,-7.5972,-7.6088,-7.5662,-7.4734,-6.8016,0.0,0.0,0.0,0.0,0.0,0.0,0.0,0.0,0.0,0.0,0.0,0.0,0.0,0.0,0.0,0.0,0.0,0.0,0.0,0.0,0.0,0.0,0.0,0.0,0.0,0.0,0.0,-3.8376,0.0,0.0,0.0,0.0,0.0,0.0,0.0,0.0,0.0,0.0,0.0,0.0,0.0,0.0,-6.0712,-6.0714,-6.2393,-6.333,0.0,0.0,-6.1223,-6.0794,-6.2898,-6.2349,0.0,0.0,0.0,0.0,0.0,0.0,0.0,0.0,0.0,0.0,0.0,0.0,0.0,0.0,0.0,0.0,0.0,0.0,0.0,0.0,0.0,0.0,0.0,0.0,0.0,0.0,0.0,0.0,0.0,0.0,0.0,0.0,0.0,0.0,0.0,0.0,0.0,0.0,0.0,0.0,0.0,0.0,0.0,0.0,0.0,0.0,0.0,0.0,0.0,0.0,0.0,0.0,0.0,0.0,-5.7428,-6.0169,-6.8323,-7.3419,-7.5109,-7.5198,-7.4811,-7.3922,-6.8816,-6.3361,0.0,0.0,0.0,0.0,0.0,0.0,0.0,0.0,0.0,0.0,0.0,0.0,0.0,0.0,0.0,0.0,0.0,0.0,0.0,0.0,0.0,0.0,0.0,0.0,0.0,0.0,0.0,0.0,0.0,0.0,0.0,0.0,0.0,0.0,0.0,0.0,0.0,0.0,0.0,0.0,0.0,-6.1585,-6.163,-6.3779,-6.5927,0.0,-6.5576,-6.4287,-6.503,-6.7249,-6.611,-5.7757,0.0,0.0,0.0,0.0,0.0,0.0,0.0,0.0,0.0,0.0,0.0,0.0,0.0,0.0,0.0,0.0,0.0,0.0,0.0,0.0,0.0,0.0,0.0,0.0,0.0,0.0,0.0,0.0,0.0,0.0,0.0,0.0,0.0,0.0,0.0,0.0,0.0,0.0,0.0,0.0,0.0,0.0,0.0,0.0,0.0,0.0,0.0,0.0,0.0,0.0,0.0,0.0,0.0,-5.6303,-5.9919,-6.7191,-7.2104,-7.4231,-7.4347,-7.396,-7.3109,-6.8622,-6.3642,0.0,0.0,0.0,0.0,0.0,0.0,0.0,0.0,0.0,0.0,0.0,0.0,0.0,0.0,0.0,0.0,0.0,0.0,0.0,0.0,0.0,0.0,0.0,0.0,0.0,0.0,0.0,0.0,-4.5012,-4.4972,-4.3372,0.0,0.0,0.0,0.0,0.0,0.0,0.0,0.0,0.0,0.0,-6.1669,-6.378,-6.585,0.0,0.0,-6.7256,-6.6397,-6.5694,-6.6432,-6.432,-5.6313,-5.381,0.0,0.0,0.0,0.0,0.0,0.0,0.0,0.0,0.0,0.0,0.0,0.0,0.0,0.0,0.0,0.0,0.0,0.0,0.0,0.0,0.0,0.0,0.0,0.0,0.0,0.0,0.0,0.0,0.0,0.0,0.0,0.0,0.0,0.0,0.0,0.0,0.0,0.0,0.0,0.0,0.0,0.0,0.0,0.0,0.0,0.0,0.0,0.0,0.0,0.0,0.0,0.0,-5.547,-5.9493,-6.6417,-7.1137,-7.3458,-7.3535,-7.3226,-7.2529,-6.87,-6.429,0.0,0.0,0.0,0.0,0.0,0.0,0.0,0.0,0.0,0.0,0.0,0.0,0.0,0.0,0.0,0.0,0.0,0.0,0.0,0.0,0.0,0.0,0.0,0.0,0.0,0.0,0.0,0.0,-4.6398,-4.5576,-4.3507,0.0,0.0,0.0,0.0,0.0,0.0,0.0,0.0,0.0,0.0,-6.1752,-6.4448,-6.605,-6.6988,-6.6948,-6.6518,-6.5854,-6.4956,-6.4603,-6.2335,-5.6162,0.0,0.0,0.0,0.0,0.0,0.0,0.0,0.0,0.0,0.0,0.0,0.0,0.0,0.0,0.0,0.0,0.0,0.0,0.0,0.0,0.0,0.0,0.0,0.0,0.0,0.0,0.0,0.0,0.0,0.0,-4.6108,0.0,0.0,0.0,0.0,0.0,0.0,0.0,0.0,0.0,0.0,0.0,0.0,0.0,0.0,0.0,0.0,0.0,0.0,0.0,0.0,0.0,0.0,-5.52,-5.8651,-6.6118,-7.0827,-7.2568,-7.2607,-7.2607,-7.2491,-6.928,-6.5412,-6.1041,0.0,0.0,0.0,0.0,0.0,0.0,0.0,0.0,0.0,0.0,0.0,0.0,0.0,0.0,0.0,0.0,0.0,0.0,0.0,0.0,0.0,0.0,0.0,0.0,0.0,0.0,-4.3879,-4.3697,-4.3354,0.0,0.0,0.0,0.0,0.0,0.0,0.0,0.0,0.0,0.0,-5.7889,-6.1991,-6.293,-6.3828,-6.4492,-6.4492,-6.3047,-6.2187,-6.3008,-6.2343,-6.0895,0.0,0.0,0.0,0.0,0.0,0.0,0.0,0.0,0.0,0.0,0.0,0.0,0.0,0.0,0.0,0.0,0.0,0.0,0.0,0.0,0.0,0.0,0.0,0.0,0.0,0.0,0.0,-5.4666,-5.2657,0.0,0.0,0.0,0.0,0.0,0.0,0.0,0.0,0.0,0.0,0.0,-5.7207,-5.7748,0.0,0.0,0.0,0.0,0.0,0.0,0.0,0.0,0.0,0.0,0.0,0.0,-5.5161,-5.8729,-6.5605,-7.0015,-7.1678,-7.1175,-7.1175,-7.1678,-6.9009,-6.4677,-5.8758,0.0,0.0,0.0,0.0,0.0,0.0,0.0,0.0,0.0,0.0,0.0,0.0,0.0,0.0,0.0,0.0,0.0,0.0,0.0,0.0,0.0,0.0,0.0,0.0,0.0,-4.4733,0.0,0.0,0.0,0.0,0.0,0.0,0.0,0.0,0.0,0.0,0.0,-5.0653,-5.4569,-5.7336,-5.9717,-6.1707,-6.3191,-6.4515,0.0,0.0,0.0,0.0,0.0,0.0,0.0,0.0,0.0,0.0,0.0,0.0,0.0,0.0,-5.223,-4.7226,-4.6519,-4.6715,-4.6715,0.0,0.0,0.0,0.0,0.0,0.0,0.0,0.0,0.0,0.0,0.0,0.0,0.0,0.0,-5.8355,0.0,-5.63,0.0,0.0,0.0,0.0,0.0,0.0,0.0,0.0,-5.8983,-6.0738,-6.1467,-6.2017,-6.139,0.0,-5.8305,-5.4911,0.0,0.0,0.0,0.0,0.0,0.0,0.0,0.0,-5.5127,-5.8635,-6.4675,-6.8678,-7.0303,-6.9849,-6.986,-7.0363,-6.8236,-6.4406,-5.8788,-5.4581,-5.0635,0.0,0.0,0.0,0.0,0.0,0.0,0.0,0.0,0.0,0.0,0.0,0.0,0.0,0.0,0.0,0.0,0.0,0.0,0.0,0.0,0.0,0.0,0.0,-4.5517,0.0,0.0,0.0,0.0,0.0,0.0,0.0,0.0,0.0,-4.7684,-5.0106,-5.298,-5.6328,-5.8,-5.9326,-6.0426,0.0,0.0,0.0,0.0,0.0,0.0,0.0,-5.713,-5.5727,-5.4164,-5.3498,-5.4862,-5.6494,-5.7152,-5.5706,0.0,0.0,-5.1189,-5.0652,-5.1042,-5.1003,-5.1903,-5.2412,-5.1551,-5.249,-5.3232,0.0,0.0,0.0,0.0,0.0,0.0,0.0,0.0,-6.2199,-6.1158,0.0,-5.9644,0.0,0.0,0.0,0.0,0.0,-5.6435,0.0,0.0,-6.5269,-6.7236,-6.5091,-6.5014,-6.4976,-6.4794,-6.2354,-5.9809,-5.7186,-5.3215,0.0,0.0,0.0,0.0,0.0,0.0,-5.5141,-5.8567,-6.3608,-6.7001,-6.8663,-6.8745,-6.8728,-6.8689,-6.7065,-6.4551,-6.1225,-5.8633,-5.5384,-5.1091,-4.7069,0.0,0.0,0.0,0.0,0.0,0.0,0.0,0.0,0.0,0.0,0.0,0.0,0.0,0.0,0.0,0.0,0.0,0.0,0.0,0.0,-4.5735,0.0,0.0,0.0,0.0,0.0,0.0,0.0,0.0,0.0,0.0,-4.9005,-5.2356,-5.5589,-5.7264,0.0,0.0,0.0,0.0,-5.9304,-5.6996,-5.6494,-5.6299,-5.5589,-5.6709,-5.7994,-5.8812,0.0,0.0,-6.0194,-5.8831,-5.7619,-5.6685,-5.7936,-5.87,-5.7761,-5.6169,-5.5234,-5.5195,-5.5282,-5.4952,-5.4246,-5.4896,-5.5165,-6.5074,0.0,0.0,0.0,0.0,-6.2778,-6.4876,-6.8115,-6.8346,-6.7036,-6.4725,-6.4956,0.0,0.0,0.0,0.0,0.0,0.0,-6.0944,-6.3762,-6.5765,-6.7563,-6.9143,-6.9143,-6.8835,-6.8257,-6.691,-6.4934,-6.2432,-6.0623,-5.5594,-4.7697,0.0,0.0,0.0,0.0,-5.6879,-6.0303,-6.4685,-6.7514,-6.8594,-6.8027,-6.7459,-6.683,-6.576,-6.4159,-6.2027,-6.0094,-5.7137,-5.2956,-5.1022,0.0,0.0,0.0,0.0,0.0,0.0,0.0,0.0,0.0,0.0,0.0,0.0,0.0,0.0,0.0,0.0,0.0,0.0,0.0,-4.4111,-4.5996,-4.6319,0.0,0.0,0.0,0.0,0.0,0.0,0.0,0.0,0.0,-5.3737,-5.3915,-5.4412,0.0,0.0,-5.6294,-5.5208,-5.7334,-5.9227,-5.9638,-5.9716,0.0,-6.1073,-6.0103,-5.9522,-6.0336,-6.1926,-6.2538,-6.1065,-6.1414,-6.1677,-6.0785,-6.0561,-6.0375,-6.015,-5.9853,-5.9523,-5.9572,-5.9572,-5.9494,-5.9299,-5.9416,-5.945,-7.1258,-6.768,-6.5406,-6.4906,-6.5676,-6.6369,-6.8514,-7.1491,-7.1838,-7.0914,-6.9181,-6.9181,-6.5998,-6.0514,-5.9166,0.0,0.0,0.0,-6.37,-6.7398,-6.7398,-6.8655,-7.0821,-7.0898,-7.0629,-7.0129,-6.9321,-6.7782,-6.559,-6.4051,-5.9595,-5.2462,0.0,0.0,-5.088,-5.4487,-5.786,-6.0933,-6.4463,-6.6684,-6.7533,-6.6746,-6.6063,-6.555,-6.4701,-6.3643,-6.2323,-6.1281,-5.909,-5.5602,-5.398,-5.0888,0.0,0.0,0.0,0.0,0.0,0.0,0.0,0.0,0.0,0.0,0.0,-3.9237,-3.7383,0.0,0.0,0.0,-4.1893,-4.4214,-4.6412,-4.754,0.0,0.0,0.0,0.0,0.0,0.0,0.0,-5.1185,-5.3553,-5.5664,-5.7288,-5.6722,-5.6521,-5.7645,-5.783,-5.7482,-5.6631,0.0,-6.0344,-6.1002,-6.1118,-6.1466,-6.2472,-6.1969,-6.1776,-6.2936,-6.3671,-6.3874,-6.2936,-6.3013,-6.2975,-6.2472,-6.1698,-6.1118,-6.1118,-6.1221,-6.1272,-6.1266,-6.1266,-6.1266,-6.1272,-6.1266,-6.1266,-7.6284,-7.4245,-6.8936,-6.7167,-6.7936,-6.9513,-7.1091,-7.2552,-7.336,-7.3168,-7.2322,-7.2283,-7.0052,-6.6013,-6.2897,0.0,-6.5013,-6.5051,-6.6821,-6.9783,-6.9783,-7.0167,-7.0898,-7.0898,-7.0898,-7.0898,-7.009,-6.8821,-6.7128,-6.4782,-6.1908,-5.8644,-5.6999,-5.5661,-5.4726,-5.6305,-5.844,-6.0896,-6.3341,-6.5033,-6.5881,-6.5169,-6.4778,-6.4651,-6.3852,-6.3004,-6.2232,-6.2039,-6.0882,-5.8479,-5.6088,-5.3272,-4.98,0.0,0.0,0.0,0.0,0.0,0.0,0.0,0.0,0.0,0.0,0.0,0.0,0.0,0.0,-4.2048,-4.5336,0.0,-4.9745,-4.9861,0.0,0.0,0.0,-4.8121,-5.0016,-5.1563,-5.342,-5.5818,0.0,0.0,-5.988,-6.0151,-6.0809,-6.2472,-6.2462,-6.1969,-6.1118,-6.1737,-6.2201,-6.1505,-6.1505,-6.1543,-6.2046,-6.2897,-6.4106,-6.5412,-6.545,-6.4793,-6.4599,-6.3478,-6.2511,-6.2394,-6.1698,-6.1118,-6.1118,-6.1137,-6.1118,-6.1098,-6.1089,-6.1089,-6.1107,-6.1107,-6.1116,-7.6284,-7.4668,-7.3899,-7.3707,-7.3937,-7.4322,-7.4745,-7.513,-7.5322,-7.4553,-7.3206,-7.3206,-7.1552,-6.8744,-6.7936,-6.7898,-6.8513,-6.9129,-6.9821,-7.0591,-7.0629,-7.0744,-7.0898,-7.0898,-7.0898,-7.086,-7.009,-6.9129,-6.809,-6.6821,-6.4486,-6.1304,-6.015,-5.8237,-5.5661,-5.7159,-5.9254,-6.1793,-6.2986,-6.4075,-6.4883,-6.4742,-6.433,-6.3676,-6.2868,-6.2352,-6.2128,-6.0894,-5.9672,-5.8441,-5.7255,-5.5056,-5.1613,-4.7262,0.0,0.0,0.0,0.0,0.0,0.0,0.0,0.0,0.0,-4.1235,-3.7793,0.0,-4.2086,0.0,-4.7224,-5.0442,-5.1486,-5.1022,0.0,0.0,-5.0906,-5.1177,-5.4147,-5.4851,-5.5586,-5.6863,-5.8333,-5.9919,-6.1582,-6.2394,-6.34,-6.4986,-6.3052,-6.1118,-6.0383,-6.2046,-6.3323,-6.3245,-6.4097,-6.4986,-6.4831,-6.4793,-6.4803,-6.5218,-6.4571,-6.4029,-6.4029,-6.3129,-6.2433,-6.2356,-6.1698,-6.1157,-6.1118,-6.1118,-6.1118,-6.1118,-6.1118,-6.1118,-6.1118,-6.1118,-6.1118,-7.6169,-7.5322,-7.5784,-7.5976,-7.5976,-7.5592,-7.5438,-7.5399,-7.5438,-7.4899,-7.4,-7.3245,-7.1937,-7.0283,-7.0244,-7.0244,-7.0244,-7.0706,-7.0898,-7.0898,-7.0898,-7.0898,-7.0898,-7.0898,-7.0898,-7.086,-7.009,-6.9244,-6.8398,-6.7513,-6.5795,-6.3243,-6.2704,-6.1177,-5.871,-5.8407,-5.9165,-6.0935,-6.2474,-6.3512,-6.4012,-6.4012,-6.3089,-6.1166,-6.0627,-5.9881,-5.8759,-5.7835,-5.6767,-5.5555,-5.5065,-5.3639,-5.1019,-4.7589,-4.4869,0.0,0.0,0.0,0.0,0.0,0.0,0.0,0.0,0.0,0.0,0.0,-4.4407,-4.6032,-4.9745,-5.2414,-5.3265,-5.3265,-5.3683,-5.5045,-5.434,-5.4804,-5.7443,-5.8062,-5.8758,-5.9996,-6.135,-6.2665,-6.3942,-6.4522,-6.5141,-6.6069,-6.4561,-6.3207,-6.2897,-6.398,-6.4793,-6.487,-6.5605,-6.6031,-6.5721,-6.5296,-6.487,-6.4445,-6.3671,-6.3129,-6.3091,-6.2394,-6.1814,-6.1776,-6.1427,-6.1118,-6.1118,-6.1118,-6.1118,-6.1118,-6.1118,-6.1118,-6.1118,-6.1118,-6.1118,-7.5976,-7.5976,-7.5976,-7.5976,-7.5938,-7.5168,-7.4861,-7.4861,-7.4861,-7.4745,-7.4437,-7.2745,-7.1591,-7.0898,-7.0898,-7.0898,-7.0898,-7.0898,-7.0898,-7.0898,-7.0898,-7.0898,-7.0898,-7.0783,-7.0744,-7.0706,-6.9821,-6.8975,-6.8205,-6.7359,-6.609,-6.4512,-6.4436,-6.3551,-6.1755,-5.955,-5.8781,-5.9511,-6.1781,-6.2935,-6.2808,-6.2615,-6.105,-5.8165,-5.7857,-5.678,-5.4626,-5.4395,-5.3626,-5.2192,-5.2077,-5.1462,-5.0087,-4.7557,-4.5834,0.0,-4.2718,0.0,0.0,0.0,0.0,0.0,0.0,0.0,0.0,-4.683,-4.7719,-5.0117,-5.2561,-5.434,-5.52,-5.5935,-5.6708,-5.7512,-5.7628,-5.8294,-5.9841,-6.077,-6.1892,-6.3526,-6.4493,-6.5296,-6.5992,-6.6185,-6.6185,-6.6185,-6.6069,-6.5837,-6.6069,-6.6031,-6.6069,-6.6185,-6.6108,-6.5721,-6.518,-6.4793,-6.4329,-6.3603,-6.282,-6.224,-6.224,-6.1621,-6.1118,-6.1118,-6.1118,-6.1118,-6.1118,-6.1118,-6.1118,-6.1118,-6.1118,-6.1118,-6.1118,-6.1118,-6.1118,-7.5976,-7.5976,-7.5976,-7.5976,-7.5976,-7.5822,-7.5745,-7.5745,-7.5745,-7.5014,-7.363,-7.1898,-7.1052,-7.0898,-7.0898,-7.0898,-7.0898,-7.0898,-7.0898,-7.0898,-7.0898,-7.0898,-7.086,-7.0206,-6.9937,-6.9821,-6.8359,-6.7513,-6.7321,-6.6513,-6.5243,-6.3589,-6.3538,-6.2358,-6.0089,0.0,0.0,0.0,-6.0666,-6.0935,-6.0204,-5.8896,-5.755,-5.6242,-5.5549,0.0,-5.4511,-5.3818,-5.3318,-5.2972,-5.2972,0.0,0.0,0.0,0.0,0.0,0.0,0.0,0.0,0.0,0.0,0.0,-4.6637,-4.6182,-4.7,-4.9393,-5.1726,-5.3593,-5.5409,-5.6857,-5.7791,-5.8023,-5.8449,-5.93,-5.9416,-5.9803,-6.077,-6.1621,-6.2588,-6.3555,-6.4493,-6.5296,-6.6069,-6.6185,-6.6185,-6.6185,-6.6185,-6.6185,-6.6185,-6.6185,-6.6185,-6.6147,-6.5682,-6.5218,-6.5035,-6.3826,-6.3013,-6.2549,-6.193,-6.1427,-6.135,-6.1273,-6.1118,-6.1118,-6.1118,-6.1118,-6.1118,-6.1118,-6.1118,-6.1118,-6.1118,-6.1118,-6.1118,-6.1118,-6.1118,-7.5976,0.0,-7.5976,-7.5976,0.0,-7.5976,-7.5976,-7.5976,-7.5976,-7.5053,-7.3399,-7.1668,-7.0898,-7.0898,-7.0898,-7.0898,-7.0898,-7.0898,-7.0898,-7.0898,-7.0898,-7.0706,-7.0321,-6.9898,-6.9475,-6.9013,-6.7705,-6.709,-6.7051,-6.6282,-6.5436,-6.4589,-6.4166,-6.3281,-6.205,-6.1204,-6.0358,-5.9511,-5.9935,-5.9742,-5.8934,-5.8473,-5.7396,-5.578,-5.5318,0.0,0.0,0.0,0.0,0.0,0.0,0.0,0.0,0.0,0.0,-5.0616,-4.9076,-4.8315,-4.8757,-4.9181,-5.0143,-5.1761,-5.2339,-5.1895,-5.0254,-5.3224,-5.575,-5.7053,-5.7555,-5.8356,-5.9601,-5.9456,-5.9543,-6.0383,-6.0499,-6.0654,-6.1157,-6.2278,-6.3207,-6.3719,-6.4831,-6.576,-6.6147,-6.6185,-6.6185,-6.6185,-6.6185,-6.6185,-6.6185,-6.6185,-6.6108,-6.5682,-6.5296,-6.4677,-6.3826,-6.3091,-6.2201,-6.1853,-6.1389,-6.1118,-6.1118,-6.1118,-6.1118,-6.1118,-6.1118,-6.1118,-6.1118,-6.1118,-6.1118,-6.1118,-6.1118,-6.1118,-6.1118,-6.1118,-6.1118,-7.5976,-7.5976,-7.5976,-7.5976,-7.5976,-7.5976,-7.5976,-7.5976,0.0,0.0,0.0,-7.1668,-7.0898,-7.0898,-7.0898,-7.0898,-7.0898,-7.0898,-7.0898,-7.0898,-7.0744,-7.0321,-6.9706,-6.9398,-6.8898,-6.8167,-6.7282,-6.6898,-6.6859,-6.6051,-6.5667,-6.559,-6.4782,-6.432,-6.4051,-6.2639,-6.1089,-5.9588,-5.9358,-5.8973,-5.8357,-5.8665,-5.7819,-5.5742,-5.5549,-5.478,-5.328,-5.25,-5.1779,-5.0971,-5.1048,-5.1212,-5.1366,-5.1366,-5.1443,-5.1558,-5.1597,-5.1933,-5.2741,-5.3472,-5.4549,-5.6049,-5.7588,-5.7352,-5.4593,-5.6983,-5.8883,-5.9626,-5.9009,-5.9145,-6.0403,-5.9949,-5.9853,-6.0548,-6.0751,-6.0838,-6.0993,-6.2588,-6.3681,-6.3874,-6.5141,-6.6185,-6.6185,-6.6185,-6.6185,-6.6185,-6.6185,-6.6108,-6.5992,-6.5915,-6.5721,-6.518,-6.4677,-6.3942,-6.2859,-6.224,-6.1892,-6.1311,-6.1118,-6.1118,-6.1118,-6.1118,-6.1118,-6.1118,-6.1118,-6.1031,-6.0915,-6.0828,-6.0877,-6.0867,-6.0751,-6.0751,-6.1002,-6.0954,-6.0915,-7.5976,-7.5976,-7.5976,-7.5976,-7.5976,-7.5976,-7.5976,-7.5861,-7.4476,-7.3745,-7.3399,-7.1668,-7.0898,-7.0898,-7.0898,-7.0898,-7.0898,-7.0898,-7.0898,-7.086,-7.0167,-6.9821,-6.9629,-6.8167,-6.7398,-6.7205,-6.6436,-6.609,-6.5974,-6.5205,-6.4782,-6.4666,-6.3897,-6.3128,-6.2447,-6.1485,-6.0473,-5.9511,-5.8819,-5.8434,-5.828,-5.6934,-5.6088,-5.5703,-5.5049,-5.4203,-5.3241,-5.3126,-5.2615,-5.1808,-5.2433,-5.3164,-5.3895,-5.3972,-5.428,-5.4934,-5.4983,-5.5357,-5.6175,-5.6406,-5.6896,-5.7857,-5.8781,-5.9138,-5.8726,-5.9072,-5.9441,-5.9562,-5.9419,-5.9209,-5.8885,-5.8703,-5.8664,-5.8867,-5.9524,-5.9969,-6.0017,-6.2056,-6.3516,-6.3516,-6.5141,-6.6108,-6.6031,-6.6147,-6.6185,-6.6185,-6.6108,-6.5953,-6.5412,-6.5141,-6.5151,-6.4831,-6.371,-6.2781,-6.2317,-6.1737,-6.135,-6.1118,-6.1118,-6.1118,-6.1118,-6.1031,-6.0993,-6.1079,-6.0954,-6.0674,-6.0143,-5.9978,-5.9978,-5.993,-5.9486,-5.9399,-6.0626,-6.05,-6.0259,-7.5976,-7.5976,-7.5976,-7.5976,-7.5976,-7.5976,-7.5745,-7.5207,-7.4014,-7.35,-7.3308,-7.1668,-7.0898,-7.0898,-7.0898,-7.0898,-7.0898,-7.0898,-7.0667,-7.0244,-6.986,-6.9206,-6.8282,-6.7475,-6.6859,-6.6436,-6.6051,-6.5667,-6.5166,-6.4782,-6.4359,-6.3897,-6.3051,-6.2243,-6.1408,-6.1012,-6.0589,-6.0204,-5.9358,-5.8742,-5.8319,-5.7511,-5.7319,-5.7742,-5.6973,-5.6588,-5.6626,-5.6203,-5.578,-5.5385,-5.528,-5.5665,-5.6472,-5.6126,-5.6242,-5.7049,-5.7126,-5.728,-5.7665,-5.8127,-5.855,-5.8934,-5.9742,-6.0204,-6.0204,-5.9781,-5.9331,-5.893,-5.8479,-5.8269,-5.8294,-5.7958,-5.7891,-5.8374,-5.879,-5.9031,-5.9196,-6.0451,-6.1504,-6.1746,-6.3467,-6.4763,-6.4801,-6.5634,-6.6185,-6.6185,-6.5876,-6.5373,-6.4948,-6.4135,-6.3594,-6.3516,-6.2897,-6.224,-6.1814,-6.1389,-6.1118,-6.1118,-6.1118,-6.1118,-6.1079,-6.079,-6.0423,-6.0345,-6.0017,-5.9524,-5.907,-5.9031,-5.9031,-5.8993,-5.8751,-5.9031,-5.9911,-5.9998,-6.0143,-7.5976,-7.5976,-7.5976,-7.5976,-7.5976,-7.5976,-7.5515,-7.4668,-7.386,-7.3399,-7.3014,-7.1552,-7.0898,-7.0898,-7.0898,-7.0898,-7.086,-7.0706,-7.0283,-6.9706,-6.9283,-6.8398,-6.7167,-6.6936,-6.6474,-6.5936,-6.5897,-6.5436,-6.4666,-6.4397,-6.3782,-6.2781,-6.2089,-6.1473,-6.0819,-6.0781,-6.0781,-6.0742,-6.0127,-5.9473,-5.8896,-5.8858,-5.9165,-5.9704,-5.9204,-5.9088,-5.9435,-5.8896,-5.8473,-5.828,-5.7627,-5.7627,-5.8204,-5.7665,-5.7588,-5.8204,-5.8269,-5.8396,-5.8588,-5.9358,-5.9781,-5.9781,-6.0435,-6.0704,-6.0473,-5.9896,-5.9165,-5.8396,-5.7791,-5.7505,-5.7538,-5.7125,-5.7068,-5.7726,-5.8006,-5.8132,-5.8209,-5.903,-5.9696,-5.9927,-6.1667,-6.3011,-6.3243,-6.4162,-6.4791,-6.4714,-6.4492,-6.4067,-6.3719,-6.2559,-6.1814,-6.1631,-6.1834,-6.1843,-6.1195,-6.0877,-6.079,-6.079,-6.0548,-6.0345,-6.0259,-5.9853,-5.9524,-5.9408,-5.8954,-5.8461,-5.8219,-5.8094,-5.8132,-5.8094,-5.7803,-5.7996,-5.8788,-5.9253,-5.9611,-7.5976,-7.5976,-7.5976,-7.5976,-7.5976,-7.5976,-7.5476,-7.463,-7.386,-7.3053,-7.2245,-7.1321,-7.0898,-7.0898,-7.0898,-7.0898,-7.086,-7.0129,-6.9783,-6.9475,-6.8052,-6.7244,-6.7013,-6.6359,-6.5974,-6.5897,-6.5859,-6.5359,-6.4512,-6.3743,-6.2627,-6.1204,-6.0935,-6.0896,-6.0819,-6.0781,-6.0781,-6.0781,-6.0704,-6.0666,-6.0589,-6.0589,-6.0589,-6.0666,-6.0589,-6.0204,-5.9588,-5.9435,-5.905,-5.8357,-5.8242,-5.8204,-5.8319,-5.8242,-5.8204,-5.8319,-5.8319,-5.8588,-5.9358,-6.0204,-6.0627,-6.0666,-6.0704,-6.0512,-5.9781,-5.9588,-5.9165,-5.8511,-5.8242,-5.755,-5.6175,-5.5983,-5.6148,-5.6428,-5.6971,-5.7233,-5.7426,-5.8701,-5.9696,-5.9696,-6.0468,-6.125,-6.1288,-6.1646,-6.1723,-6.2043,-6.1888,-6.1502,-6.0884,-6.0421,-5.9881,-5.9466,-6.0094,-6.1031,-6.0867,-6.0384,-6.0017,-5.9853,-5.9234,-5.8954,-5.8915,-5.8828,-5.851,-5.8538,-5.8451,-5.8045,-5.7436,-5.7233,-5.7233,-5.7145,-5.6778,-5.6361,-5.7184,-5.8006,-5.8558,-7.5976,-7.5976,-7.5976,-7.5976,-7.5976,-7.5976,-7.5245,-7.3976,-7.3668,-7.2745,-7.1475,-7.1052,-7.0898,-7.0898,-7.0898,-7.0898,-7.0821,-7.009,-6.9436,-6.8859,-6.7667,-6.6821,-6.6359,-6.6051,-6.5897,-6.582,-6.5359,-6.4666,-6.3743,-6.2512,-6.1435,-6.0858,-6.0781,-6.0781,-6.0781,-6.0781,-6.0781,-6.0781,-6.0781,-6.0781,-6.0781,-6.0781,-6.0781,-6.0781,-6.0781,-6.0666,-6.0319,-6.0281,-6.0127,-5.9781,-5.9281,-5.9242,-5.9742,-5.9281,-5.9242,-5.9704,-5.9781,-5.9935,-6.0242,-6.0589,-6.0781,-6.0781,-6.0781,-6.0627,-6.0319,-6.0281,-5.9896,-5.9127,-5.8588,-5.7973,-5.7319,-5.7242,-5.7242,-5.728,-5.7572,-5.7632,-5.7131,-5.7653,-5.7934,-5.751,-5.8582,-5.9451,-5.9616,-6.037,-6.0931,-6.0931,-6.0583,-5.9956,-5.9696,-5.9271,-5.8808,-5.8615,-5.908,-5.9399,-5.9524,-5.9283,-5.8993,-5.8915,-5.8664,-5.8422,-5.8335,-5.8353,-5.8217,-5.7716,-5.7618,-5.7251,-5.641,-5.6284,-5.6284,-5.6274,-5.6659,-5.6483,-5.6361,-5.702,-5.7369,-7.5976,-7.5976,-7.5976,-7.5976,-7.5976,-7.5745,-7.4861,-7.3553,-7.3245,-7.2283,-7.0975,-7.0898,-7.0898,-7.0898,-7.0898,-7.0783,-7.0475,-6.9706,-6.8898,-6.8013,-6.7167,-6.6474,-6.5936,-6.5897,-6.5897,-6.5743,-6.5051,-6.4051,-6.2935,-6.155,-6.0781,-6.0781,-6.0781,-6.0781,-6.0781,-6.0781,-6.0781,-6.0781,-6.0781,-6.0781,-6.0781,-6.0781,-6.0781,-6.0781,-6.0781,-6.0781,-6.0781,-6.0781,-6.0781,-6.0781,-6.0165,-6.0127,-6.0742,-6.0204,-6.0127,-6.0704,-6.0781,-6.0781,-6.0781,-6.0781,-6.0781,-6.0781,-6.0781,-6.0781,-6.0781,-6.0781,-6.0512,-5.9935,-5.9319,-5.8934,-5.8319,-5.8269,-5.8269,-5.8269,-5.8269,-5.8011,-5.7473,-5.7357,-5.7214,-5.6676,-5.7566,-5.7895,-5.7895,-5.8659,-5.9297,-5.922,-5.8873,-5.8603,-5.8575,-5.8024,-5.7639,-5.7688,-5.7832,-5.8161,-5.8297,-5.8171,-5.8094,-5.7929,-5.7852,-5.7523,-5.7677,-5.7608,-5.751,-5.6729,-5.6697,-5.6522,-5.6071,-5.5829,-5.5752,-5.5818,-5.6165,-5.6445,-5.5945,-5.64,-5.6382,-7.5976,-7.5976,-7.5976,-7.5976,-7.5938,-7.513,-7.4284,-7.336,-7.2668,-7.1745,-7.0975,-7.0898,-7.0898,-7.0898,-7.086,-7.0475,-6.9744,-6.8936,-6.8052,-6.7205,-6.6397,-6.5936,-6.5897,-6.5897,-6.5897,-6.582,-6.4936,-6.3666,-6.2166,-6.1243,-6.0781,-6.0781,-6.0781,-6.0781,-6.0781,-6.0781,-6.0781,-6.0781,-6.0781,-6.0781,-6.0781,-6.0781,-6.0781,-6.0781,-6.0781,-6.0781,-6.0781,-6.0781,-6.0781,-6.0781,-6.0704,-6.0742,-6.0781,-6.0742,-6.0742,-6.0781,-6.0781,-6.0781,-6.0781,-6.0781,-6.0781,-6.0781,-6.0781,-6.0781,-6.0781,-6.0781,-6.0742,-6.0704,-6.055,-5.9935,-5.8742,-5.8627,-5.8511,-5.8473,-5.8396,-5.8396,-5.8242,-5.8204,-5.8242,-5.7973,-5.7522,-5.7033,-5.6137,-5.5868,-5.6302,-5.6351,-5.6071,-5.6109,-5.6274,-5.6071,-5.6032,-5.6235,-5.6697,-5.7373,-5.8084,-5.8024,-5.7492,-5.7454,-5.7268,-5.6197,-5.5906,-5.5791,-5.5906,-5.5906,-5.6099,-5.6099,-5.5818,-5.5703,-5.5703,-5.5742,-5.5742,-5.5742,-5.5742,-5.5703,-5.5763,-7.5976,-7.5976,-7.5976,-7.5668,-7.513,-7.4822,-7.3937,-7.2668,-7.2322,-7.1706,-7.1014,-7.0898,-7.0898,-7.0898,-7.036,-6.9975,-6.9629,-6.8769,-6.7936,-6.7051,-6.6244,-6.5897,-6.5897,-6.5897,-6.5897,-6.5667,-6.4436,-6.2897,-6.1396,-6.0935,-6.0781,-6.0781,-6.0781,-6.0781,-6.0781,-6.0781,-6.0781,-6.0781,-6.0781,-6.0781,-6.0781,-6.0781,-6.0781,-6.0781,-6.0781,-6.0781,-6.0781,-6.0781,-6.0781,-6.0781,-6.0781,-6.0781,-6.0781,-6.0781,-6.0781,-6.0781,-6.0781,-6.0781,-6.0781,-6.0781,-6.0781,-6.0781,-6.0781,-6.0781,-6.0781,-6.0781,-6.0781,-6.0781,-6.0781,-6.0435,-6.0127,-5.9896,-5.9896,-5.9896,-5.9896,-5.9627,-5.9204,-5.905,-5.8896,-5.8319,-5.755,-5.6868,-5.6522,-5.606,-5.5703,-5.5703,-5.5703,-5.5703,-5.5703,-5.5703,-5.5742,-5.5857,-5.6445,-5.711,-5.7373,-5.7874,-5.789,-5.7852,-5.7599,-5.7137,-5.683,-5.6934,-5.7137,-5.6022,-5.5934,-5.6011,-5.5895,-5.5703,-5.5703,-5.5703,-5.5703,-5.5703,-5.5703,-5.5703,-5.5714,-7.5976,-7.5938,-7.5707,-7.5245,-7.4668,-7.4091,-7.3245,-7.2206,-7.1898,-7.1437,-7.0975,-7.0898,-7.0898,-7.0783,-7.0052,-6.9513,-6.9206,-6.8359,-6.7513,-6.6705,-6.6128,-6.5897,-6.5897,-6.5897,-6.5897,-6.5628,-6.4128,-6.2435,-6.0973,-6.0781,-6.0781,-6.0781,-6.0781,-6.0781,-6.0781,-6.0781,-6.0781,-6.0781,-6.0781,-6.0781,-6.0781,-6.0781,-6.0781,-6.0781,-6.0781,-6.0781,-6.0781,-6.0781,-6.0781,-6.0781,-6.0781,-6.0781,-6.0781,-6.0781,-6.0781,-6.0781,-6.0781,-6.0781,-6.0781,-6.0781,-6.0781,-6.0781,-6.0781,-6.0781,-6.0781,-6.0781,-6.0781,-6.0781,-6.0781,-6.0781,-6.0781,-6.0781,-6.0781,-6.0781,-6.0781,-6.055,-6.0012,-5.9896,-5.9511,-5.8858,-5.828,-5.7703,-5.706,-5.6472,-5.6049,-5.5742,-5.5703,-5.5703,-5.5703,-5.5972,-5.6126,-5.6214,-5.7203,-5.7819,-5.8303,-5.8842,-5.8523,-5.8407,-5.8292,-5.7934,-5.7511,-5.7819,-5.7511,-5.6357,-5.5934,-5.606,-5.6022,-5.578,-5.5703,-5.5703,-5.5703,-5.5703,-5.5703,-5.5703,-5.5714,-7.5976,-7.5822,-7.5091,-7.4668,-7.4284,-7.3014,-7.2245,-7.1975,-7.1321,-7.0975,-7.0898,-7.0898,-7.0898,-7.0706,-6.9937,-6.9206,-6.8475,-6.7552,-6.6705,-6.6013,-6.5936,-6.5897,-6.5897,-6.5897,-6.5743,-6.5551,-6.4089,-6.2435,-6.0858,-6.0781,-6.0781,-6.0781,-6.0781,-6.0781,-6.0781,-6.0781,-6.0781,-6.0781,-6.0781,-6.0781,-6.0781,-6.0781,-6.0781,-6.0781,-6.0781,-6.0781,-6.0781,-6.0781,-6.0781,-6.0781,-6.0781,-6.0781,-6.0781,-6.0781,-6.0781,-6.0781,-6.0781,-6.0781,-6.0781,-6.0781,-6.0781,-6.0781,-6.0781,-6.0781,-6.0781,-6.0781,-6.0781,-6.0781,-6.0781,-6.0781,-6.0781,-6.0781,-6.0781,-6.0781,-6.0781,-6.0742,-6.0704,-6.0742,-6.0473,-5.9704,-5.9319,-5.8742,-5.7599,-5.706,-5.6791,-5.6242,-5.6049,-5.6049,-5.6165,-5.6626,-5.6945,-5.7253,-5.805,-5.8819,-5.9473,-6.0012,-5.9435,-5.8934,-5.8781,-5.8511,-5.7742,-5.7665,-5.7165,-5.6203,-5.578,-5.5895,-5.5895,-5.5703,-5.5703,-5.5703,-5.5703,-5.5703,-5.5703,-5.5703,-5.5703,-7.5668,-7.5091,-7.4822,-7.4014,-7.3014,-7.2399,-7.1898,-7.1321,-7.0975,-7.0898,-7.0898,-7.0898,-7.0898,-7.0552,-6.9475,-6.8667,-6.8269,-6.6974,-6.6128,-6.5936,-6.5897,-6.5897,-6.5897,-6.5897,-6.5282,-6.4205,-6.3589,-6.2435,-6.1089,-6.0819,-6.0781,-6.0781,-6.0781,-6.0781,-6.0781,-6.0781,-6.0781,-6.0781,-6.0781,-6.0781,-6.0781,-6.0781,-6.0781,-6.0781,-6.0781,-6.0781,-6.0781,-6.0781,-6.0781,-6.0781,-6.0781,-6.0781,-6.0781,-6.0781,-6.0781,-6.0781,-6.0781,-6.0781,-6.0781,-6.0781,-6.0781,-6.0781,-6.0781,-6.0781,-6.0781,-6.0781,-6.0781,-6.0781,-6.0781,-6.0781,-6.0781,-6.0781,-6.0781,-6.0781,-6.0781,-6.0781,-6.0781,-6.0781,-6.0704,-6.0396,-5.9858,-5.9242,-5.8742,-5.8319,-5.7742,-5.7473,-5.7357,-5.7396,-5.7473,-5.7588,-5.7896,-5.8011,-5.8973,-5.9627,-5.9935,-6.0281,-6.0127,-5.9781,-5.9588,-5.9088,-5.8319,-5.778,-5.7126,-5.6357,-5.5934,-5.5703,-5.5703,-5.5703,-5.5703,-5.5703,-5.5703,-5.5703,-5.5703,-5.5703,-5.5703,-7.5207,-7.4668,-7.4053,-7.3206,-7.2168,-7.186,-7.1437,-7.0937,-7.0898,-7.0898,-7.0898,-7.0898,-7.0898,-7.0552,-6.9167,-6.8436,-6.8244,-6.6667,-6.5897,-6.5897,-6.5897,-6.5897,-6.5897,-6.5897,-6.5205,-6.3974,-6.3435,-6.2589,-6.1331,-6.0973,-6.0781,-6.0781,-6.0781,-6.0781,-6.0781,-6.0781,-6.0781,-6.0781,-6.0781,-6.0781,-6.0781,-6.0781,-6.0781,-6.0781,-6.0781,-6.0781,-6.0781,-6.0781,-6.0781,-6.0781,-6.0781,-6.0781,-6.0781,-6.0781,-6.0781,-6.0781,-6.0781,-6.0781,-6.0781,-6.0781,-6.0781,-6.0781,-6.0781,-6.0781,-6.0781,-6.0781,-6.0781,-6.0781,-6.0781,-6.0781,-6.0781,-6.0781,-6.0781,-6.0781,-6.0781,-6.0781,-6.0781,-6.0781,-6.0781,-6.0627,-6.0319,-5.9896,-5.9435,-5.9165,-5.8588,-5.8396,-5.828,-5.805,-5.8088,-5.8319,-5.8473,-5.8781,-5.9435,-5.9858,-6.005,-6.0358,-6.0742,-6.0666,-6.055,-5.9819,-5.905,-5.8781,-5.828,-5.6857,-5.6126,-5.5742,-5.5703,-5.5703,-5.5703,-5.5703,-5.578,-5.5703,-5.5703,-5.5703,-5.5703,-7.4668,-7.4437,-7.2899,-7.2206,-7.1975,-7.1283,-7.0975,-7.0898,-7.0898,-7.0898,-7.0898,-7.0898,-7.0898,-7.0514,-6.9167,-6.8398,-6.809,-6.6667,-6.5897,-6.5897,-6.5897,-6.5897,-6.5897,-6.5897,-6.5359,-6.4512,-6.3782,-6.2935,-6.1947,-6.1331,-6.0819,-6.0819,-6.0781,-6.0781,-6.0781,-6.0781,-6.0781,-6.0781,-6.0781,-6.0781,-6.0781,-6.0781,-6.0781,-6.0781,-6.0781,-6.0781,-6.0781,-6.0781,-6.0781,-6.0781,-6.0781,-6.0781,-6.0781,-6.0781,-6.0781,-6.0781,-6.0781,-6.0781,-6.0781,-6.0781,-6.0781,-6.0781,-6.0781,-6.0781,-6.0781,-6.0781,-6.0781,-6.0781,-6.0781,-6.0781,-6.0781,-6.0781,-6.0781,-6.0781,-6.0781,-6.0781,-6.0781,-6.0781,-6.0781,-6.0781,-6.0742,-6.0473,-5.9665,-5.9511,-5.9165,-5.8588,-5.8473,-5.8434,-5.8088,-5.8588,-5.9011,-5.9473,-6.0012,-6.0204,-6.0435,-6.0473,-6.0781,-6.0781,-6.0742,-6.0204,-5.9473,-5.9204,-5.8665,-5.7319,-5.6472,-5.6049,-5.5703,-5.5703,-5.5857,-5.606,-5.6022,-5.578,-5.578,-5.5857,-5.5703,-7.4361,-7.3692,-7.2668,-7.1822,-7.1283,-7.0975,-7.0898,-7.0898,-7.0898,-7.0898,-7.0898,-7.0898,-7.086,-7.0706,-6.9167,-6.8398,-6.7936,-6.6628,-6.5897,-6.5897,-6.5897,-6.5897,-6.5897,-6.5859,-6.5474,-6.4705,-6.432,-6.3512,-6.2178,-6.1831,-6.1408,-6.0819,-6.0781,-6.0781,-6.0781,-6.0781,-6.0781,-6.0781,-6.0781,-6.0781,-6.0781,-6.0781,-6.0781,-6.0781,-6.0781,-6.0781,-6.0781,-6.0781,-6.0781,-6.0781,-6.0781,-6.0781,-6.0781,-6.0781,-6.0781,-6.0781,-6.0781,-6.0781,-6.0781,-6.0781,-6.0781,-6.0781,-6.0781,-6.0781,-6.0781,-6.0781,-6.0781,-6.0781,-6.0781,-6.0781,-6.0781,-6.0781,-6.0781,-6.0781,-6.0781,-6.0781,-6.0781,-6.0781,-6.0781,-6.0781,-6.0781,-6.0358,-5.9973,-5.9935,-5.9819,-5.8934,-5.9165,-5.9511,-5.8781,-5.9319,-5.9973,-6.0204,-6.055,-6.0666,-6.0742,-6.0742,-6.0781,-6.0781,-6.0627,-6.0319,-5.9627,-5.905,-5.8242,-5.7176,-5.7049,-5.6703,-5.6099,-5.5752,-5.606,-5.6522,-5.6175,-5.5972,-5.6214,-5.6329,-5.5857,-7.3937,-7.3399,-7.2168,-7.136,-7.0937,-7.0898,-7.0898,-7.0898,-7.0898,-7.0898,-7.0898,-7.0898,-7.0706,-7.0244,-6.9013,-6.8205,-6.7705,-6.6474,-6.5936,-6.5897,-6.5897,-6.5897,-6.5897,-6.5859,-6.5628,-6.5166,-6.4743,-6.3858,-6.2743,-6.2293,-6.1639,-6.0935,-6.0781,-6.0781,-6.0781,-6.0781,-6.0781,-6.0781,-6.0781,-6.0781,-6.0781,-6.0781,-6.0781,-6.0781,-6.0781,-6.0781,-6.0781,-6.0781,-6.0781,-6.0781,-6.0781,-6.0781,-6.0781,-6.0781,-6.0781,-6.0781,-6.0781,-6.0781,-6.0781,-6.0781,-6.0781,-6.0781,-6.0781,-6.0781,-6.0781,-6.0781,-6.0781,-6.0781,-6.0781,-6.0781,-6.0781,-6.0781,-6.0781,-6.0781,-6.0781,-6.0781,-6.0781,-6.0781,-6.0781,-6.0781,-6.0781,-6.0666,-6.0089,-6.0512,-6.005,-5.9473,-5.9896,-5.9473,-5.8781,-5.9935,-6.0396,-6.0012,-6.005,-6.005,-5.9781,-5.9704,-5.9781,-5.9896,-5.9973,-5.9781,-5.9742,-5.9088,-5.8665,-5.805,-5.7742,-5.733,-5.6714,-5.6357,-5.678,-5.6934,-5.6511,-5.6395,-5.6637,-5.6483,-5.606,-7.35,-7.336,-7.1629,-7.0898,-7.0898,-7.0898,-7.0898,-7.0898,-7.0898,-7.0898,-7.0898,-7.0898,-7.0475,-6.9667,-6.8859,-6.7936,-6.7128,-6.6282,-6.5974,-6.5897,-6.5897,-6.5897,-6.5897,-6.5897,-6.582,-6.5667,-6.5051,-6.432,-6.3474,-6.2666,-6.182,-6.1166,-6.0935,-6.0781,-6.0781,-6.0781,-6.0781,-6.0781,-6.0781,-6.0781,-6.0781,-6.0781,-6.0781,-6.0781,-6.0781,-6.0781,-6.0781,-6.0781,-6.0781,-6.0781,-6.0781,-6.0781,-6.0781,-6.0781,-6.0781,-6.0781,-6.0781,-6.0781,-6.0781,-6.0781,-6.0781,-6.0781,-6.0781,-6.0781,-6.0781,-6.0781,-6.0781,-6.0781,-6.0781,-6.0781,-6.0781,-6.0781,-6.0781,-6.0781,-6.0781,-6.0781,-6.0781,-6.0781,-6.0781,-6.0781,-6.0781,-6.0781,-6.0666,-6.0589,-6.0242,-5.8588,-5.9204,-5.8973,-5.8511,-5.905,-5.8934,-5.828,-5.8588,-5.9088,-5.8781,-5.8462,-5.8588,-5.8704,-5.8819,-5.8934,-5.9627,-5.9396,-5.9358,-5.905,-5.8473,-5.7934,-5.7396,-5.7357,-5.7627,-5.7703,-5.7473,-5.728,-5.7137,-5.6676,-5.6214,-7.35,-7.3346,-7.1629,-7.0898,-7.0898,-7.0898,-7.0898,-7.0898,-7.0898,-7.0898,-7.0898,-7.0898,-7.0437,-6.9629,-6.8783,-6.7936,-6.7013,-6.6282,-6.5897,-6.5897,-6.5897,-6.5897,-6.5897,-6.5897,-6.5897,-6.582,-6.5705,-6.5128,-6.4282,-6.3435,-6.2627,-6.1831,-6.1177,-6.0781,-6.0781,-6.0781,-6.0781,-6.0781,-6.0781,-6.0781,-6.0781,-6.0781,-6.0781,-6.0781,-6.0781,-6.0781,-6.0781,-6.0781,-6.0781,-6.0781,-6.0781,-6.0781,-6.0781,-6.0781,-6.0781,-6.0781,-6.0781,-6.0781,-6.0781,-6.0781,-6.0781,-6.0781,-6.0781,-6.0781,-6.0781,-6.0781,-6.0781,-6.0781,-6.0781,-6.0781,-6.0781,-6.0781,-6.0781,-6.0781,-6.0781,-6.0781,-6.0781,-6.0781,-6.0781,-6.0781,-6.0781,-6.055,-5.9935,-5.9973,-5.9358,-5.8088,-5.7973,-5.8165,-5.8204,-5.828,-5.7934,-5.7396,-5.778,-5.828,-5.7934,-5.7627,-5.7627,-5.7627,-5.7703,-5.7819,-5.8511,-5.9204,-5.8973,-5.9011,-5.9011,-5.8511,-5.8088,-5.8088,-5.828,-5.8357,-5.8396,-5.8165,-5.7819,-5.7126,-5.6522,-7.3245,-7.2745,-7.1437,-7.0898,-7.0898,-7.0898,-7.0898,-7.0898,-7.0898,-7.0898,-7.0898,-7.0898,-7.0244,-6.9129,-6.859,-6.7782,-6.6667,-6.6128,-6.5897,-6.5897,-6.5897,-6.5897,-6.5897,-6.5897,-6.5897,-6.5897,-6.5859,-6.5397,-6.4666,-6.4089,-6.3281,-6.2178,-6.1601,-6.1166,-6.0819,-6.0781,-6.0781,-6.0781,-6.0781,-6.0781,-6.0781,-6.0781,-6.0781,-6.0781,-6.0781,-6.0781,-6.0781,-6.0781,-6.0781,-6.0781,-6.0781,-6.0781,-6.0781,-6.0781,-6.0781,-6.0781,-6.0781,-6.0781,-6.0781,-6.0781,-6.0781,-6.0781,-6.0781,-6.0781,-6.0781,-6.0781,-6.0781,-6.0781,-6.0781,-6.0781,-6.0781,-6.0781,-6.0781,-6.0781,-6.0781,-6.0781,-6.0781,-6.0781,-6.0781,-6.0781,-6.0781,-6.0589,-6.0281,-5.9973,-5.9242,-5.8357,-5.855,-5.8588,-5.7242,-5.7319,-5.7396,-5.7165,-5.7396,-5.7473,-5.7088,-5.6857,-5.678,-5.6703,-5.6665,-5.6665,-5.6934,-5.7703,-5.8357,-5.8627,-5.8934,-5.9204,-5.8896,-5.8934,-5.8858,-5.8973,-5.8973,-5.8896,-5.8473,-5.7627,-5.7099,-7.286,-7.2129,-7.1245,-7.0898,-7.0898,-7.0898,-7.0898,-7.0898,-7.0898,-7.0898,-7.086,-7.0821,-6.9821,-6.8654,-6.8205,-6.7282,-6.6282,-6.5936,-6.5897,-6.5897,-6.5897,-6.5897,-6.5897,-6.5897,-6.5897,-6.5897,-6.5897,-6.5436,-6.5013,-6.4589,-6.3858,-6.2666,-6.2139,-6.1716,-6.1127,-6.0819,-6.0781,-6.0781,-6.0781,-6.0781,-6.0781,-6.0781,-6.0781,-6.0781,-6.0781,-6.0781,-6.0781,-6.0781,-6.0781,-6.0781,-6.0781,-6.0781,-6.0781,-6.0781,-6.0781,-6.0781,-6.0781,-6.0781,-6.0781,-6.0781,-6.0781,-6.0781,-6.0781,-6.0781,-6.0781,-6.0781,-6.0781,-6.0781,-6.0781,-6.0781,-6.0781,-6.0781,-6.0781,-6.0781,-6.0781,-6.0781,-6.0781,-6.0781,-6.0781,-6.0781,-6.0781,-6.0666,-6.055,-6.0319,-5.9473,-5.8819,-5.9011,-5.8665,-5.7242,-5.6434,-5.6588,-5.6588,-5.6742,-5.678,-5.6434,-5.6357,-5.6242,-5.6165,-5.5972,-5.5972,-5.6011,-5.6857,-5.7819,-5.8473,-5.8819,-5.9011,-5.9242,-5.9165,-5.9204,-5.9473,-5.955,-5.9511,-5.8896,-5.8088,-5.7561,-7.2322,-7.2129,-7.1245,-7.0898,-7.0898,-7.0898,-7.0898,-7.0898,-7.0898,-7.0898,-7.0821,-7.0206,-6.9398,-6.8436,-6.759,-6.6782,-6.6051,-6.5897,-6.5897,-6.5897,-6.5897,-6.5897,-6.5897,-6.5897,-6.5897,-6.5897,-6.5897,-6.5743,-6.5474,-6.4974,-6.4436,-6.3897,-6.2858,-6.2101,-6.1716,-6.1254,-6.0858,-6.0781,-6.0781,-6.0781,-6.0781,-6.0781,-6.0781,-6.0781,-6.0781,-6.0781,-6.0781,-6.0781,-6.0781,-6.0781,-6.0781,-6.0781,-6.0781,-6.0781,-6.0781,-6.0781,-6.0781,-6.0781,-6.0781,-6.0781,-6.0781,-6.0781,-6.0781,-6.0781,-6.0781,-6.0781,-6.0781,-6.0781,-6.0781,-6.0781,-6.0781,-6.0781,-6.0781,-6.0781,-6.0781,-6.0781,-6.0781,-6.0781,-6.0781,-6.0781,-6.0781,-6.0781,-6.0666,-6.0396,-5.955,-5.8704,-5.8357,-5.778,-5.6511,-5.5972,-5.5972,-5.5934,-5.5895,-5.5895,-5.5818,-5.5857,-5.5857,-5.5895,-5.5818,-5.5818,-5.6011,-5.656,-5.7242,-5.7627,-5.8127,-5.8434,-5.8704,-5.905,-5.9204,-5.9165,-5.955,-5.9973,-5.9011,-5.7973,-5.7638,-7.1937,-7.1514,-7.1052,-7.0898,-7.0898,-7.0898,-7.0898,-7.0898,-7.0898,-7.0898,-7.0667,-7.0052,-6.9244,-6.8359,-6.7475,-6.6628,-6.6051,-6.5897,-6.5897,-6.5897,-6.5897,-6.5897,-6.5897,-6.5897,-6.5897,-6.5897,-6.5897,-6.5897,-6.5859,-6.5513,-6.5051,-6.4512,-6.3705,-6.3012,-6.2216,-6.1716,-6.1216,-6.0973,-6.0819,-6.0781,-6.0781,-6.0781,-6.0781,-6.0781,-6.0781,-6.0781,-6.0781,-6.0781,-6.0781,-6.0781,-6.0781,-6.0781,-6.0781,-6.0781,-6.0781,-6.0781,-6.0781,-6.0781,-6.0781,-6.0781,-6.0781,-6.0781,-6.0781,-6.0781,-6.0781,-6.0781,-6.0781,-6.0781,-6.0781,-6.0781,-6.0781,-6.0781,-6.0781,-6.0781,-6.0781,-6.0781,-6.0781,-6.0781,-6.0781,-6.0781,-6.0781,-6.0781,-6.0781,-6.0281,-5.955,-5.8781,-5.8011,-5.7011,-5.5972,-5.5703,-5.5703,-5.5703,-5.5703,-5.5703,-5.5703,-5.5703,-5.5703,-5.5703,-5.5703,-5.5703,-5.578,-5.6252,-5.6329,-5.6445,-5.6934,-5.7627,-5.805,-5.8319,-5.855,-5.8781,-5.8973,-5.9011,-5.8511,-5.7934,-5.7511,-7.1552,-7.0898,-7.0898,-7.0898,-7.0898,-7.0898,-7.0898,-7.0898,-7.0898,-7.0783,-7.0552,-6.9783,-6.8898,-6.809,-6.7244,-6.6474,-6.5897,-6.5897,-6.5897,-6.5897,-6.5897,-6.5897,-6.5897,-6.5897,-6.5897,-6.5897,-6.5897,-6.5897,-6.5897,-6.582,-6.5474,-6.5013,-6.4782,-6.4051,-6.2947,-6.2293,-6.1716,-6.1293,-6.0858,-6.0781,-6.0781,-6.0781,-6.0781,-6.0781,-6.0781,-6.0781,-6.0781,-6.0781,-6.0781,-6.0781,-6.0781,-6.0781,-6.0781,-6.0781,-6.0781,-6.0781,-6.0781,-6.0781,-6.0781,-6.0781,-6.0781,-6.0781,-6.0781,-6.0781,-6.0781,-6.0781,-6.0781,-6.0781,-6.0781,-6.0781,-6.0781,-6.0781,-6.0781,-6.0781,-6.0781,-6.0781,-6.0781,-6.0781,-6.0781,-6.0781,-6.0781,-6.0781,-6.0781,-6.0627,-5.9973,-5.9127,-5.8357,-5.7511,-5.6511,-5.5818,-5.5703,-5.5703,-5.5703,-5.5703,-5.5703,-5.5703,-5.5703,-5.5703,-5.5703,-5.5703,-5.5703,-5.5818,-5.5829,-5.5906,-5.6175,-5.6819,-5.7203,-5.7588,-5.778,-5.7973,-5.8127,-5.8088,-5.778,-5.7473,-5.7099,-7.0975,-7.0898,-7.0898,-7.0898,-7.0898,-7.0898,-7.0898,-7.0898,-7.0898,-7.0475,-6.9898,-6.8975,-6.8129,-6.7244,-6.6474,-6.6051,-6.5936,-6.5897,-6.5897,-6.5897,-6.5897,-6.5897,-6.5897,-6.5897,-6.5897,-6.5897,-6.5897,-6.5897,-6.5897,-6.5897,-6.5859,-6.5551,-6.5013,-6.4436,-6.3935,-6.3012,-6.2062,-6.1831,-6.1166,-6.0781,-6.0781,-6.0781,-6.0781,-6.0781,-6.0781,-6.0781,-6.0781,-6.0781,-6.0781,-6.0781,-6.0781,-6.0781,-6.0781,-6.0781,-6.0781,-6.0781,-6.0781,-6.0781,-6.0781,-6.0781,-6.0781,-6.0781,-6.0781,-6.0781,-6.0781,-6.0781,-6.0781,-6.0781,-6.0781,-6.0781,-6.0781,-6.0781,-6.0781,-6.0781,-6.0781,-6.0781,-6.0781,-6.0781,-6.0781,-6.0781,-6.0781,-6.0781,-6.0781,-6.0666,-6.0435,-5.955,-5.8704,-5.7819,-5.6973,-5.6203,-5.5703,-5.5703,-5.5703,-5.5703,-5.5703,-5.5703,-5.5703,-5.5703,-5.5703,-5.5703,-5.5703,-5.5703,-5.5703,-5.5818,-5.5983,-5.606,-5.6357,-5.6676,-5.6945,-5.7176,-5.7357,-5.7319,-5.7214,-5.6907,-5.6637,-7.0898,-7.0898,-7.0898,-7.0898,-7.0898,-7.0898,-7.0898,-7.0898,-7.0898,-7.0437,-6.9629,-6.8783,-6.7705,-6.6551,-6.6013,-6.5897,-6.5897,-6.5897,-6.5897,-6.5897,-6.5897,-6.5897,-6.5897,-6.5897,-6.5897,-6.5897,-6.5897,-6.5897,-6.5897,-6.5897,-6.5897,-6.582,-6.5513,-6.5051,-6.4743,-6.3897,-6.2974,-6.2178,-6.1281,-6.0819,-6.0781,-6.0781,-6.0781,-6.0781,-6.0781,-6.0781,-6.0781,-6.0781,-6.0781,-6.0781,-6.0781,-6.0781,-6.0781,-6.0781,-6.0781,-6.0781,-6.0781,-6.0781,-6.0781,-6.0781,-6.0781,-6.0781,-6.0781,-6.0781,-6.0781,-6.0781,-6.0781,-6.0781,-6.0781,-6.0781,-6.0781,-6.0781,-6.0781,-6.0781,-6.0781,-6.0781,-6.0781,-6.0781,-6.0781,-6.0781,-6.0781,-6.0781,-6.0781,-6.0742,-6.0473,-5.9781,-5.8896,-5.7973,-5.7088,-5.6203,-5.5857,-5.5703,-5.5703,-5.5703,-5.5703,-5.5703,-5.5703,-5.5703,-5.5703,-5.5703,-5.5703,-5.5703,-5.5703,-5.5703,-5.578,-5.5829,-5.5752,-5.5945,-5.6329,-5.6483,-5.6549,-5.656,-5.6522,-5.6329,-5.606,-7.0898,-7.0898,-7.0898,-7.0898,-7.0898,-7.0898,-7.0898,-7.0898,-7.0629,-7.0129,-6.9244,-6.8244,-6.6974,-6.6128,-6.5897,-6.5897,-6.5897,-6.5897,-6.5897,-6.5897,-6.5897,-6.5897,-6.5897,-6.5897,-6.5897,-6.5897,-6.5897,-6.5897,-6.5897,-6.5897,-6.5897,-6.5897,-6.582,-6.5513,-6.5051,-6.4474,-6.3705,-6.2139,-6.1524,-6.1089,-6.0858,-6.0781,-6.0781,-6.0781,-6.0781,-6.0781,-6.0781,-6.0781,-6.0781,-6.0781,-6.0781,-6.0781,-6.0781,-6.0781,-6.0781,-6.0781,-6.0781,-6.0781,-6.0781,-6.0781,-6.0781,-6.0781,-6.0781,-6.0781,-6.0781,-6.0781,-6.0781,-6.0781,-6.0781,-6.0781,-6.0781,-6.0781,-6.0781,-6.0781,-6.0781,-6.0781,-6.0781,-6.0781,-6.0781,-6.0781,-6.0781,-6.0781,-6.0781,-6.0781,-6.0473,-5.9896,-5.9088,-5.8165,-5.7242,-5.6395,-5.5972,-5.578,-5.5742,-5.5742,-5.5703,-5.5703,-5.5703,-5.5703,-5.5703,-5.5703,-5.5703,-5.5703,-5.5703,-5.5703,-5.5703,-5.5703,-5.5703,-5.5703,-5.5703,-5.5934,-5.6088,-5.5934,-5.578,-5.5703,-5.5703,-7.0898,-7.0898,-7.0898,-7.0898,-7.0898,-7.0898,-7.0898,-7.0821,-7.0129,-6.936,-6.8321,-6.6936,-6.6205,-6.5936,-6.5897,-6.5897,-6.5897,-6.5897,-6.5897,-6.5897,-6.5897,-6.5897,-6.5897,-6.5897,-6.5897,-6.5897,-6.5897,-6.5897,-6.5897,-6.5897,-6.5897,-6.5897,-6.5897,-6.5859,-6.5474,-6.4859,-6.3974,-6.2716,-6.2139,-6.1601,-6.1139,-6.0896,-6.0896,-6.0819,-6.0781,-6.0781,-6.0781,-6.0781,-6.0781,-6.0781,-6.0781,-6.0781,-6.0781,-6.0781,-6.0781,-6.0781,-6.0781,-6.0781,-6.0781,-6.0781,-6.0781,-6.0781,-6.0781,-6.0781,-6.0781,-6.0781,-6.0781,-6.0781,-6.0781,-6.0781,-6.0781,-6.0781,-6.0781,-6.0781,-6.0781,-6.0781,-6.0781,-6.0781,-6.0781,-6.0781,-6.0781,-6.0781,-6.0781,-6.0781,-6.0781,-6.0281,-5.955,-5.8665,-5.7627,-5.6742,-5.6203,-5.5934,-5.5857,-5.578,-5.5703,-5.5703,-5.5703,-5.5703,-5.5703,-5.5703,-5.5703,-5.5703,-5.5703,-5.5703,-5.5703,-5.5703,-5.5703,-5.5703,-5.5703,-5.5703,-5.5703,-5.5703,-5.5703,-5.5703,-5.5703,-7.0898,-7.0898,-7.0898,-7.0898,-7.0898,-7.0898,-7.0898,-7.0783,-7.0052,-6.8859,-6.7513,-6.6436,-6.5897,-6.5897,-6.5897,-6.5897,-6.5897,-6.5897,-6.5897,-6.5897,-6.5897,-6.5897,-6.5897,-6.5897,-6.5897,-6.5897,-6.5897,-6.5897,-6.5897,-6.5897,-6.5897,-6.5897,-6.5897,-6.5897,-6.559,-6.5128,-6.4282,-6.3743,-6.3051,-6.2435,-6.1793,-6.1562,-6.137,-6.0819,-6.0781,-6.0781,-6.0781,-6.0781,-6.0781,-6.0781,-6.0781,-6.0781,-6.0781,-6.0781,-6.0781,-6.0781,-6.0781,-6.0781,-6.0781,-6.0781,-6.0781,-6.0781,-6.0781,-6.0858,-6.0973,-6.0858,-6.0819,-6.0781,-6.0896,-6.1012,-6.0858,-6.0819,-6.0781,-6.0781,-6.0781,-6.0781,-6.0781,-6.0781,-6.0781,-6.0781,-6.0781,-6.0781,-6.0781,-6.0781,-6.0781,-6.0666,-5.9935,-5.9127,-5.8165,-5.7357,-5.6896,-5.6434,-5.6357,-5.6049,-5.5934,-5.5818,-5.5703,-5.5703,-5.5703,-5.5703,-5.5703,-5.5703,-5.5703,-5.5703,-5.5703,-5.5703,-5.5703,-5.5703,-5.5703,-5.5703,-5.5703,-5.5703,-5.5703,-5.5703,-5.5703,-7.0898,-7.0898,-7.0898,-7.0898,-7.0898,-7.0898,-7.0783,-7.0398,-6.9667,-6.8359,-6.6705,-6.6128,-6.5897,-6.5897,-6.5897,-6.5897,-6.5897,-6.5897,-6.5897,-6.5897,-6.5897,-6.5897,-6.5897,-6.5897,-6.5897,-6.5897,-6.5897,-6.5897,-6.5897,-6.5897,-6.5897,-6.5897,-6.5897,-6.5897,-6.5743,-6.5359,-6.4859,-6.4474,-6.4051,-6.3281,-6.2551,-6.2435,-6.205,-6.1396,-6.1281,-6.1012,-6.0896,-6.0781,-6.0781,-6.0781,-6.0781,-6.0781,-6.0781,-6.0781,-6.0781,-6.0781,-6.0781,-6.0781,-6.0819,-6.0781,-6.0935,-6.1243,-6.1281,-6.1396,-6.1473,-6.1512,-6.1781,-6.1704,-6.1666,-6.1512,-6.1435,-6.1512,-6.1358,-6.1396,-6.0896,-6.0781,-6.0781,-6.0781,-6.0781,-6.0781,-6.0781,-6.0781,-6.0781,-6.0781,-6.0781,-6.0627,-5.9973,-5.9396,-5.8896,-5.8242,-5.7819,-5.7396,-5.7049,-5.6626,-5.6252,-5.6011,-5.578,-5.5703,-5.5703,-5.5703,-5.5703,-5.5703,-5.5703,-5.5703,-5.5703,-5.5703,-5.5703,-5.5703,-5.5703,-5.5703,-5.5703,-5.5703,-5.5703,-5.5703,-5.5703,-7.0898,-7.0898,-7.0898,-7.0898,-7.0898,-7.0898,-7.0514,-6.9898,-6.8936,-6.759,-6.6167,-6.5897,-6.5897,-6.5897,-6.5897,-6.5897,-6.5897,-6.5897,-6.5897,-6.5897,-6.5897,-6.5897,-6.5897,-6.5897,-6.5897,-6.5897,-6.5897,-6.5897,-6.5897,-6.5897,-6.5897,-6.5897,-6.5897,-6.5897,-6.5897,-6.5859,-6.5436,-6.4743,-6.4628,-6.4089,-6.3474,-6.3281,-6.282,-6.205,-6.187,-6.155,-6.0935,-6.0781,-6.0781,-6.0781,-6.0781,-6.0781,-6.0781,-6.0781,-6.0781,-6.0781,-6.0781,-6.0819,-6.0858,-6.0819,-6.1358,-6.1935,-6.205,-6.2243,-6.2897,-6.3077,-6.2935,-6.2627,-6.2858,-6.2974,-6.2858,-6.2551,-6.2204,-6.1935,-6.1473,-6.1127,-6.1166,-6.1089,-6.1166,-6.0858,-6.0781,-6.0781,-6.0781,-6.0781,-6.0781,-6.0512,-5.9935,-5.9588,-5.9396,-5.9204,-5.8819,-5.8319,-5.7896,-5.7242,-5.678,-5.6175,-5.5857,-5.5742,-5.5703,-5.5703,-5.5703,-5.5703,-5.5703,-5.5703,-5.5703,-5.5703,-5.5703,-5.5703,-5.5703,-5.5703,-5.5703,-5.5703,-5.5703,-5.5703,-5.5703,-7.0898,-7.0898,-7.0898,-7.0898,-7.0898,-7.0898,-7.0744,-7.0283,-6.8975,-6.7436,-6.6167,-6.5897,-6.5897,-6.5897,-6.5897,-6.5897,-6.5897,-6.5897,-6.5897,-6.5897,-6.5897,-6.5897,-6.5897,-6.5897,-6.5897,-6.5897,-6.5897,-6.5897,-6.5897,-6.5897,-6.5897,-6.5897,-6.5897,-6.5897,-6.5897,-6.5897,-6.5667,-6.5513,-6.5397,-6.5051,-6.4282,-6.4089,-6.3551,-6.2332,-6.2255,-6.1831,-6.0973,-6.0935,-6.0858,-6.0819,-6.0781,-6.0781,-6.0781,-6.0781,-6.0781,-6.0781,-6.0819,-6.1127,-6.1627,-6.2089,-6.2551,-6.2858,-6.2935,-6.3051,-6.332,-6.3308,-6.3269,-6.3385,-6.3551,-6.3512,-6.3128,-6.3089,-6.2897,-6.2897,-6.2551,-6.2166,-6.205,-6.1831,-6.1678,-6.1089,-6.0781,-6.0858,-6.0896,-6.0819,-6.0781,-6.0781,-6.0319,-6.0281,-6.0165,-6.0165,-5.9973,-5.9358,-5.8819,-5.8011,-5.7357,-5.6896,-5.6252,-5.5983,-5.5818,-5.5703,-5.5703,-5.5703,-5.5703,-5.5703,-5.5703,-5.5703,-5.5703,-5.5703,-5.5703,-5.5703,-5.5703,-5.5703,-5.5703,-5.5703,-5.5703,-7.0898,-7.0898,-7.0898,-7.0898,-7.0898,-7.0898,-7.0629,-6.9821,-6.8282,-6.6898,-6.6051,-6.5897,-6.5897,-6.5897,-6.5897,-6.5897,-6.5897,-6.5897,-6.5897,-6.5897,-6.5897,-6.5897,-6.5897,-6.5897,-6.5897,-6.5897,-6.5897,-6.5897,-6.5897,-6.5897,-6.5897,-6.5897,-6.5897,-6.5897,-6.5897,-6.5859,-6.5859,-6.5782,-6.5705,-6.559,-6.5166,-6.4897,-6.4397,-6.3474,-6.2935,-6.2512,-6.1627,-6.1204,-6.1089,-6.0935,-6.0819,-6.0781,-6.0781,-6.0781,-6.0781,-6.0781,-6.0858,-6.1396,-6.232,-6.282,-6.3358,-6.4243,-6.3974,-6.3935,-6.4089,-6.4397,-6.4359,-6.432,-6.4128,-6.4166,-6.4128,-6.4051,-6.3743,-6.3743,-6.3397,-6.3012,-6.2435,-6.2178,-6.1831,-6.1243,-6.105,-6.1089,-6.105,-6.0896,-6.0781,-6.0781,-6.0742,-6.0781,-6.0781,-6.0704,-6.0627,-6.0165,-5.9588,-5.8858,-5.8242,-5.778,-5.7088,-5.6291,-5.6099,-5.6022,-5.5703,-5.5703,-5.5703,-5.5703,-5.5703,-5.5703,-5.5703,-5.5703,-5.5703,-5.5703,-5.5703,-5.5703,-5.5703,-5.5703,-5.5703,-7.0898,-7.0898,-7.0898,-7.0898,-7.0898,-7.0706,-6.9821,-6.8359,-6.6744,-6.6051,-6.5897,-6.5897,-6.5897,-6.5897,-6.5897,-6.5897,-6.5897,-6.5897,-6.5897,-6.5897,-6.5897,-6.5897,-6.5897,-6.5897,-6.5897,-6.5897,-6.5897,-6.5897,-6.5897,-6.5897,-6.5897,-6.5897,-6.5897,-6.5897,-6.5897,-6.5897,-6.5897,-6.5897,-6.5859,-6.5782,-6.5628,-6.5667,-6.5089,-6.4397,-6.4051,-6.3358,-6.2551,-6.1985,-6.1562,-6.1204,-6.0858,-6.0819,-6.0781,-6.0781,-6.0781,-6.0819,-6.0819,-6.1973,-6.2897,-6.3308,-6.4243,-6.5128,-6.4974,-6.5205,-6.5359,-6.5397,-6.532,-6.5359,-6.532,-6.5513,-6.5628,-6.5128,-6.4666,-6.4397,-6.4012,-6.3435,-6.2704,-6.2293,-6.1897,-6.1627,-6.1562,-6.1524,-6.1396,-6.1204,-6.0896,-6.0781,-6.0781,-6.0781,-6.0781,-6.0781,-6.0704,-6.0666,-6.0127,-5.9665,-5.9127,-5.855,-5.7665,-5.6791,-5.6676,-5.6522,-5.6175,-5.5703,-5.5703,-5.5703,-5.5703,-5.5703,-5.5703,-5.5703,-5.5703,-5.5703,-5.5703,-5.5703,-5.5703,-5.5703,-5.5703,-7.0898,-7.0898,-7.0898,-7.0898,-7.0706,-6.9629,-6.8808,-6.8231,-6.7205,-6.6474,-6.5897,-6.5897,-6.5897,-6.5897,-6.5897,-6.5897,-6.5897,-6.5897,-6.5897,-6.5897,-6.5897,-6.5897,-6.5897,-6.5897,-6.5897,-6.5897,-6.5897,-6.5897,-6.5897,-6.5897,-6.5897,-6.5897,-6.5897,-6.5897,-6.5897,-6.5897,-6.5897,-6.5897,-6.5897,-6.5897,-6.5897,-6.5897,-6.5359,-6.4936,-6.4743,-6.3974,-6.3243,-6.2474,-6.205,-6.1755,-6.1089,-6.0819,-6.0781,-6.0781,-6.0819,-6.0973,-6.1743,-6.2935,-6.3435,-6.4436,-6.532,-6.5667,-6.559,-6.5628,-6.582,-6.5897,-6.5897,-6.5897,-6.5897,-6.5897,-6.5897,-6.5551,-6.5282,-6.5089,-6.4782,-6.4359,-6.3705,-6.332,-6.2858,-6.205,-6.2012,-6.1716,-6.1601,-6.132,-6.1012,-6.0896,-6.0781,-6.0781,-6.0781,-6.0781,-6.0781,-6.0742,-6.0589,-6.0127,-5.9742,-5.9204,-5.8242,-5.7407,-5.7368,-5.7022,-5.6252,-5.5857,-5.5742,-5.5703,-5.5703,-5.5703,-5.5703,-5.5703,-5.5703,-5.5703,-5.5703,-5.5703,-5.5703,-5.5703,-5.5703,-7.0898,-7.0898,-7.0898,-7.0706,-7.0167,-6.8629,-6.7898,-6.7744,-6.7013,-6.632,-6.5936,-6.5897,-6.5897,-6.5897,-6.5897,-6.5897,-6.5897,-6.5897,-6.5897,-6.5897,-6.5897,-6.5897,-6.5897,-6.5897,-6.5897,-6.5897,-6.5897,-6.5897,-6.5897,-6.5897,-6.5897,-6.5897,-6.5897,-6.5897,-6.5897,-6.5897,-6.5897,-6.5897,-6.5897,-6.5897,-6.5897,-6.5897,-6.5513,-6.5243,-6.5089,-6.4589,-6.3897,-6.3205,-6.282,-6.2255,-6.1447,-6.1089,-6.0973,-6.0781,-6.0781,-6.1012,-6.1858,-6.2743,-6.3397,-6.4474,-6.532,-6.5782,-6.5897,-6.5859,-6.5859,-6.5897,-6.5897,-6.5897,-6.5897,-6.5897,-6.5897,-6.5859,-6.5859,-6.582,-6.5628,-6.5436,-6.5013,-6.4628,-6.3743,-6.2704,-6.2204,-6.1897,-6.1627,-6.1396,-6.1281,-6.132,-6.1089,-6.0781,-6.0781,-6.0781,-6.0781,-6.0781,-6.0742,-6.055,-6.0165,-5.9858,-5.9165,-5.8511,-5.8434,-5.7857,-5.6703,-5.6126,-5.6137,-5.5945,-5.5703,-5.5703,-5.5703,-5.5703,-5.5703,-5.5703,-5.5703,-5.5703,-5.5703,-5.5703,-5.5703,-7.0898,-7.0898,-7.0821,-7.036,-6.9513,-6.7898,-6.7167,-6.7013,-6.632,-6.5897,-6.5897,-6.5897,-6.5897,-6.5897,-6.5897,-6.5897,-6.5897,-6.5897,-6.5897,-6.5897,-6.5897,-6.5897,-6.5897,-6.5897,-6.5897,-6.5897,-6.5897,-6.5897,-6.5897,-6.5897,-6.5897,-6.5897,-6.5897,-6.5897,-6.5897,-6.5897,-6.5897,-6.5897,-6.5897,-6.5897,-6.5897,-6.5897,-6.5897,-6.582,-6.5705,-6.5474,-6.4897,-6.4359,-6.3897,-6.287,-6.2024,-6.1639,-6.105,-6.0781,-6.0781,-6.1204,-6.1935,-6.2666,-6.3474,-6.4474,-6.5205,-6.5667,-6.5897,-6.5897,-6.5897,-6.5897,-6.5897,-6.5897,-6.5897,-6.5897,-6.5897,-6.5897,-6.5897,-6.5897,-6.5782,-6.559,-6.532,-6.4897,-6.4205,-6.332,-6.2781,-6.2435,-6.205,-6.1858,-6.1396,-6.1601,-6.1358,-6.0858,-6.0781,-6.0781,-6.0781,-6.0781,-6.0781,-6.0742,-6.0666,-6.0358,-6.0089,-5.9742,-5.9396,-5.8396,-5.6973,-5.6599,-5.6522,-5.6137,-5.5703,-5.5703,-5.5703,-5.5703,-5.5703,-5.5703,-5.5703,-5.5703,-5.5703,-5.5703,-5.5703,-7.0898,-7.0821,-7.0244,-6.986,-6.9475,-6.7821,-6.709,-6.7013,-6.6244,-6.5897,-6.5897,-6.5897,-6.5897,-6.5897,-6.5897,-6.5897,-6.5897,-6.5897,-6.5897,-6.5897,-6.5897,-6.5897,-6.5897,-6.5897,-6.5897,-6.5897,-6.5897,-6.5897,-6.5897,-6.5897,-6.5897,-6.5897,-6.5897,-6.5897,-6.5897,-6.5897,-6.5897,-6.5897,-6.5897,-6.5897,-6.5897,-6.5897,-6.5897,-6.5897,-6.582,-6.582,-6.532,-6.4897,-6.4551,-6.3935,-6.2666,-6.1743,-6.0858,-6.0858,-6.0819,-6.105,-6.2204,-6.3012,-6.3666,-6.4589,-6.5474,-6.5705,-6.5897,-6.5897,-6.5897,-6.5897,-6.5897,-6.5897,-6.5897,-6.5897,-6.5897,-6.5897,-6.5897,-6.5897,-6.5897,-6.5705,-6.5513,-6.5051,-6.4551,-6.4012,-6.3435,-6.3012,-6.2627,-6.2204,-6.1743,-6.1396,-6.1089,-6.0781,-6.0781,-6.0781,-6.0781,-6.0781,-6.0781,-6.0781,-6.0781,-6.0704,-6.0435,-6.0089,-5.9665,-5.855,-5.733,-5.6791,-5.6445,-5.6022,-5.5703,-5.5703,-5.5703,-5.5703,-5.5703,-5.5703,-5.5703,-5.5703,-5.5703,-5.5703,-5.5703,-7.0898,-7.0744,-6.9629,-6.8898,-6.8359,-6.709,-6.6551,-6.6474,-6.609,-6.5897,-6.5897,-6.5897,-6.5897,-6.5897,-6.5897,-6.5897,-6.5897,-6.5897,-6.5897,-6.5897,-6.5897,-6.5897,-6.5897,-6.5897,-6.5897,-6.5897,-6.5897,-6.5897,-6.5897,-6.5897,-6.5897,-6.5897,-6.5897,-6.5897,-6.5897,-6.5897,-6.5897,-6.5897,-6.5897,-6.5897,-6.5897,-6.5897,-6.5897,-6.5897,-6.5897,-6.5897,-6.5782,-6.5359,-6.5013,-6.4474,-6.3281,-6.2358,-6.182,-6.1858,-6.1743,-6.1973,-6.2781,-6.3897,-6.4243,-6.4936,-6.5859,-6.5897,-6.5897,-6.5897,-6.5897,-6.5897,-6.5897,-6.5897,-6.5897,-6.5897,-6.5897,-6.5897,-6.5897,-6.5897,-6.5897,-6.5782,-6.5513,-6.5089,-6.4743,-6.4397,-6.3935,-6.3628,-6.3243,-6.2897,-6.2397,-6.1666,-6.1281,-6.0819,-6.0781,-6.0781,-6.0781,-6.0781,-6.0781,-6.0781,-6.0781,-6.0742,-6.0627,-6.0319,-5.9973,-5.9088,-5.8088,-5.7011,-5.628,-5.6011,-5.5818,-5.5703,-5.5703,-5.5703,-5.5703,-5.5703,-5.5703,-5.5703,-5.5703,-5.5703,-5.5703,-7.0821,-7.0514,-6.909,-6.7936,-6.7051,-6.6244,-6.5936,-6.5897,-6.5897,-6.5897,-6.5897,-6.5897,-6.5897,-6.5897,-6.5897,-6.5897,-6.5897,-6.5897,-6.5897,-6.5897,-6.5897,-6.5897,-6.5897,-6.5897,-6.5897,-6.5897,-6.5897,-6.5897,-6.5897,-6.5897,-6.5897,-6.5897,-6.5897,-6.5897,-6.5897,-6.5897,-6.5897,-6.5897,-6.5897,-6.5897,-6.5897,-6.5897,-6.5897,-6.5897,-6.5897,-6.5897,-6.5897,-6.5743,-6.5397,-6.482,-6.3974,-6.3128,-6.2627,-6.2627,-6.2589,-6.2781,-6.3512,-6.4282,-6.4705,-6.532,-6.5743,-6.5897,-6.5897,-6.5897,-6.5897,-6.5897,-6.5897,-6.5897,-6.5897,-6.5897,-6.5897,-6.5897,-6.5897,-6.5897,-6.5897,-6.5897,-6.5551,-6.5243,-6.5051,-6.4782,-6.4551,-6.4243,-6.3666,-6.3308,-6.2743,-6.205,-6.1512,-6.1089,-6.0781,-6.0781,-6.0781,-6.0781,-6.0781,-6.0781,-6.0781,-6.0781,-6.0704,-6.0666,-6.0319,-5.9627,-5.8858,-5.7857,-5.6896,-5.6214,-5.6022,-5.6022,-5.578,-5.5703,-5.5703,-5.5703,-5.5703,-5.5703,-5.5703,-5.5703,-5.5703,-7.0514,-6.9821,-6.8821,-6.7898,-6.7013,-6.6244,-6.5897,-6.5897,-6.5897,-6.5897,-6.5897,-6.5897,-6.5897,-6.5897,-6.5897,-6.5897,-6.5897,-6.5897,-6.5897,-6.5897,-6.5897,-6.5897,-6.5897,-6.5897,-6.5897,-6.5897,-6.5897,-6.5897,-6.5897,-6.5897,-6.5897,-6.5897,-6.5897,-6.5897,-6.5897,-6.5897,-6.5897,-6.5897,-6.5897,-6.5897,-6.5897,-6.5897,-6.5897,-6.5897,-6.5897,-6.5897,-6.5897,-6.5897,-6.5782,-6.5436,-6.482,-6.3974,-6.3512,-6.3358,-6.3358,-6.3474,-6.4243,-6.4628,-6.5089,-6.5551,-6.582,-6.5897,-6.5897,-6.5897,-6.5897,-6.5897,-6.5897,-6.5897,-6.5897,-6.5897,-6.5897,-6.5897,-6.5897,-6.5897,-6.5897,-6.5897,-6.5705,-6.5667,-6.559,-6.5436,-6.532,-6.4512,-6.3474,-6.3012,-6.2474,-6.1781,-6.1166,-6.0781,-6.0781,-6.0781,-6.0819,-6.0781,-6.0781,-6.0781,-6.0781,-6.0781,-6.0781,-6.0781,-6.0666,-6.0012,-5.9358,-5.8665,-5.7819,-5.7011,-5.6637,-5.6599,-5.6291,-5.5972,-5.5742,-5.578,-5.5703,-5.5703,-5.5703,-5.5703,-5.5703]},{"header":{"parameterUnit":"m.s-1","parameterCategory":1,"la1":31.0,"la2":29.5877,"lo1":-88.7671,"lo2":-86.6584,"dy":0.0162,"dx":0.0185,"nx":115,"ny":88,"refTime":"2026-05-03T12:00:00:Z","depth":0,"parameterNumber":3,"parameterNumberName":"V-component_of_WINDS"},"data":[0.0,0.0,0.0,0.0,0.0,0.0,0.0,0.0,0.0,0.0,0.0,0.0,0.0,0.0,0.0,0.0,0.0,0.0,0.0,0.0,0.0,0.0,0.0,0.0,0.0,0.0,0.0,0.0,0.0,0.0,0.0,0.0,0.0,0.0,0.0,0.0,0.0,0.0,0.0,0.0,0.0,0.0,0.0,0.0,0.0,0.0,0.0,0.0,0.0,0.0,0.0,0.0,0.0,0.0,0.0,0.0,0.0,0.0,0.0,0.0,0.0,0.0,0.0,0.0,0.0,0.0,0.0,0.0,0.0,0.0,0.0,0.0,0.0,0.0,0.0,0.0,0.0,0.0,0.0,0.0,0.0,0.0,0.0,0.0,0.0,0.0,0.0,0.0,0.0,0.0,0.0,0.0,0.0,0.0,0.0,0.0,0.0,0.0,0.0,0.0,0.0,0.0,0.0,0.0,0.0,0.0,0.0,0.0,0.0,0.0,0.0,0.0,0.0,0.0,0.0,0.0,0.0,0.0,0.0,0.0,0.0,0.0,0.0,0.0,0.0,0.0,0.0,0.0,0.0,0.0,0.0,0.0,0.0,0.0,0.0,0.0,0.0,0.0,0.0,0.0,0.0,0.0,0.0,0.0,0.0,0.0,0.0,0.0,0.0,0.0,0.0,0.0,0.0,0.0,0.0,0.0,0.0,0.0,0.0,0.0,0.0,0.0,0.0,0.0,0.0,0.0,0.0,0.0,0.0,0.0,0.0,0.0,0.0,0.0,0.0,0.0,0.0,0.0,0.0,0.0,0.0,0.0,0.0,0.0,0.0,0.0,0.0,0.0,0.0,0.0,0.0,0.0,0.0,0.0,0.0,0.0,0.0,0.0,0.0,0.0,0.0,0.0,0.0,0.0,0.0,0.0,0.0,0.0,0.0,0.0,0.0,0.0,0.0,0.0,0.0,0.0,0.0,0.0,0.0,0.0,0.0,0.0,0.0,0.0,0.0,0.0,0.0,0.0,0.0,0.0,0.0,0.0,0.0,0.0,0.0,0.0,0.0,0.0,0.0,0.0,0.0,0.0,0.0,0.0,0.0,0.0,0.0,0.0,0.0,0.0,0.0,0.0,0.0,0.0,0.0,0.0,0.0,0.0,0.0,0.0,0.0,0.0,0.0,0.0,0.0,0.0,0.0,0.0,0.0,0.0,0.0,0.0,0.0,0.0,0.0,0.0,0.0,0.0,0.0,0.0,0.0,0.0,0.0,0.0,0.0,0.0,0.0,0.0,0.0,0.0,0.0,0.0,0.0,0.0,0.0,0.0,0.0,0.0,0.0,0.0,0.0,0.0,0.0,0.0,0.0,0.0,0.0,0.0,0.0,0.0,0.0,0.0,0.0,0.0,0.0,0.0,0.0,0.0,0.0,0.0,0.0,0.0,0.0,0.0,0.0,0.0,0.0,0.0,0.0,0.0,0.0,0.0,0.0,0.0,0.0,0.0,0.0,0.0,0.0,0.0,0.0,0.0,0.0,0.0,0.0,0.0,0.0,0.0,0.0,0.0,0.0,0.0,0.0,0.0,0.0,0.0,0.0,0.0,0.0,0.0,0.0,0.0,0.0,0.0,0.0,0.0,0.0,0.0,0.0,0.0,0.0,0.0,0.0,0.0,0.0,0.0,0.0,0.0,0.0,0.0,0.0,0.0,0.0,0.0,0.0,0.0,0.0,0.0,0.0,0.0,0.0,0.0,0.0,0.0,0.0,0.0,0.0,0.0,0.0,0.0,0.0,0.0,0.0,0.0,0.0,0.0,0.0,0.0,0.0,0.0,0.0,0.0,0.0,0.0,0.0,0.0,0.0,0.0,0.0,0.0,0.0,0.0,0.0,0.0,0.0,0.0,0.0,0.0,0.0,0.0,0.0,0.0,0.0,0.0,0.0,0.0,0.0,0.0,0.0,0.0,0.0,0.0,0.0,0.0,0.0,0.0,0.0,0.0,0.0,0.0,0.0,0.0,0.0,0.0,0.0,0.0,0.0,0.0,0.0,0.0,0.0,0.0,0.0,0.0,0.0,0.0,0.0,0.0,0.0,0.0,0.0,0.0,0.0,0.0,0.0,0.0,0.0,0.0,0.0,0.0,0.0,0.0,0.0,0.0,0.0,0.0,0.0,0.0,0.0,0.0,0.0,0.0,0.0,0.0,0.0,0.0,0.0,0.0,0.0,0.0,0.0,0.0,0.0,0.0,0.0,0.0,0.0,0.0,0.0,0.0,0.0,0.0,0.0,0.0,0.0,0.0,0.0,0.0,0.0,0.0,0.0,0.0,0.0,0.0,0.0,0.0,0.0,0.0,0.0,0.0,0.0,0.0,0.0,0.0,0.0,0.0,0.0,0.0,0.0,0.0,0.0,0.0,0.0,0.0,0.0,0.0,0.0,0.0,0.0,0.0,0.0,0.0,0.0,0.0,0.0,0.0,0.0,0.0,0.0,0.0,0.0,0.0,0.0,0.0,0.0,0.0,0.0,0.0,0.0,0.0,0.0,0.0,0.0,0.0,0.0,0.0,0.0,0.0,0.0,0.0,0.0,0.0,0.0,0.0,0.0,0.0,0.0,0.0,0.0,0.0,0.0,0.0,0.0,0.0,0.0,0.0,0.0,0.0,0.0,0.0,0.0,0.0,0.0,0.0,0.0,0.0,0.0,0.0,0.0,0.0,0.0,0.0,0.0,0.0,0.0,0.0,0.0,0.0,0.0,0.0,0.0,0.0,0.0,0.0,0.0,0.0,0.0,0.0,0.0,0.0,0.0,0.0,0.0,0.0,0.0,0.0,0.0,0.0,0.0,0.0,0.0,0.0,0.0,0.0,0.0,0.0,0.0,0.0,0.0,0.0,0.0,0.0,0.0,0.0,0.0,0.0,0.0,0.0,0.0,0.0,0.0,0.0,0.0,0.0,0.0,0.0,0.0,0.0,0.0,0.0,0.0,0.0,0.0,0.0,0.0,0.0,0.0,0.0,0.0,0.0,0.0,0.0,0.0,0.0,0.0,0.0,0.0,0.0,0.0,0.0,0.0,0.0,0.0,0.0,0.0,0.0,0.0,0.0,0.0,0.0,0.0,0.0,0.0,0.0,0.0,0.0,0.0,0.0,0.0,0.0,0.0,0.0,0.0,0.0,0.0,0.0,0.0,0.0,0.0,0.0,0.0,0.0,0.0,0.0,0.0,0.0,0.0,0.0,0.0,0.0,0.0,0.0,0.0,0.0,0.0,0.0,0.0,0.0,0.0,0.0,0.0,0.0,0.0,0.0,0.0,0.0,0.0,0.0,0.0,0.0,0.0,0.0,0.0,0.0,0.0,0.0,0.0,0.0,0.0,0.0,0.0,0.0,0.0,0.0,0.0,0.0,0.0,0.0,0.0,0.0,0.0,0.0,0.0,0.0,0.0,0.0,0.0,0.0,0.0,0.0,0.0,0.0,0.0,0.0,0.0,0.0,0.0,0.0,0.0,0.0,0.0,0.0,0.0,0.0,0.0,0.0,0.0,0.0,0.0,0.0,0.0,0.0,0.0,0.0,0.0,0.0,0.0,0.0,0.0,0.0,0.0,0.0,0.0,0.0,0.0,0.0,0.0,0.0,0.0,0.0,0.0,0.0,0.0,0.0,0.0,0.0,0.0,0.0,0.0,0.0,0.0,0.0,0.0,0.0,0.0,0.0,0.0,0.0,0.0,0.0,0.0,0.0,0.0,0.0,0.0,0.0,0.0,0.0,0.0,0.0,0.0,0.0,0.0,0.0,0.0,0.0,0.0,0.0,0.0,0.0,0.0,0.0,0.0,0.0,0.0,0.0,0.0,0.0,0.0,0.0,0.0,0.0,0.0,0.0,0.0,0.0,0.0,0.0,0.0,0.0,0.0,0.0,0.0,0.0,0.0,0.0,0.0,0.0,0.0,0.0,0.0,0.0,0.0,0.0,0.0,0.0,0.0,0.0,0.0,0.0,0.0,0.0,0.0,0.0,0.0,0.0,0.0,0.0,0.0,0.0,0.0,0.0,0.0,0.0,0.0,0.0,0.0,0.0,0.0,0.0,0.0,0.0,0.0,0.0,0.0,0.0,0.0,0.0,0.0,0.0,0.0,0.0,0.0,0.0,0.0,0.0,0.0,0.0,0.0,0.0,0.0,0.0,0.0,0.0,0.0,0.0,0.0,0.0,0.0,0.0,0.0,0.0,0.0,0.0,0.0,0.0,0.0,0.0,0.0,0.0,0.0,0.0,0.0,0.0,0.0,0.0,-0.1873,0.0,0.0,0.0,0.0,0.0,0.0,0.0,0.0,0.0,0.0,0.0,0.0,0.0,0.0,0.0,0.0,0.0,0.0,0.0,0.0,0.0,0.0,0.0,0.0,0.0,0.0,0.0,0.0,0.0,0.0,0.0,0.0,0.0,0.0,0.0,0.0,0.0,0.0,0.0,0.0,0.0,0.0,0.0,0.0,0.0,0.0,0.0,0.0,0.0,0.0,0.0,0.0,0.0,0.0,0.0,0.0,0.0,0.0,0.0,0.0,0.0,0.0,0.0,0.0,0.0,0.0,0.0,0.0,0.0,0.0,0.0,0.0,0.0,0.0,0.0,0.0,0.0,0.0,0.0,0.0,0.0,0.0,0.0,0.0,0.0,0.0,0.0,0.0,0.0,0.0,0.0,0.0,0.0,0.0,0.0,0.0,0.0,0.0,0.0,0.0,0.0,0.0,0.0,0.0,0.0,0.0,0.0,0.0,0.0,0.0,-0.1959,-0.1975,-0.1947,-0.1917,-0.1885,0.0,0.0,0.0,0.0,0.0,0.0,0.0,0.0,0.0,0.0,0.0,0.0,0.0,0.0,0.0,0.0,0.0,0.0,0.0,0.0,0.0,0.0,0.0,0.0,0.0,0.0,0.0,0.0,0.0,0.0,0.0,0.0,0.0,0.0,0.0,0.0,0.0,0.0,0.0,0.0,0.0,0.0,0.0,0.0,0.0,0.0,0.0,0.0,0.0,0.0,0.0,0.0,0.0,0.0,0.0,0.0,0.0,0.0,0.0,0.0,0.0,0.0,0.0,0.0,0.0,0.0,0.0,0.0,0.0,0.0,0.0,0.0,0.0,0.0,0.0,0.0,0.0,0.0,0.0,0.0,0.0,0.0,0.0,0.0,0.0,0.0,0.0,0.0,0.0,0.0,0.0,0.0,0.0,0.0,0.0,0.0,0.0,0.0,0.0,0.0,0.0,0.0,0.0,0.0,0.0,0.0,0.0,0.0,0.0,0.0,0.0,0.0,-0.1974,-0.1937,-0.1885,0.0,0.0,0.0,0.0,0.0,0.0,0.0,0.0,0.0,0.0,0.0,0.0,0.0,0.0,0.0,0.0,0.0,0.0,0.0,0.0,0.0,0.0,0.0,0.0,0.0,0.0,0.0,0.0,0.0,0.0,0.0,0.0,0.0,0.0,0.0,0.0,0.0,0.0,0.0,0.0,0.0,0.0,0.0,0.0,0.0,0.0,0.0,0.0,0.0,0.0,0.0,0.0,0.0,0.0,0.0,0.0,0.0,0.0,0.0,0.0,0.0,0.0,0.0,0.0,0.0,0.0,0.0,0.0,0.0,0.0,0.0,0.0,0.0,0.0,0.0,0.0,0.0,0.0,0.0,0.0,0.0,0.0,0.0,0.0,0.0,0.0,0.0,0.0,0.0,0.0,0.0,0.0,0.0,0.0,0.0,0.0,0.0,0.0,0.0,0.0,0.0,0.0,0.0,0.0,0.0,0.0,0.0,0.0,0.0,0.0,-0.1971,-0.2117,-0.2052,0.0,-0.1894,0.0,0.0,0.0,0.0,0.0,0.0,0.0,0.0,0.0,0.0,0.0,0.0,0.0,0.0,0.0,0.0,0.0,0.0,0.0,0.0,0.0,0.0,0.0,0.0,0.0,0.0,0.0,0.0,0.0,0.0,0.0,0.0,0.0,0.0,0.0,0.0,0.0,0.0,0.0,0.0,0.0,0.0,0.0,0.0,0.0,0.0,0.0,0.0,0.0,0.0,0.0,0.0,0.0,0.0,0.0,0.0,0.0,0.0,0.0,0.0,0.0,0.0,0.0,0.0,0.0,0.0,0.0,0.0,0.0,0.0,0.0,0.0,0.0,0.0,0.0,0.0,0.0,0.0,0.0,0.0,0.0,0.0,0.0,0.0,0.0,0.0,0.0,0.0,0.0,0.0,0.0,0.0,0.0,0.0,0.0,0.0,0.0,0.0,0.0,0.0,0.0,0.0,0.0,0.0,0.0,0.0,0.0,0.0,0.0,0.0,-0.2008,-0.2127,-0.2093,-0.1973,0.0,0.0,0.0,0.0,0.0,0.0,0.0,0.0,0.0,0.0,0.0,0.0,0.0,0.0,0.0,0.0,0.0,0.0,0.0,0.0,0.0,0.0,0.0,0.0,0.0,0.0,0.0,0.0,0.0,0.0,0.0,0.0,0.0,0.0,0.0,0.0,0.0,0.0,0.0,0.0,0.0,0.0,0.0,0.0,0.0,0.0,0.0,0.0,0.0,0.0,0.0,0.0,0.0,0.0,0.0,0.0,0.0,0.0,0.0,0.0,0.0,0.0,0.0,0.0,0.0,0.0,0.0,0.0,0.0,0.0,0.0,0.0,0.0,0.0,0.0,0.0,0.0,0.0,0.0,0.0,0.0,0.0,0.0,0.0,0.0,0.0,0.0,0.0,0.0,0.0,0.0,0.0,0.0,0.0,0.0,0.0,0.0,0.0,0.0,0.0,0.0,0.0,0.0,0.0,0.0,0.0,0.0,0.0,0.0,0.0,-0.2005,-0.2037,-0.2137,-0.2044,-0.1978,-0.1877,0.0,0.0,0.0,0.0,0.0,0.0,0.0,0.0,0.0,0.0,0.0,0.0,0.0,0.0,0.0,0.0,0.0,0.0,0.0,0.0,0.0,0.0,0.0,0.0,0.0,0.0,0.0,0.0,0.0,0.0,0.0,0.0,0.0,0.0,0.0,0.0,0.0,0.0,0.0,0.0,0.0,0.0,0.0,0.0,0.0,0.0,0.0,0.0,0.0,0.0,0.0,0.0,0.0,0.0,0.0,0.0,0.0,0.0,0.0,0.0,0.0,0.0,0.0,0.0,0.0,0.0,0.0,0.0,0.0,0.0,0.0,0.0,0.0,0.0,0.0,0.0,0.0,0.0,0.0,0.0,0.0,0.0,0.0,0.0,0.0,0.0,0.0,0.0,0.0,0.0,0.0,0.0,0.0,0.0,0.0,0.0,0.0,0.0,0.0,0.0,0.0,0.0,0.0,0.0,0.0,0.0,0.0,0.0,-0.2089,-0.2046,-0.2048,-0.2106,-0.2132,-0.205,0.0,0.0,0.0,0.0,0.0,0.0,0.0,0.0,0.0,0.0,0.0,0.0,0.0,0.0,0.0,0.0,0.0,0.0,0.0,0.0,0.0,0.0,0.0,0.0,0.0,0.0,0.0,0.0,0.0,0.0,0.0,0.0,0.0,0.0,0.0,0.0,0.0,0.0,0.0,0.0,0.0,0.0,0.0,0.0,0.0,0.0,0.0,0.0,0.0,0.0,0.0,0.0,0.0,0.0,0.0,0.0,0.0,0.0,0.0,0.0,0.0,0.0,0.0,0.0,0.0,0.0,0.0,0.0,0.0,0.0,0.0,0.0,0.0,0.0,0.0,0.0,0.0,0.0,0.0,0.0,0.0,0.0,0.0,0.0,0.0,0.0,0.0,0.0,0.0,0.0,0.0,0.0,0.0,0.0,0.0,0.0,0.0,0.0,0.0,0.0,0.0,0.0,0.0,0.0,0.0,0.0,0.0,0.0,0.0,-0.1963,-0.2019,-0.2095,-0.2188,-0.2078,-0.1985,0.0,0.0,0.0,0.0,0.0,0.0,0.0,0.0,0.0,0.0,0.0,0.0,0.0,0.0,0.0,0.0,0.0,0.0,0.0,0.0,0.0,0.0,0.0,0.0,0.0,0.0,0.0,0.0,0.0,0.0,0.0,0.0,0.0,0.0,0.0,0.0,0.0,0.0,0.0,0.0,0.0,0.0,0.0,0.0,0.0,0.0,0.0,0.0,0.0,0.0,0.0,0.0,0.0,0.0,0.0,0.0,0.0,0.0,0.0,0.0,0.0,0.0,0.0,0.0,0.0,0.0,0.0,0.0,0.0,0.0,0.0,0.0,0.0,0.0,0.0,0.0,0.0,0.0,0.0,0.0,0.0,0.0,0.0,0.0,0.0,0.0,0.0,0.0,0.0,0.0,0.0,0.0,0.0,0.0,0.0,0.0,0.0,0.0,0.0,0.0,0.0,0.0,0.0,0.0,0.0,0.0,0.0,0.0,0.0,-0.1958,0.0,-0.2148,-0.2192,-0.2054,-0.1952,0.0,0.0,0.0,0.0,0.0,0.0,0.0,0.0,0.0,0.0,0.0,0.0,0.0,0.0,0.0,0.0,0.0,0.0,0.0,0.0,0.0,0.0,0.0,0.0,0.0,0.0,0.0,0.0,0.0,0.0,0.0,0.0,0.0,0.0,0.0,0.0,0.0,0.0,0.0,0.0,0.0,0.0,0.0,0.0,0.0,0.0,0.0,0.0,0.0,0.0,0.0,0.0,0.0,0.0,0.0,0.0,0.0,0.0,0.0,0.0,0.0,0.0,0.0,0.0,0.0,0.0,0.0,0.0,0.0,0.0,0.0,0.0,0.0,0.0,0.0,0.0,0.0,0.0,0.0,0.0,0.0,0.0,0.0,0.0,0.0,0.0,0.0,0.0,0.0,0.0,0.0,0.0,0.0,0.0,0.0,0.0,0.0,0.0,0.0,0.0,0.0,0.0,0.0,0.0,0.0,0.0,0.0,0.0,-0.1928,-0.2098,-0.2191,-0.2196,-0.2116,-0.2076,-0.2024,0.0,0.0,0.0,0.0,0.0,0.0,0.0,0.0,0.0,0.0,0.0,0.0,0.0,0.0,0.0,0.0,0.0,0.0,0.0,0.0,0.0,0.0,0.0,0.0,0.0,0.0,0.0,0.0,0.0,0.0,0.0,0.0,0.0,0.0,0.0,0.0,0.0,0.0,0.0,0.0,0.0,0.0,0.0,0.0,0.0,0.0,0.0,0.0,0.0,0.0,0.0,0.0,0.0,0.0,0.0,0.0,0.0,0.0,0.0,0.0,0.0,0.0,0.0,0.0,0.0,0.0,0.0,0.0,0.0,0.0,0.0,0.0,0.0,0.0,0.0,0.0,0.0,0.0,0.0,0.0,0.0,0.0,0.0,0.0,0.0,0.0,0.0,0.0,0.0,0.0,0.0,0.0,0.0,0.0,0.0,0.0,0.0,0.0,0.0,0.0,0.0,0.0,0.0,0.0,0.0,0.0,0.0,0.0,0.0,-0.2018,-0.2105,-0.2169,-0.2196,-0.2053,-0.1952,0.0,0.0,0.0,0.0,0.0,0.0,0.0,0.0,0.0,0.0,0.0,0.0,0.0,0.0,0.0,0.0,0.0,0.0,0.0,0.0,0.0,0.0,0.0,0.0,0.0,0.0,0.0,0.0,0.0,0.0,0.0,0.0,0.0,0.0,0.0,0.0,0.0,0.0,0.0,0.0,0.0,0.0,0.0,0.0,0.0,0.0,0.0,0.0,0.0,0.0,0.0,0.0,0.0,0.0,0.0,0.0,0.0,0.0,0.0,0.0,0.0,0.0,0.0,0.0,0.0,0.0,0.0,0.0,0.0,0.0,0.0,0.0,0.0,0.0,0.0,0.0,0.0,0.0,0.0,0.0,0.0,0.0,0.0,0.0,0.0,0.0,0.0,0.0,0.0,0.0,0.0,0.0,0.0,0.0,0.0,0.0,0.0,0.0,0.0,0.0,0.0,0.0,0.0,0.0,0.0,0.0,0.0,0.0,0.0,-0.1869,-0.2091,-0.2226,-0.2262,-0.209,-0.1974,-0.1924,0.0,0.0,0.0,0.0,0.0,0.0,0.0,0.0,0.0,0.0,0.0,0.0,0.0,0.0,0.0,0.0,0.0,0.0,0.0,0.0,0.0,0.0,0.0,0.0,0.0,0.0,0.0,0.0,0.0,0.0,0.0,0.0,0.0,0.0,0.0,0.0,0.0,0.0,0.0,0.0,0.0,0.0,0.0,0.0,0.0,0.0,0.0,0.0,0.0,0.0,0.0,0.0,0.0,0.0,0.0,0.0,0.0,0.0,0.0,0.0,0.0,0.0,0.0,0.0,0.0,0.0,0.0,0.0,0.0,0.0,0.0,0.0,0.0,0.0,0.0,0.0,0.0,0.0,0.0,0.0,0.0,0.0,0.0,0.0,0.0,0.0,0.0,0.0,0.0,0.0,0.0,0.0,0.0,0.0,0.0,0.0,0.0,0.0,0.0,0.0,0.0,0.0,0.0,0.0,0.0,0.0,0.0,0.0,-0.1657,-0.2108,-0.2361,-0.2305,-0.2178,-0.203,0.0,0.0,0.0,0.0,0.0,0.0,0.0,0.0,0.0,0.0,0.0,0.0,0.0,0.0,0.0,0.0,0.0,0.0,0.0,0.0,0.0,0.0,0.0,0.0,0.0,0.0,0.0,0.0,0.0,0.0,0.0,0.0,0.0,0.0,0.0,0.0,0.0,0.0,0.0,0.0,0.0,0.0,0.0,0.0,0.0,0.0,0.0,0.0,0.0,0.0,0.0,0.0,0.0,0.0,0.0,0.0,0.0,0.0,0.0,0.0,0.0,0.0,0.0,0.0,0.0,0.0,0.0,0.0,0.0,0.0,0.0,0.0,0.0,0.0,0.0,0.0,0.0,0.0,0.0,0.0,0.0,0.0,0.0,0.0,0.0,0.0,0.0,0.0,0.0,0.0,0.0,0.0,0.0,0.0,0.0,0.0,0.0,0.0,0.0,0.0,0.0,0.0,0.0,0.0,0.0,0.0,0.0,0.0,0.0,-0.1309,-0.1761,-0.2183,-0.2453,-0.2253,-0.2099,0.0,0.0,0.0,0.0,0.0,0.0,0.0,0.0,0.0,0.0,0.0,0.0,0.0,0.0,0.0,0.0,0.0,0.0,0.0,0.0,0.0,0.0,0.0,0.0,0.0,0.0,0.0,0.0,0.0,0.0,0.0,0.0,0.0,0.0,0.0,0.0,0.0,0.0,0.0,0.0,0.0,0.0,0.0,0.0,0.0,0.0,0.0,0.0,0.0,0.0,0.0,0.0,0.0,0.0,0.0,0.0,0.0,0.0,0.0,0.0,0.0,0.0,0.0,0.0,0.0,0.0,0.0,0.0,0.0,0.0,0.0,0.0,0.0,0.0,0.0,0.0,0.0,0.0,0.0,0.0,0.0,0.0,0.0,0.0,0.0,0.0,0.0,0.0,0.0,0.0,0.0,0.0,0.0,0.0,0.0,0.0,0.0,0.0,0.0,0.0,0.0,0.0,0.0,0.0,0.0,0.0,0.0,0.0,-0.1335,-0.104,-0.167,-0.2129,-0.2267,-0.2294,-0.2258,0.0,0.0,0.0,0.0,0.0,0.0,0.0,0.0,0.0,0.0,0.0,0.0,0.0,0.0,0.0,0.0,0.0,0.0,0.0,0.0,0.0,0.0,0.0,0.0,0.0,0.0,0.0,0.0,0.0,0.0,0.0,0.0,0.0,0.0,0.0,0.0,0.0,0.0,0.0,0.0,0.0,0.0,0.0,0.0,0.0,0.0,0.0,0.0,0.0,0.0,0.0,0.0,0.0,0.0,0.0,0.0,0.0,0.0,0.0,0.0,0.0,0.0,0.0,0.0,0.0,0.0,0.0,0.0,0.0,0.0,0.0,0.0,0.0,0.0,0.0,0.0,0.0,0.0,0.0,0.0,0.0,0.0,0.0,0.0,0.0,0.0,0.0,0.0,0.0,0.0,0.0,0.0,0.0,0.0,0.0,0.0,0.0,0.0,0.0,0.0,0.0,0.0,0.0,0.0,0.0,0.0,0.0,0.0,-0.1236,-0.06,-0.1474,-0.1958,-0.1935,-0.2256,-0.2285,0.0,0.0,0.0,0.0,0.0,0.0,0.0,0.0,0.0,0.0,0.0,0.0,0.0,0.0,0.0,0.0,0.0,0.0,0.0,0.0,0.0,0.0,0.0,0.0,0.0,0.0,0.0,0.0,0.0,0.0,0.0,0.0,0.0,0.0,0.0,0.0,0.0,0.0,0.0,0.0,0.0,0.0,0.0,0.0,0.0,0.0,0.0,0.0,0.0,0.0,0.0,0.0,0.0,0.0,0.0,0.0,0.0,0.0,0.0,0.0,0.0,0.0,0.0,0.0,0.0,0.0,0.0,0.0,0.0,0.0,0.0,0.0,0.0,0.0,0.0,0.0,0.0,0.0,0.0,0.0,0.0,0.0,0.0,0.0,0.0,0.0,0.0,0.0,0.0,0.0,0.0,0.0,0.0,0.0,0.0,0.0,0.0,0.0,0.0,0.0,0.0,0.0,0.0,0.0,0.0,0.0,0.0,0.0,-0.0517,-0.0157,-0.0749,-0.1111,-0.1449,-0.2032,-0.2313,0.0,0.0,0.0,0.0,0.0,0.0,0.0,0.0,0.0,0.0,0.0,0.0,0.0,0.0,0.0,0.0,0.0,0.0,0.0,0.0,0.0,0.0,0.0,0.0,0.0,0.0,0.0,0.0,0.0,0.0,0.0,0.0,0.0,0.0,0.0,0.0,0.0,0.0,0.0,0.0,0.0,0.0,0.0,0.0,0.0,0.0,0.0,0.0,-0.1855,0.0,0.0,0.0,0.0,0.0,0.0,0.0,0.0,0.0,0.0,0.0,0.0,0.0,0.0,0.0,0.0,0.0,0.0,0.0,0.0,0.0,0.0,0.0,0.0,0.0,0.0,0.0,0.0,0.0,0.0,0.0,0.0,0.0,0.0,0.0,0.0,0.0,0.0,0.0,0.0,0.0,0.0,0.0,0.0,0.0,0.0,0.0,0.0,0.0,0.0,0.0,0.0,0.0,0.0,0.0,0.0,0.0,0.0,0.0,-0.0302,0.0,-0.0506,-0.086,-0.128,-0.1849,-0.2177,0.0,0.0,0.0,0.0,0.0,0.0,0.0,0.0,0.0,0.0,0.0,0.0,0.0,0.0,0.0,0.0,0.0,0.0,0.0,0.0,0.0,0.0,0.0,0.0,0.0,0.0,0.0,0.0,0.0,0.0,0.0,0.0,0.0,0.0,0.0,0.0,0.0,0.0,0.0,0.0,0.0,0.0,0.0,0.0,0.0,0.0,0.0,0.0,0.0,0.0,0.0,0.0,0.0,0.0,0.0,0.0,0.0,0.0,0.0,0.0,0.0,0.0,0.0,0.0,0.0,0.0,0.0,0.0,0.0,0.0,0.0,0.0,0.0,0.0,0.0,0.0,0.0,0.0,0.0,0.0,0.0,0.0,0.0,0.0,0.0,0.0,0.0,0.0,0.0,0.0,0.0,0.0,0.0,0.0,0.0,0.0,0.0,0.0,0.0,0.0,0.0,0.0,0.0,0.0,0.0,0.0,0.0,-0.0143,0.0153,0.0408,0.0,-0.0345,-0.0767,-0.1487,-0.1865,-0.2113,0.0,0.0,0.0,0.0,0.0,0.0,0.0,0.0,0.0,0.0,0.0,0.0,0.0,0.0,0.0,0.0,0.0,0.0,0.0,0.0,0.0,0.0,0.0,0.0,0.0,0.0,0.0,0.0,0.0,0.0,0.0,0.0,0.0,0.0,0.0,0.0,0.0,0.0,-0.171,-0.1771,0.0,0.0,0.0,0.0,0.0,0.0,0.0,0.0,-0.1842,0.0,0.0,0.0,0.0,0.0,0.0,0.0,0.0,0.0,0.0,0.0,0.0,0.0,0.0,0.0,0.0,0.0,0.0,0.0,0.0,0.0,0.0,0.0,0.0,0.0,0.0,0.0,0.0,0.0,0.0,0.0,0.0,0.0,0.0,0.0,0.0,0.0,0.0,0.0,0.0,0.0,0.0,0.0,0.0,0.0,0.0,0.0,0.0,0.0,0.0,0.0,0.0,0.0,0.0,0.0,0.0,-0.007,0.1429,0.2194,0.2251,0.2209,0.196,0.1432,-0.0326,-0.1464,-0.169,0.0,0.0,0.0,0.0,0.0,0.0,0.0,0.0,0.0,0.0,0.0,0.0,0.0,0.0,0.0,0.0,0.0,0.0,0.0,0.0,0.0,0.0,0.0,0.0,0.0,0.0,0.0,0.0,0.0,0.0,0.0,0.0,0.0,0.0,0.0,0.0,0.0,0.0,0.0,-0.1915,-0.1943,0.0,0.0,0.0,0.0,0.0,0.0,0.0,0.0,-0.1862,0.0,0.0,0.0,0.0,0.0,0.0,0.0,0.0,0.0,0.0,0.0,0.0,0.0,0.0,0.0,0.0,0.0,0.0,0.0,0.0,0.0,0.0,0.0,0.0,0.0,0.0,0.0,0.0,0.0,0.0,0.0,0.0,0.0,0.0,0.0,0.0,0.0,0.0,0.0,0.0,0.0,0.0,0.0,0.0,0.0,0.0,0.0,0.0,0.0,0.0,0.0,0.0,0.0,0.0,0.0,0.1464,0.315,0.4064,0.4138,0.4087,0.3831,0.3384,0.1853,0.0604,0.0,0.0,0.0,0.0,0.0,0.0,0.0,0.0,0.0,0.0,0.0,0.0,0.0,0.0,0.0,0.0,0.0,0.0,0.0,0.0,0.0,0.0,0.0,0.0,0.0,0.0,0.0,0.0,0.0,0.0,0.0,0.0,0.0,0.0,0.0,0.0,0.0,0.0,0.0,0.0,-0.1954,-0.1981,-0.2119,0.0,0.0,0.0,0.0,0.0,0.0,-0.1821,-0.1803,0.0,0.0,0.0,0.0,0.0,0.0,0.0,0.0,0.0,0.0,0.0,0.0,0.0,0.0,0.0,0.0,0.0,0.0,0.0,0.0,0.0,0.0,0.0,0.0,0.0,0.0,0.0,0.0,0.0,0.0,0.0,0.0,0.0,0.0,0.0,0.0,0.0,0.0,0.0,0.0,0.0,0.0,0.0,0.0,0.0,0.0,0.0,0.0,0.0,0.0,0.0,0.0,0.0,0.0,0.0,0.3071,0.4843,0.5768,0.5933,0.5954,0.5775,0.5333,0.3965,0.2656,0.0,0.0,0.0,0.0,0.0,0.0,0.0,0.0,0.0,0.0,0.0,0.0,0.0,0.0,0.0,0.0,0.0,0.0,0.0,0.0,0.0,0.0,0.0,0.0,0.0,0.0,0.0,0.0,0.0,0.0,0.0,0.0,0.0,0.0,0.0,0.0,0.0,0.0,0.0,0.0,0.0,-0.2093,-0.214,-0.2031,0.0,0.0,0.0,0.0,-0.1934,-0.1925,0.0,0.0,0.0,0.0,0.0,0.0,0.0,0.0,0.0,0.0,0.0,0.0,0.0,0.0,0.0,0.0,0.0,0.0,0.0,0.0,0.0,0.0,0.0,0.0,0.0,0.0,0.0,0.0,0.0,0.0,0.0,0.0,0.0,0.0,0.0,0.0,0.0,0.0,0.0,0.0,0.0,0.0,0.0,0.0,0.0,0.0,0.0,0.0,0.0,0.0,0.0,0.0,0.0,0.0,0.0,0.0,0.4168,0.6413,0.7612,0.7785,0.7817,0.7694,0.7526,0.5257,0.3607,0.0,0.0,0.0,0.0,0.0,0.0,0.0,0.0,0.0,0.0,0.0,0.0,0.0,0.0,0.0,0.0,0.0,0.0,0.0,0.0,0.0,0.0,0.0,0.0,0.0,0.0,0.0,0.0,0.0,0.0,0.0,0.0,0.0,0.0,0.0,0.0,0.0,0.0,0.0,0.0,0.0,-0.2203,-0.221,-0.2158,-0.2041,0.0,0.0,-0.2022,-0.1978,-0.2076,0.0,0.0,0.0,0.0,0.0,0.0,0.0,0.0,0.0,0.0,0.0,0.0,0.0,0.0,0.0,0.0,0.0,0.0,0.0,0.0,0.0,0.0,0.0,0.0,0.0,0.0,0.0,0.0,0.0,0.0,0.0,0.0,0.0,0.0,0.0,0.0,0.0,0.0,0.0,0.0,0.0,0.0,0.0,0.0,0.0,0.0,0.0,0.0,0.0,0.0,0.0,0.0,0.0,0.0,0.0,0.5005,0.5908,0.8086,0.9337,0.954,0.9559,0.9511,0.9399,0.7473,0.588,0.0,0.0,0.0,0.0,0.0,0.0,0.0,0.0,0.0,0.0,0.0,0.0,0.0,0.0,0.0,0.0,0.0,0.0,0.0,0.0,0.0,0.0,0.0,0.0,0.0,0.0,0.0,0.0,0.0,0.0,0.0,0.0,0.0,0.0,0.0,0.0,0.0,0.0,0.0,0.0,0.0,0.0,-0.2128,-0.2136,0.0,0.0,0.0,-0.2075,-0.2033,0.0,0.0,0.0,0.0,0.0,0.0,0.0,0.0,0.0,0.0,0.0,0.0,0.0,0.0,0.0,0.0,0.0,0.0,0.0,0.0,0.0,0.0,0.0,0.0,0.0,0.0,0.0,0.0,0.0,0.0,0.0,0.0,0.0,0.0,0.0,0.0,0.0,0.0,0.0,0.0,0.0,0.0,0.0,0.0,0.0,0.0,0.0,0.0,0.0,0.0,0.0,0.0,0.0,0.0,0.0,0.0,0.0,0.7412,0.9185,1.0362,1.0677,1.0693,1.0634,1.0503,0.9181,0.0,0.0,0.0,0.0,0.0,0.0,0.0,0.0,0.0,0.0,0.0,0.0,0.0,0.0,0.0,0.0,0.0,0.0,0.0,0.0,0.0,0.0,0.0,0.0,0.0,0.0,0.0,-0.1298,0.0,0.0,0.0,0.0,0.0,0.0,0.0,0.0,0.0,0.0,0.0,0.0,0.0,0.0,-0.1921,-0.1855,-0.1906,-0.1935,0.0,0.0,-0.1804,-0.1791,-0.199,-0.2041,0.0,0.0,0.0,0.0,0.0,0.0,0.0,0.0,0.0,0.0,0.0,0.0,0.0,0.0,0.0,0.0,0.0,0.0,0.0,0.0,0.0,0.0,0.0,0.0,0.0,0.0,0.0,0.0,0.0,0.0,0.0,0.0,0.0,0.0,0.0,0.0,0.0,0.0,0.0,0.0,0.0,0.0,0.0,0.0,0.0,0.0,0.0,0.0,0.0,0.0,0.0,0.0,0.0,0.0,0.6988,0.8322,0.9526,1.0318,1.0639,1.0568,1.0514,1.0389,0.9671,0.8623,0.0,0.0,0.0,0.0,0.0,0.0,0.0,0.0,0.0,0.0,0.0,0.0,0.0,0.0,0.0,0.0,0.0,0.0,0.0,0.0,0.0,0.0,0.0,0.0,0.0,0.0,0.0,0.0,0.0,0.0,0.0,0.0,0.0,0.0,0.0,0.0,0.0,0.0,0.0,0.0,0.0,-0.1411,-0.1143,-0.1113,-0.1151,0.0,-0.1145,-0.1122,-0.1064,-0.1467,-0.1731,-0.1386,0.0,0.0,0.0,0.0,0.0,0.0,0.0,0.0,0.0,0.0,0.0,0.0,0.0,0.0,0.0,0.0,0.0,0.0,0.0,0.0,0.0,0.0,0.0,0.0,0.0,0.0,0.0,0.0,0.0,0.0,0.0,0.0,0.0,0.0,0.0,0.0,0.0,0.0,0.0,0.0,0.0,0.0,0.0,0.0,0.0,0.0,0.0,0.0,0.0,0.0,0.0,0.0,0.0,0.7475,0.8421,0.9443,1.0134,1.0433,1.0449,1.0394,1.0275,0.9644,0.8874,0.0,0.0,0.0,0.0,0.0,0.0,0.0,0.0,0.0,0.0,0.0,0.0,0.0,0.0,0.0,0.0,0.0,0.0,0.0,0.0,0.0,0.0,0.0,0.0,0.0,0.0,0.0,0.0,-0.1572,-0.157,-0.1515,0.0,0.0,0.0,0.0,0.0,0.0,0.0,0.0,0.0,0.0,-0.1144,-0.1044,-0.1078,0.0,0.0,-0.1101,-0.1087,-0.1075,-0.1305,-0.1403,-0.129,-0.1409,0.0,0.0,0.0,0.0,0.0,0.0,0.0,0.0,0.0,0.0,0.0,0.0,0.0,0.0,0.0,0.0,0.0,0.0,0.0,0.0,0.0,0.0,0.0,0.0,0.0,0.0,0.0,0.0,0.0,0.0,0.0,0.0,0.0,0.0,0.0,0.0,0.0,0.0,0.0,0.0,0.0,0.0,0.0,0.0,0.0,0.0,0.0,0.0,0.0,0.0,0.0,0.0,0.7796,0.8361,0.9334,0.9998,1.0324,1.0335,1.0291,1.0193,0.9655,0.9035,0.0,0.0,0.0,0.0,0.0,0.0,0.0,0.0,0.0,0.0,0.0,0.0,0.0,0.0,0.0,0.0,0.0,0.0,0.0,0.0,0.0,0.0,0.0,0.0,0.0,0.0,0.0,0.0,-0.0861,-0.0945,-0.0854,0.0,0.0,0.0,0.0,0.0,0.0,0.0,0.0,0.0,0.0,-0.0808,-0.0773,-0.0793,-0.0731,-0.0803,-0.0798,-0.079,-0.0779,-0.0916,-0.102,-0.1042,0.0,0.0,0.0,0.0,0.0,0.0,0.0,0.0,0.0,0.0,0.0,0.0,0.0,0.0,0.0,0.0,0.0,0.0,0.0,0.0,0.0,0.0,0.0,0.0,0.0,0.0,0.0,0.0,0.0,0.0,0.4897,0.0,0.0,0.0,0.0,0.0,0.0,0.0,0.0,0.0,0.0,0.0,0.0,0.0,0.0,0.0,0.0,0.0,0.0,0.0,0.0,0.0,0.0,0.7758,0.8178,0.9219,0.9954,1.0199,1.0204,1.0204,1.0188,0.9737,0.9193,0.8579,0.0,0.0,0.0,0.0,0.0,0.0,0.0,0.0,0.0,0.0,0.0,0.0,0.0,0.0,0.0,0.0,0.0,0.0,0.0,0.0,0.0,0.0,0.0,0.0,0.0,0.0,0.1532,0.1097,0.0662,0.0,0.0,0.0,0.0,0.0,0.0,0.0,0.0,0.0,0.0,-0.0379,-0.027,0.0,0.0,0.007,0.007,0.0069,0.0,0.0069,-0.0272,-0.0598,0.0,0.0,0.0,0.0,0.0,0.0,0.0,0.0,0.0,0.0,0.0,0.0,0.0,0.0,0.0,0.0,0.0,0.0,0.0,0.0,0.0,0.0,0.0,0.0,0.0,0.0,0.0,0.817,0.787,0.0,0.0,0.0,0.0,0.0,0.0,0.0,0.0,0.0,0.0,0.0,0.8869,0.8953,0.0,0.0,0.0,0.0,0.0,0.0,0.0,0.0,0.0,0.0,0.0,0.0,0.7752,0.8188,0.922,0.984,1.0074,1.0003,1.0003,1.0074,0.9699,0.909,0.8258,0.0,0.0,0.0,0.0,0.0,0.0,0.0,0.0,0.0,0.0,0.0,0.0,0.0,0.0,0.0,0.0,0.0,0.0,0.0,0.0,0.0,0.0,0.0,0.0,0.0,0.1709,0.0,0.0,0.0,0.0,0.0,0.0,0.0,0.0,0.0,0.0,0.0,0.105,0.2084,0.2315,0.2412,0.2492,0.2552,0.2676,0.0,0.0,0.0,0.0,0.0,0.0,0.0,0.0,0.0,0.0,0.0,0.0,0.0,0.0,0.1938,-0.0206,-0.0609,-0.0612,-0.0612,0.0,0.0,0.0,0.0,0.0,0.0,0.0,0.0,0.0,0.0,0.0,0.0,0.0,0.0,0.9112,0.0,0.8854,0.0,0.0,0.0,0.0,0.0,0.0,0.0,0.0,0.9144,0.9552,0.9942,0.9961,0.9929,0.0,0.943,0.8636,0.0,0.0,0.0,0.0,0.0,0.0,0.0,0.0,0.7993,0.8567,0.9377,0.9805,1.0037,0.9894,0.9818,0.9889,0.959,0.9052,0.8328,0.7671,0.7116,0.0,0.0,0.0,0.0,0.0,0.0,0.0,0.0,0.0,0.0,0.0,0.0,0.0,0.0,0.0,0.0,0.0,0.0,0.0,0.0,0.0,0.0,0.0,0.3133,0.0,0.0,0.0,0.0,0.0,0.0,0.0,0.0,0.0,0.2186,0.2242,0.2661,0.363,0.3802,0.3888,0.3828,0.0,0.0,0.0,0.0,0.0,0.0,0.0,0.3932,0.3836,0.3788,0.38,0.3896,0.4074,0.4184,0.414,0.0,0.0,0.1508,0.1105,0.1114,0.1113,0.1076,0.1029,0.1069,0.1031,0.1045,0.0,0.0,0.0,0.0,0.0,0.0,0.0,0.0,1.006,0.9892,0.0,0.9714,0.0,0.0,0.0,0.0,0.0,0.9002,0.0,0.0,1.0411,1.0724,1.0528,1.0515,1.0509,1.0407,1.0085,0.9673,0.9249,0.8607,0.0,0.0,0.0,0.0,0.0,0.0,0.8425,0.9276,0.9648,0.9939,1.0185,0.9891,0.9736,0.973,0.95,0.9144,0.8673,0.8306,0.7845,0.7237,0.6667,0.0,0.0,0.0,0.0,0.0,0.0,0.0,0.0,0.0,0.0,0.0,0.0,0.0,0.0,0.0,0.0,0.0,0.0,0.0,0.0,0.5413,0.0,0.0,0.0,0.0,0.0,0.0,0.0,0.0,0.0,0.0,0.3642,0.3891,0.4131,0.4255,0.0,0.0,0.0,0.0,0.4212,0.4173,0.4074,0.406,0.4131,0.4339,0.4437,0.45,0.0,0.0,0.487,0.4759,0.4724,0.4648,0.4687,0.4427,0.4419,0.4236,0.4165,0.4162,0.4048,0.4264,0.4269,0.3959,0.4039,1.1109,0.0,0.0,0.0,0.0,1.0154,1.0638,1.1399,1.1437,1.1218,1.0831,1.087,0.0,0.0,0.0,0.0,0.0,0.0,0.9994,1.067,1.1005,1.1382,1.1881,1.1881,1.1828,1.1729,1.1497,1.1231,1.0798,1.0485,0.9303,0.7235,0.0,0.0,0.0,0.0,0.8945,0.9551,1.01,1.0467,1.0634,1.047,1.0308,1.0286,1.0048,0.966,0.9132,0.8847,0.8284,0.7442,0.7171,0.0,0.0,0.0,0.0,0.0,0.0,0.0,0.0,0.0,0.0,0.0,0.0,0.0,0.0,0.0,0.0,0.0,0.0,0.0,0.5807,0.6158,0.6098,0.0,0.0,0.0,0.0,0.0,0.0,0.0,0.0,0.0,0.6598,0.5726,0.5479,0.0,0.0,0.6601,0.6473,0.6786,0.7076,0.7257,0.7266,0.0,0.7431,0.7313,0.7242,0.7342,0.7535,0.7679,0.7498,0.7541,0.7641,0.7531,0.7436,0.7346,0.7252,0.5631,0.4423,0.4296,0.4296,0.4291,0.4277,0.4285,0.4353,1.2485,1.163,1.1019,1.0934,1.1064,1.1181,1.1619,1.2284,1.2344,1.2185,1.1888,1.1888,1.1266,1.0195,0.9967,0.0,0.0,0.0,1.0803,1.1657,1.1657,1.1951,1.2488,1.2501,1.2454,1.2366,1.2223,1.1952,1.1565,1.1294,1.024,0.8368,0.0,0.0,0.8116,0.8813,0.9488,1.006,1.0498,1.0711,1.0847,1.0572,1.0389,1.0382,1.0248,0.9938,0.9523,0.9364,0.8963,0.8248,0.8007,0.7549,0.0,0.0,0.0,0.0,0.0,0.0,0.0,0.0,0.0,0.0,0.0,0.5122,0.4839,0.0,0.0,0.0,0.5888,0.6214,0.6574,0.6681,0.0,0.0,0.0,0.0,0.0,0.0,0.0,0.6228,0.711,0.7823,0.8051,0.7279,0.7002,0.8037,0.8127,0.8079,0.7959,0.0,0.8481,0.8573,0.859,0.8638,0.878,0.8709,0.8682,0.8845,0.8948,0.8906,0.8845,0.8856,0.8851,0.878,0.8671,0.859,0.859,0.7178,0.5967,0.6034,0.6034,0.6034,0.5967,0.6034,0.6034,1.3451,1.3091,1.2155,1.1843,1.1979,1.2257,1.2535,1.2793,1.2935,1.2901,1.2752,1.2745,1.2352,1.164,1.109,0.0,1.1463,1.147,1.1782,1.2305,1.2305,1.2372,1.2501,1.2501,1.2501,1.2501,1.2359,1.2135,1.1837,1.1423,1.0847,1.0011,0.9666,0.9377,0.9281,0.9549,1.0042,1.0738,1.0813,1.0883,1.1025,1.054,1.026,1.0312,1.0113,0.9979,0.9857,0.9826,0.9643,0.9328,0.8946,0.8497,0.7943,0.0,0.0,0.0,0.0,0.0,0.0,0.0,0.0,0.0,0.0,0.0,0.0,0.0,0.0,0.5909,0.6372,0.0,0.6991,0.7008,0.0,0.0,0.0,0.6763,0.7029,0.7247,0.7508,0.7845,0.0,0.0,0.8416,0.8454,0.8546,0.878,0.8848,0.8709,0.859,0.8677,0.8742,0.8644,0.8644,0.8649,0.872,0.884,0.8938,0.9193,0.9198,0.9106,0.9079,0.8921,0.8785,0.8769,0.8671,0.859,0.859,0.8456,0.859,0.8451,0.8518,0.8518,0.8384,0.8384,0.8318,1.3451,1.3166,1.303,1.2996,1.3037,1.3105,1.318,1.3247,1.3281,1.3146,1.2908,1.2908,1.2617,1.2121,1.1979,1.1972,1.2081,1.2189,1.2311,1.2447,1.2454,1.2474,1.2501,1.2501,1.2501,1.2494,1.2359,1.2189,1.2006,1.1782,1.1298,1.0672,1.0471,1.0072,0.9377,0.9886,1.0381,1.0826,1.1035,1.1154,1.1295,1.1197,1.1054,1.0942,1.0803,1.0574,1.0257,1.0054,0.9785,0.9321,0.9068,0.872,0.8232,0.7486,0.0,0.0,0.0,0.0,0.0,0.0,0.0,0.0,0.0,0.5795,0.5311,0.0,0.5915,0.0,0.6689,0.7089,0.7236,0.7171,0.0,0.0,0.7154,0.7192,0.767,0.7709,0.7812,0.7992,0.8198,0.8421,0.8655,0.8769,0.891,0.9133,0.8861,0.859,0.8486,0.872,0.8899,0.8889,0.9008,0.9133,0.9111,0.9106,0.9035,0.9166,0.9003,0.8927,0.8927,0.8872,0.8774,0.8764,0.8671,0.8595,0.859,0.859,0.859,0.859,0.859,0.859,0.859,0.859,0.859,1.3431,1.3281,1.3363,1.3397,1.3397,1.3329,1.3302,1.3295,1.3302,1.3207,1.3131,1.2915,1.2684,1.2393,1.2386,1.2386,1.2386,1.2467,1.2501,1.2501,1.2501,1.2501,1.2501,1.2501,1.2501,1.2494,1.2359,1.221,1.206,1.1904,1.1527,1.1151,1.1056,1.0718,1.0088,1.0233,1.0432,1.0744,1.1016,1.1199,1.1287,1.1287,1.1124,1.0785,1.069,1.0424,1.0031,0.9873,0.9627,0.9297,0.9153,0.8916,0.848,0.791,0.7358,0.0,0.0,0.0,0.0,0.0,0.0,0.0,0.0,0.0,0.0,0.0,0.6241,0.6469,0.6991,0.7366,0.7486,0.7486,0.7604,0.7736,0.7697,0.7763,0.8073,0.816,0.8258,0.8432,0.8622,0.8807,0.8986,0.9068,0.9155,0.9285,0.9073,0.8883,0.884,0.8992,0.9106,0.9117,0.922,0.928,0.9237,0.9177,0.9117,0.9057,0.8948,0.8872,0.8867,0.8769,0.8687,0.8682,0.8633,0.859,0.859,0.859,0.859,0.859,0.859,0.859,0.859,0.859,0.859,1.3397,1.3397,1.3397,1.3397,1.339,1.3254,1.32,1.32,1.32,1.318,1.3125,1.2827,1.2623,1.2501,1.2501,1.2501,1.2501,1.2501,1.2501,1.2501,1.2501,1.2501,1.2501,1.2481,1.2474,1.2467,1.2311,1.2162,1.2026,1.1877,1.1653,1.1375,1.1362,1.1206,1.082,1.05,1.0365,1.0493,1.0894,1.1097,1.1145,1.1111,1.0765,1.0256,1.0202,1.0012,0.9632,0.9591,0.9456,0.9262,0.9241,0.9132,0.8832,0.8332,0.7979,0.0,0.7196,0.0,0.0,0.0,0.0,0.0,0.0,0.0,0.0,0.6686,0.6813,0.7155,0.7445,0.7697,0.7758,0.7861,0.797,0.8147,0.8163,0.8193,0.841,0.8541,0.8698,0.8857,0.8992,0.9177,0.9275,0.9302,0.9302,0.9302,0.9285,0.9253,0.9285,0.928,0.9285,0.9302,0.9291,0.9237,0.916,0.9106,0.9041,0.8868,0.8829,0.8747,0.8747,0.866,0.859,0.859,0.859,0.859,0.859,0.859,0.859,0.859,0.859,0.859,0.859,0.859,0.859,1.3397,1.3397,1.3397,1.3397,1.3397,1.337,1.3356,1.3356,1.3356,1.3227,1.2983,1.2678,1.2528,1.2501,1.2501,1.2501,1.2501,1.2501,1.2501,1.2501,1.2501,1.2501,1.2494,1.2379,1.2332,1.2311,1.2054,1.1904,1.187,1.1728,1.1504,1.1212,1.1275,1.0995,1.0595,0.0,0.0,0.0,1.0697,1.0744,1.0616,1.0385,1.0148,0.9917,0.9795,0.0,0.9612,0.949,0.9401,0.934,0.934,0.0,0.0,0.0,0.0,0.0,0.0,0.0,0.0,0.0,0.0,0.0,0.7439,0.7315,0.7392,0.7768,0.8019,0.795,0.8219,0.8307,0.8122,0.8155,0.8214,0.8334,0.835,0.8405,0.8541,0.866,0.8796,0.8932,0.8992,0.9177,0.9285,0.9302,0.9302,0.9302,0.9302,0.9302,0.9302,0.9302,0.9302,0.9296,0.9231,0.9166,0.9068,0.897,0.8856,0.8791,0.8704,0.8633,0.8622,0.8611,0.859,0.859,0.859,0.859,0.859,0.859,0.859,0.859,0.859,0.859,0.859,0.859,0.859,1.3397,0.0,1.3397,1.3397,0.0,1.3397,1.3397,1.3397,1.3397,1.3234,1.2942,1.2637,1.2501,1.2501,1.2501,1.2501,1.2501,1.2501,1.2501,1.2501,1.2501,1.2467,1.24,1.2325,1.225,1.2169,1.1938,1.183,1.1823,1.1687,1.1538,1.1389,1.1314,1.1158,1.0941,1.0792,1.0643,1.0493,1.0568,1.0534,1.0392,1.031,1.012,0.9836,0.9754,0.0,0.0,0.0,0.0,0.0,0.0,0.0,0.0,0.0,0.0,0.8754,0.8488,0.8302,0.8268,0.834,0.8504,0.8778,0.8876,0.8684,0.8072,0.8549,0.883,0.8845,0.8923,0.8852,0.8708,0.8621,0.8567,0.8486,0.8503,0.8524,0.8595,0.8753,0.8883,0.8884,0.9111,0.9242,0.9296,0.9302,0.9302,0.9302,0.9302,0.9302,0.9302,0.9302,0.9291,0.9231,0.9177,0.909,0.897,0.8867,0.8742,0.8693,0.8628,0.859,0.859,0.859,0.859,0.859,0.859,0.859,0.859,0.859,0.859,0.859,0.859,0.859,0.859,0.859,0.859,1.3397,1.3397,1.3397,1.3397,1.3397,1.3397,1.3397,1.3397,0.0,0.0,0.0,1.2637,1.2501,1.2501,1.2501,1.2501,1.2501,1.2501,1.2501,1.2501,1.2474,1.24,1.2291,1.2237,1.2149,1.202,1.1864,1.1796,1.1789,1.1647,1.1579,1.1565,1.1423,1.1341,1.1294,1.0975,1.0772,1.0507,1.0466,1.0399,1.029,1.0344,1.0195,0.9829,0.9795,0.9659,0.9395,0.9316,0.913,0.8988,0.9001,0.8972,0.8999,0.8999,0.9013,0.9033,0.904,0.9157,0.93,0.9429,0.9618,0.9883,1.0154,0.9919,0.8891,0.928,0.9524,0.9577,0.9478,0.9368,0.9162,0.9026,0.8878,0.8712,0.8673,0.8618,0.864,0.8796,0.8879,0.8906,0.9155,0.9302,0.9302,0.9302,0.9302,0.9302,0.9302,0.9291,0.9275,0.9264,0.9237,0.916,0.909,0.8986,0.8834,0.8747,0.8698,0.8617,0.859,0.859,0.859,0.859,0.859,0.859,0.859,0.8645,0.8629,0.8684,0.8623,0.869,0.8673,0.8673,0.8573,0.8634,0.8629,1.3397,1.3397,1.3397,1.3397,1.3397,1.3397,1.3397,1.3376,1.3132,1.3003,1.2942,1.2637,1.2501,1.2501,1.2501,1.2501,1.2501,1.2501,1.2501,1.2494,1.2372,1.2311,1.2277,1.202,1.1884,1.185,1.1714,1.1653,1.1633,1.1497,1.1423,1.1402,1.1267,1.1131,1.0941,1.0772,1.0663,1.0493,1.0371,1.0304,1.0276,1.0039,0.989,0.9822,0.9707,0.9557,0.9388,0.9367,0.9337,0.9193,0.9245,0.9374,0.9503,0.9517,0.9571,0.9686,0.9633,0.9761,0.9842,0.9883,1.0032,1.0202,1.0365,1.0361,1.0223,1.0283,1.0214,0.9967,0.9877,0.9709,0.9261,0.9166,0.916,0.9126,0.8962,0.8896,0.8836,0.8929,0.8927,0.8927,0.9155,0.9291,0.928,0.9296,0.9302,0.9302,0.9291,0.9269,0.9193,0.9155,0.9084,0.9111,0.8954,0.8823,0.8758,0.8677,0.8622,0.859,0.859,0.859,0.859,0.8645,0.864,0.8584,0.8634,0.8662,0.8787,0.883,0.883,0.889,0.8957,0.901,0.8723,0.8772,0.8804,1.3397,1.3397,1.3397,1.3397,1.3397,1.3397,1.3356,1.3261,1.3051,1.3043,1.3009,1.2637,1.2501,1.2501,1.2501,1.2501,1.2501,1.2501,1.2461,1.2386,1.2318,1.2203,1.204,1.1898,1.1789,1.1714,1.1647,1.1579,1.1491,1.1423,1.1348,1.1267,1.1118,1.0975,1.0759,1.0758,1.0683,1.0616,1.0466,1.0358,1.0283,1.0141,1.0107,1.0181,1.0046,0.9978,0.9985,0.991,0.9836,0.9828,0.9747,0.9815,0.9958,0.9897,0.9917,1.0059,1.0073,1.01,1.0168,1.0249,1.0324,1.0392,1.0534,1.0616,1.0616,1.0541,1.0395,1.0192,1.0048,0.9882,0.9494,0.9374,0.9298,0.9246,0.9114,0.9086,0.9045,0.9102,0.9192,0.9159,0.9273,0.9318,0.9324,0.9297,0.9302,0.9302,0.9258,0.9188,0.9128,0.9014,0.8938,0.8927,0.884,0.8747,0.8687,0.8628,0.859,0.859,0.859,0.859,0.8584,0.8679,0.8761,0.875,0.8836,0.8962,0.9092,0.9086,0.9086,0.908,0.9108,0.9086,0.9021,0.8967,0.8787,1.3397,1.3397,1.3397,1.3397,1.3397,1.3397,1.3315,1.3166,1.3024,1.2942,1.2874,1.2617,1.2501,1.2501,1.2501,1.2501,1.2494,1.2467,1.2393,1.2291,1.2216,1.206,1.1843,1.1803,1.1721,1.1626,1.1619,1.1538,1.1402,1.1355,1.1246,1.107,1.0948,1.0839,1.0724,1.0717,1.0717,1.0711,1.0602,1.0487,1.0385,1.0378,1.0432,1.0527,1.0439,1.0419,1.048,1.0385,1.031,1.0276,1.0161,1.0161,1.0263,1.0168,1.0154,1.0263,1.034,1.0297,1.0331,1.0466,1.0541,1.0541,1.0656,1.0704,1.0663,1.0561,1.0432,1.0297,1.0125,0.9946,0.9758,0.9623,0.9486,0.9337,0.9317,0.9272,0.9285,0.9349,0.9388,0.9425,0.9423,0.9417,0.9452,0.9375,0.9394,0.9383,0.9279,0.9218,0.9168,0.9001,0.8963,0.8867,0.8828,0.876,0.86,0.8623,0.8679,0.8679,0.8712,0.875,0.8804,0.8878,0.8962,0.8945,0.9074,0.9194,0.9221,0.9266,0.9272,0.9266,0.9349,0.938,0.9377,0.9186,0.8909,1.3397,1.3397,1.3397,1.3397,1.3397,1.3397,1.3308,1.3159,1.3024,1.2881,1.2739,1.2576,1.2501,1.2501,1.2501,1.2501,1.2494,1.2366,1.2305,1.225,1.1999,1.1857,1.1816,1.1701,1.1633,1.1619,1.1613,1.1525,1.1375,1.124,1.1043,1.0792,1.0744,1.0738,1.0724,1.0717,1.0717,1.0717,1.0704,1.0697,1.0683,1.0683,1.0683,1.0697,1.0683,1.0616,1.0507,1.048,1.0412,1.029,1.027,1.0263,1.0283,1.027,1.0263,1.0283,1.0283,1.0331,1.0466,1.0616,1.069,1.0697,1.0704,1.067,1.0541,1.0507,1.0432,1.0317,1.027,1.0148,0.9842,0.9808,0.9774,0.9759,0.9597,0.9449,0.9481,0.9429,0.9388,0.9388,0.951,0.9564,0.957,0.9557,0.9569,0.9549,0.9526,0.9466,0.9371,0.93,0.9217,0.9086,0.8847,0.8645,0.869,0.8755,0.8836,0.8878,0.9051,0.9074,0.9068,0.912,0.9136,0.9206,0.9258,0.9323,0.9418,0.9449,0.9449,0.9499,0.9565,0.9685,0.9505,0.9317,0.9078,1.3397,1.3397,1.3397,1.3397,1.3397,1.3397,1.3268,1.3044,1.299,1.2827,1.2603,1.2528,1.2501,1.2501,1.2501,1.2501,1.2488,1.2359,1.2244,1.2142,1.1932,1.1782,1.1701,1.1647,1.1619,1.1606,1.1525,1.1402,1.124,1.1023,1.0833,1.0731,1.0717,1.0717,1.0717,1.0717,1.0717,1.0717,1.0717,1.0717,1.0717,1.0717,1.0717,1.0717,1.0717,1.0697,1.0636,1.0629,1.0602,1.0541,1.0453,1.0446,1.0534,1.0453,1.0446,1.0527,1.0541,1.0568,1.0622,1.0683,1.0717,1.0717,1.0717,1.069,1.0636,1.0629,1.0561,1.0426,1.0331,1.0222,1.0107,1.0093,1.0093,1.01,1.0022,0.9903,0.9817,0.9777,0.976,0.9688,0.9672,0.9682,0.9642,0.9629,0.9582,0.9582,0.9528,0.9496,0.9388,0.9321,0.9249,0.9218,0.9027,0.901,0.8962,0.8992,0.908,0.9068,0.916,0.9188,0.9239,0.9373,0.9481,0.94,0.9513,0.958,0.963,0.9671,0.9671,0.9733,0.9799,0.9896,0.9685,0.9542,0.9343,1.3397,1.3397,1.3397,1.3397,1.3397,1.3356,1.32,1.2969,1.2915,1.2745,1.2515,1.2501,1.2501,1.2501,1.2501,1.2481,1.2427,1.2291,1.2149,1.1993,1.1843,1.1721,1.1626,1.1619,1.1619,1.1592,1.147,1.1294,1.1097,1.0853,1.0717,1.0717,1.0717,1.0717,1.0717,1.0717,1.0717,1.0717,1.0717,1.0717,1.0717,1.0717,1.0717,1.0717,1.0717,1.0717,1.0717,1.0717,1.0717,1.0717,1.0609,1.0602,1.0711,1.0616,1.0602,1.0704,1.0717,1.0717,1.0717,1.0717,1.0717,1.0717,1.0717,1.0717,1.0717,1.0717,1.067,1.0568,1.046,1.0392,1.0283,1.034,1.034,1.034,1.034,1.0229,1.0134,1.0114,1.0024,0.993,0.9827,0.9753,0.9753,0.9685,0.9657,0.9645,0.9588,0.9544,0.9474,0.945,0.9387,0.933,0.9418,0.9342,0.9233,0.9278,0.9266,0.9305,0.9292,0.9368,0.9393,0.9576,0.9688,0.962,0.9806,0.9903,0.9761,0.9781,0.9768,0.9842,0.9903,0.9889,0.9802,0.9691,0.9562,1.3397,1.3397,1.3397,1.3397,1.339,1.3247,1.3098,1.2935,1.2813,1.2651,1.2515,1.2501,1.2501,1.2501,1.2494,1.2427,1.2298,1.2155,1.1999,1.185,1.1708,1.1626,1.1619,1.1619,1.1619,1.1606,1.145,1.1226,1.0962,1.0799,1.0717,1.0717,1.0717,1.0717,1.0717,1.0717,1.0717,1.0717,1.0717,1.0717,1.0717,1.0717,1.0717,1.0717,1.0717,1.0717,1.0717,1.0717,1.0717,1.0717,1.0704,1.0711,1.0717,1.0711,1.0711,1.0717,1.0717,1.0717,1.0717,1.0717,1.0717,1.0717,1.0717,1.0717,1.0717,1.0717,1.0711,1.0704,1.0677,1.0568,1.0358,1.0337,1.0317,1.031,1.0297,1.0297,1.027,1.0263,1.027,1.0222,1.0078,0.9928,0.9835,0.9788,0.9801,0.9746,0.9761,0.9767,0.9733,0.9761,0.9754,0.9726,0.9806,0.9794,0.9329,0.945,0.9556,0.955,0.9712,0.9719,0.9795,0.9775,0.9795,0.9795,0.9829,0.9829,0.9842,0.9822,0.9822,0.9829,0.9829,0.9829,0.9829,0.9822,0.9707,1.3397,1.3397,1.3397,1.3342,1.3247,1.3193,1.3037,1.2813,1.2752,1.2644,1.2522,1.2501,1.2501,1.2501,1.2406,1.2338,1.2277,1.2203,1.1979,1.1823,1.1681,1.1619,1.1619,1.1619,1.1619,1.1579,1.1362,1.109,1.0826,1.0744,1.0717,1.0717,1.0717,1.0717,1.0717,1.0717,1.0717,1.0717,1.0717,1.0717,1.0717,1.0717,1.0717,1.0717,1.0717,1.0717,1.0717,1.0717,1.0717,1.0717,1.0717,1.0717,1.0717,1.0717,1.0717,1.0717,1.0717,1.0717,1.0717,1.0717,1.0717,1.0717,1.0717,1.0717,1.0717,1.0717,1.0717,1.0717,1.0717,1.0656,1.0602,1.0561,1.0561,1.0561,1.0561,1.0514,1.0439,1.0412,1.0385,1.0283,1.0148,0.9963,0.9903,0.9822,0.9822,0.9822,0.9822,0.9822,0.9822,0.9822,0.9829,0.9849,0.9889,0.9942,0.9794,0.988,1.0012,1.0006,1.0092,1.0011,0.9957,1.0039,1.0011,0.9815,0.9863,0.9876,0.9856,0.9822,0.9822,0.9822,0.9822,0.9822,0.9822,0.9822,0.9761,1.3397,1.339,1.3349,1.3268,1.3166,1.3064,1.2915,1.2732,1.2678,1.2596,1.2515,1.2501,1.2501,1.2481,1.2352,1.2257,1.2203,1.2054,1.1904,1.1762,1.166,1.1619,1.1619,1.1619,1.1619,1.1572,1.1307,1.1009,1.0751,1.0717,1.0717,1.0717,1.0717,1.0717,1.0717,1.0717,1.0717,1.0717,1.0717,1.0717,1.0717,1.0717,1.0717,1.0717,1.0717,1.0717,1.0717,1.0717,1.0717,1.0717,1.0717,1.0717,1.0717,1.0717,1.0717,1.0717,1.0717,1.0717,1.0717,1.0717,1.0717,1.0717,1.0717,1.0717,1.0717,1.0717,1.0717,1.0717,1.0717,1.0717,1.0717,1.0717,1.0717,1.0717,1.0717,1.0677,1.0582,1.0561,1.0493,1.0378,1.0276,1.0175,0.9997,0.9958,0.9883,0.9829,0.9822,0.9822,0.9822,0.9869,0.9897,0.9849,1.0086,1.0195,1.0149,1.0243,1.0253,1.0233,1.0213,1.0215,1.0141,1.0195,1.0141,0.9937,0.9863,0.9822,0.9815,0.9836,0.9822,0.9822,0.9822,0.9822,0.9822,0.9822,0.9761,1.3397,1.337,1.3241,1.3166,1.3098,1.2874,1.2739,1.2691,1.2576,1.2515,1.2501,1.2501,1.2501,1.2467,1.2332,1.2203,1.2074,1.1911,1.1762,1.164,1.1626,1.1619,1.1619,1.1619,1.1592,1.1558,1.1301,1.1009,1.0731,1.0717,1.0717,1.0717,1.0717,1.0717,1.0717,1.0717,1.0717,1.0717,1.0717,1.0717,1.0717,1.0717,1.0717,1.0717,1.0717,1.0717,1.0717,1.0717,1.0717,1.0717,1.0717,1.0717,1.0717,1.0717,1.0717,1.0717,1.0717,1.0717,1.0717,1.0717,1.0717,1.0717,1.0717,1.0717,1.0717,1.0717,1.0717,1.0717,1.0717,1.0717,1.0717,1.0717,1.0717,1.0717,1.0717,1.0711,1.0704,1.0711,1.0663,1.0527,1.046,1.0358,1.0092,0.9997,0.995,0.9917,0.9883,0.9883,0.9903,0.9985,0.9977,1.0031,1.0236,1.0371,1.0487,1.0582,1.048,1.0392,1.0365,1.0317,1.0181,1.0168,1.008,0.991,0.9836,0.9856,0.9856,0.9822,0.9822,0.9822,0.9822,0.9822,0.9822,0.9822,0.9822,1.3342,1.3241,1.3193,1.3051,1.2874,1.2766,1.2678,1.2576,1.2515,1.2501,1.2501,1.2501,1.2501,1.244,1.225,1.2108,1.2115,1.1809,1.166,1.1626,1.1619,1.1619,1.1619,1.1619,1.1511,1.1321,1.1212,1.1009,1.0772,1.0724,1.0717,1.0717,1.0717,1.0717,1.0717,1.0717,1.0717,1.0717,1.0717,1.0717,1.0717,1.0717,1.0717,1.0717,1.0717,1.0717,1.0717,1.0717,1.0717,1.0717,1.0717,1.0717,1.0717,1.0717,1.0717,1.0717,1.0717,1.0717,1.0717,1.0717,1.0717,1.0717,1.0717,1.0717,1.0717,1.0717,1.0717,1.0717,1.0717,1.0717,1.0717,1.0717,1.0717,1.0717,1.0717,1.0717,1.0717,1.0717,1.0704,1.0649,1.0555,1.0446,1.0358,1.0283,1.0181,1.0134,1.0114,1.012,1.0134,1.0154,1.0209,1.0229,1.0399,1.0514,1.0568,1.0629,1.0602,1.0541,1.0507,1.0419,1.0283,1.0188,1.0073,0.9937,0.9863,0.9822,0.9822,0.9822,0.9822,0.9822,0.9822,0.9822,0.9822,0.9822,0.9822,1.3261,1.3166,1.3057,1.2908,1.2725,1.2671,1.2596,1.2508,1.2501,1.2501,1.2501,1.2501,1.2501,1.244,1.2196,1.2067,1.2033,1.1755,1.1619,1.1619,1.1619,1.1619,1.1619,1.1619,1.1497,1.128,1.1185,1.1036,1.0745,1.0751,1.0717,1.0717,1.0717,1.0717,1.0717,1.0717,1.0717,1.0717,1.0717,1.0717,1.0717,1.0717,1.0717,1.0717,1.0717,1.0717,1.0717,1.0717,1.0717,1.0717,1.0717,1.0717,1.0717,1.0717,1.0717,1.0717,1.0717,1.0717,1.0717,1.0717,1.0717,1.0717,1.0717,1.0717,1.0717,1.0717,1.0717,1.0717,1.0717,1.0717,1.0717,1.0717,1.0717,1.0717,1.0717,1.0717,1.0717,1.0717,1.0717,1.069,1.0636,1.0561,1.048,1.0432,1.0331,1.0297,1.0276,1.0236,1.0243,1.0283,1.031,1.0365,1.048,1.0555,1.0588,1.0643,1.0711,1.0697,1.0677,1.0548,1.0412,1.0365,1.0276,1.0025,0.9897,0.9829,0.9822,0.9822,0.9822,0.9822,0.9836,0.9822,0.9822,0.9822,0.9822,1.3166,1.3125,1.2854,1.2732,1.2691,1.2569,1.2515,1.2501,1.2501,1.2501,1.2501,1.2501,1.2501,1.2433,1.2196,1.206,1.2006,1.1755,1.1619,1.1619,1.1619,1.1619,1.1619,1.1619,1.1525,1.1375,1.1246,1.1097,1.0853,1.0745,1.0724,1.0724,1.0717,1.0717,1.0717,1.0717,1.0717,1.0717,1.0717,1.0717,1.0717,1.0717,1.0717,1.0717,1.0717,1.0717,1.0717,1.0717,1.0717,1.0717,1.0717,1.0717,1.0717,1.0717,1.0717,1.0717,1.0717,1.0717,1.0717,1.0717,1.0717,1.0717,1.0717,1.0717,1.0717,1.0717,1.0717,1.0717,1.0717,1.0717,1.0717,1.0717,1.0717,1.0717,1.0717,1.0717,1.0717,1.0717,1.0717,1.0717,1.0711,1.0663,1.0521,1.0493,1.0432,1.0331,1.031,1.0304,1.0243,1.0331,1.0405,1.0487,1.0582,1.0616,1.0656,1.0663,1.0717,1.0717,1.0711,1.0616,1.0487,1.0439,1.0344,1.0107,0.9958,0.9883,0.9822,0.9822,0.9849,0.9822,0.9815,0.9836,0.9836,0.9849,0.9822,1.3112,1.3077,1.2813,1.2664,1.2569,1.2515,1.2501,1.2501,1.2501,1.2501,1.2501,1.2501,1.2494,1.2467,1.2196,1.206,1.1979,1.1748,1.1619,1.1619,1.1619,1.1619,1.1619,1.1613,1.1545,1.1409,1.1341,1.1199,1.0894,1.0833,1.0759,1.0724,1.0717,1.0717,1.0717,1.0717,1.0717,1.0717,1.0717,1.0717,1.0717,1.0717,1.0717,1.0717,1.0717,1.0717,1.0717,1.0717,1.0717,1.0717,1.0717,1.0717,1.0717,1.0717,1.0717,1.0717,1.0717,1.0717,1.0717,1.0717,1.0717,1.0717,1.0717,1.0717,1.0717,1.0717,1.0717,1.0717,1.0717,1.0717,1.0717,1.0717,1.0717,1.0717,1.0717,1.0717,1.0717,1.0717,1.0717,1.0717,1.0717,1.0643,1.0575,1.0568,1.0548,1.0392,1.0432,1.0493,1.0365,1.046,1.0575,1.0616,1.0677,1.0697,1.0711,1.0711,1.0717,1.0717,1.069,1.0636,1.0514,1.0412,1.027,1.0017,1.0059,0.9998,0.9829,0.9768,0.9822,0.9903,0.9842,0.9869,0.9849,0.9869,0.9849,1.3037,1.2942,1.2725,1.2583,1.2508,1.2501,1.2501,1.2501,1.2501,1.2501,1.2501,1.2501,1.2467,1.2386,1.2169,1.2026,1.1938,1.1721,1.1626,1.1619,1.1619,1.1619,1.1619,1.1613,1.1572,1.1491,1.1416,1.126,1.1063,1.0914,1.0799,1.0744,1.0717,1.0717,1.0717,1.0717,1.0717,1.0717,1.0717,1.0717,1.0717,1.0717,1.0717,1.0717,1.0717,1.0717,1.0717,1.0717,1.0717,1.0717,1.0717,1.0717,1.0717,1.0717,1.0717,1.0717,1.0717,1.0717,1.0717,1.0717,1.0717,1.0717,1.0717,1.0717,1.0717,1.0717,1.0717,1.0717,1.0717,1.0717,1.0717,1.0717,1.0717,1.0717,1.0717,1.0717,1.0717,1.0717,1.0717,1.0717,1.0717,1.0697,1.0595,1.067,1.0588,1.0487,1.0561,1.0487,1.0365,1.0568,1.0649,1.0582,1.0588,1.0588,1.0541,1.0527,1.0541,1.0561,1.0575,1.0541,1.0534,1.0419,1.0344,1.0236,1.0181,1.0044,0.9936,0.9937,1.0012,1.0039,0.9964,0.9944,0.9923,0.9896,0.9822,1.3043,1.2935,1.263,1.2501,1.2501,1.2501,1.2501,1.2501,1.2501,1.2501,1.2501,1.2501,1.2427,1.2284,1.2142,1.1979,1.1837,1.1687,1.1633,1.1619,1.1619,1.1619,1.1619,1.1619,1.1606,1.1579,1.147,1.1341,1.1192,1.105,1.09,1.0785,1.0744,1.0717,1.0717,1.0717,1.0717,1.0717,1.0717,1.0717,1.0717,1.0717,1.0717,1.0717,1.0717,1.0717,1.0717,1.0717,1.0717,1.0717,1.0717,1.0717,1.0717,1.0717,1.0717,1.0717,1.0717,1.0717,1.0717,1.0717,1.0717,1.0717,1.0717,1.0717,1.0717,1.0717,1.0717,1.0717,1.0717,1.0717,1.0717,1.0717,1.0717,1.0717,1.0717,1.0717,1.0717,1.0717,1.0717,1.0717,1.0717,1.0717,1.0697,1.0683,1.0622,1.0331,1.0439,1.0399,1.0317,1.0412,1.0392,1.0276,1.0331,1.0419,1.0365,1.0374,1.0331,1.0351,1.0371,1.0392,1.0514,1.0473,1.0466,1.0412,1.031,1.0215,1.012,1.0114,1.0161,1.0175,1.0134,1.01,1.0011,0.993,0.9849,1.3043,1.3015,1.263,1.2501,1.2501,1.2501,1.2501,1.2501,1.2501,1.2501,1.2501,1.2501,1.242,1.2277,1.2128,1.1979,1.1816,1.1687,1.1619,1.1619,1.1619,1.1619,1.1619,1.1619,1.1619,1.1606,1.1586,1.1484,1.1335,1.1185,1.1043,1.0833,1.0718,1.0717,1.0717,1.0717,1.0717,1.0717,1.0717,1.0717,1.0717,1.0717,1.0717,1.0717,1.0717,1.0717,1.0717,1.0717,1.0717,1.0717,1.0717,1.0717,1.0717,1.0717,1.0717,1.0717,1.0717,1.0717,1.0717,1.0717,1.0717,1.0717,1.0717,1.0717,1.0717,1.0717,1.0717,1.0717,1.0717,1.0717,1.0717,1.0717,1.0717,1.0717,1.0717,1.0717,1.0717,1.0717,1.0717,1.0717,1.0717,1.0677,1.0568,1.0575,1.0466,1.0243,1.0222,1.0256,1.0263,1.0276,1.0215,1.012,1.0188,1.0276,1.0215,1.0161,1.0161,1.0161,1.0175,1.0195,1.0317,1.0439,1.0399,1.0405,1.0405,1.0317,1.0243,1.0243,1.0276,1.029,1.0297,1.0256,1.0195,1.0073,0.9903,1.2915,1.2827,1.2596,1.2501,1.2501,1.2501,1.2501,1.2501,1.2501,1.2501,1.2501,1.2501,1.2386,1.2189,1.2094,1.1952,1.1755,1.166,1.1619,1.1619,1.1619,1.1619,1.1619,1.1619,1.1619,1.1619,1.1613,1.1531,1.1402,1.1301,1.1158,1.0894,1.0793,1.0785,1.0724,1.0717,1.0717,1.0717,1.0717,1.0717,1.0717,1.0717,1.0717,1.0717,1.0717,1.0717,1.0717,1.0717,1.0717,1.0717,1.0717,1.0717,1.0717,1.0717,1.0717,1.0717,1.0717,1.0717,1.0717,1.0717,1.0717,1.0717,1.0717,1.0717,1.0717,1.0717,1.0717,1.0717,1.0717,1.0717,1.0717,1.0717,1.0717,1.0717,1.0717,1.0717,1.0717,1.0717,1.0717,1.0717,1.0717,1.0683,1.0629,1.0575,1.0446,1.029,1.0324,1.0331,1.0093,1.0107,1.012,1.008,1.012,1.0134,1.0066,1.0025,1.0012,0.9998,0.9992,0.9992,1.0039,1.0175,1.029,1.0337,1.0392,1.0439,1.0385,1.0392,1.0378,1.0399,1.0399,1.0385,1.031,1.0161,1.0004,1.2847,1.2718,1.2562,1.2501,1.2501,1.2501,1.2501,1.2501,1.2501,1.2501,1.2494,1.2488,1.2311,1.2183,1.2026,1.1864,1.1687,1.1626,1.1619,1.1619,1.1619,1.1619,1.1619,1.1619,1.1619,1.1619,1.1619,1.1538,1.1463,1.1389,1.126,1.105,1.0887,1.0813,1.0778,1.0724,1.0717,1.0717,1.0717,1.0717,1.0717,1.0717,1.0717,1.0717,1.0717,1.0717,1.0717,1.0717,1.0717,1.0717,1.0717,1.0717,1.0717,1.0717,1.0717,1.0717,1.0717,1.0717,1.0717,1.0717,1.0717,1.0717,1.0717,1.0717,1.0717,1.0717,1.0717,1.0717,1.0717,1.0717,1.0717,1.0717,1.0717,1.0717,1.0717,1.0717,1.0717,1.0717,1.0717,1.0717,1.0717,1.0697,1.0677,1.0636,1.0487,1.0371,1.0405,1.0344,1.0093,0.9951,0.9978,0.9978,1.0005,1.0012,0.9951,0.9937,0.9917,0.9903,0.9869,0.9869,0.9876,1.0025,1.0195,1.031,1.0371,1.0405,1.0446,1.0432,1.0439,1.0487,1.05,1.0493,1.0385,1.0243,1.0085,1.2752,1.2718,1.2562,1.2501,1.2501,1.2501,1.2501,1.2501,1.2501,1.2501,1.2488,1.2379,1.2237,1.2067,1.1918,1.1775,1.1647,1.1619,1.1619,1.1619,1.1619,1.1619,1.1619,1.1619,1.1619,1.1619,1.1619,1.1592,1.1545,1.1457,1.1362,1.1267,1.1084,1.088,1.0813,1.0732,1.0731,1.0717,1.0717,1.0717,1.0717,1.0717,1.0717,1.0717,1.0717,1.0717,1.0717,1.0717,1.0717,1.0717,1.0717,1.0717,1.0717,1.0717,1.0717,1.0717,1.0717,1.0717,1.0717,1.0717,1.0717,1.0717,1.0717,1.0717,1.0717,1.0717,1.0717,1.0717,1.0717,1.0717,1.0717,1.0717,1.0717,1.0717,1.0717,1.0717,1.0717,1.0717,1.0717,1.0717,1.0717,1.0717,1.0697,1.0649,1.05,1.0351,1.029,1.0188,0.9964,0.9869,0.9869,0.9863,0.9856,0.9856,0.9842,0.9849,0.9849,0.9856,0.9842,0.9842,0.9876,0.9909,1.0093,1.0161,1.0249,1.0304,1.0351,1.0412,1.0439,1.0432,1.05,1.0575,1.0405,1.0222,1.0098,1.2684,1.261,1.2528,1.2501,1.2501,1.2501,1.2501,1.2501,1.2501,1.2501,1.2461,1.2352,1.221,1.2054,1.1898,1.1748,1.1647,1.1619,1.1619,1.1619,1.1619,1.1619,1.1619,1.1619,1.1619,1.1619,1.1619,1.1619,1.1613,1.1552,1.147,1.1375,1.1233,1.1111,1.09,1.0813,1.0725,1.0751,1.0724,1.0717,1.0717,1.0717,1.0717,1.0717,1.0717,1.0717,1.0717,1.0717,1.0717,1.0717,1.0717,1.0717,1.0717,1.0717,1.0717,1.0717,1.0717,1.0717,1.0717,1.0717,1.0717,1.0717,1.0717,1.0717,1.0717,1.0717,1.0717,1.0717,1.0717,1.0717,1.0717,1.0717,1.0717,1.0717,1.0717,1.0717,1.0717,1.0717,1.0717,1.0717,1.0717,1.0717,1.0717,1.0629,1.05,1.0365,1.0229,1.0053,0.9869,0.9822,0.9822,0.9822,0.9822,0.9822,0.9822,0.9822,0.9822,0.9822,0.9822,0.9822,0.9836,0.9856,0.9869,0.9889,1.0039,1.0161,1.0236,1.0283,1.0324,1.0365,1.0399,1.0405,1.0317,1.0215,1.0141,1.2617,1.2501,1.2501,1.2501,1.2501,1.2501,1.2501,1.2501,1.2501,1.2481,1.244,1.2305,1.2149,1.2006,1.1857,1.1721,1.1619,1.1619,1.1619,1.1619,1.1619,1.1619,1.1619,1.1619,1.1619,1.1619,1.1619,1.1619,1.1619,1.1606,1.1545,1.1463,1.1423,1.1294,1.1029,1.0914,1.0813,1.0739,1.0731,1.0717,1.0717,1.0717,1.0717,1.0717,1.0717,1.0717,1.0717,1.0717,1.0717,1.0717,1.0717,1.0717,1.0717,1.0717,1.0717,1.0717,1.0717,1.0717,1.0717,1.0717,1.0717,1.0717,1.0717,1.0717,1.0717,1.0717,1.0717,1.0717,1.0717,1.0717,1.0717,1.0717,1.0717,1.0717,1.0717,1.0717,1.0717,1.0717,1.0717,1.0717,1.0717,1.0717,1.0717,1.069,1.0575,1.0426,1.029,1.0141,0.9964,0.9842,0.9822,0.9822,0.9822,0.9822,0.9822,0.9822,0.9822,0.9822,0.9822,0.9822,0.9822,0.9842,0.9781,0.9795,0.9842,1.0019,1.0086,1.0154,1.0188,1.0222,1.0249,1.0243,1.0188,1.0134,1.0004,1.2515,1.2501,1.2501,1.2501,1.2501,1.2501,1.2501,1.2501,1.2501,1.2427,1.2325,1.2162,1.2013,1.1857,1.1721,1.1647,1.1626,1.1619,1.1619,1.1619,1.1619,1.1619,1.1619,1.1619,1.1619,1.1619,1.1619,1.1619,1.1619,1.1619,1.1613,1.1558,1.1463,1.1362,1.1274,1.1111,1.0873,1.0833,1.0785,1.0717,1.0717,1.0717,1.0717,1.0717,1.0717,1.0717,1.0717,1.0717,1.0717,1.0717,1.0717,1.0717,1.0717,1.0717,1.0717,1.0717,1.0717,1.0717,1.0717,1.0717,1.0717,1.0717,1.0717,1.0717,1.0717,1.0717,1.0717,1.0717,1.0717,1.0717,1.0717,1.0717,1.0717,1.0717,1.0717,1.0717,1.0717,1.0717,1.0717,1.0717,1.0717,1.0717,1.0717,1.0697,1.0656,1.05,1.0351,1.0195,1.0046,0.991,0.9822,0.9822,0.9822,0.9822,0.9822,0.9822,0.9822,0.9822,0.9822,0.9822,0.9822,0.9822,0.9822,0.9842,0.9808,0.9822,0.9937,0.993,0.9977,1.0017,1.0114,1.0107,1.0024,0.997,0.9923,1.2501,1.2501,1.2501,1.2501,1.2501,1.2501,1.2501,1.2501,1.2501,1.242,1.2277,1.2128,1.1938,1.1735,1.164,1.1619,1.1619,1.1619,1.1619,1.1619,1.1619,1.1619,1.1619,1.1619,1.1619,1.1619,1.1619,1.1619,1.1619,1.1619,1.1619,1.1606,1.1552,1.147,1.1416,1.1267,1.1104,1.0894,1.0806,1.0724,1.0717,1.0717,1.0717,1.0717,1.0717,1.0717,1.0717,1.0717,1.0717,1.0717,1.0717,1.0717,1.0717,1.0717,1.0717,1.0717,1.0717,1.0717,1.0717,1.0717,1.0717,1.0717,1.0717,1.0717,1.0717,1.0717,1.0717,1.0717,1.0717,1.0717,1.0717,1.0717,1.0717,1.0717,1.0717,1.0717,1.0717,1.0717,1.0717,1.0717,1.0717,1.0717,1.0717,1.0711,1.0663,1.0541,1.0385,1.0222,1.0066,0.991,0.9849,0.9822,0.9822,0.9822,0.9822,0.9822,0.9822,0.9822,0.9822,0.9822,0.9822,0.9822,0.9822,0.9822,0.9836,0.9781,0.9768,0.9802,0.9869,0.9896,0.9971,0.9909,0.9903,0.9869,0.9822,1.2501,1.2501,1.2501,1.2501,1.2501,1.2501,1.2501,1.2501,1.2454,1.2366,1.221,1.2033,1.1809,1.166,1.1619,1.1619,1.1619,1.1619,1.1619,1.1619,1.1619,1.1619,1.1619,1.1619,1.1619,1.1619,1.1619,1.1619,1.1619,1.1619,1.1619,1.1619,1.1606,1.1552,1.147,1.1369,1.1233,1.0887,1.0779,1.0772,1.0731,1.0717,1.0717,1.0717,1.0717,1.0717,1.0717,1.0717,1.0717,1.0717,1.0717,1.0717,1.0717,1.0717,1.0717,1.0717,1.0717,1.0717,1.0717,1.0717,1.0717,1.0717,1.0717,1.0717,1.0717,1.0717,1.0717,1.0717,1.0717,1.0717,1.0717,1.0717,1.0717,1.0717,1.0717,1.0717,1.0717,1.0717,1.0717,1.0717,1.0717,1.0717,1.0717,1.0717,1.0663,1.0561,1.0419,1.0256,1.0093,0.9944,0.9869,0.9836,0.9829,0.9829,0.9822,0.9822,0.9822,0.9822,0.9822,0.9822,0.9822,0.9822,0.9822,0.9822,0.9822,0.9822,0.9822,0.9822,0.9822,0.9863,0.989,0.9863,0.9836,0.9822,0.9822,1.2501,1.2501,1.2501,1.2501,1.2501,1.2501,1.2501,1.2488,1.2366,1.223,1.2047,1.1803,1.1674,1.1626,1.1619,1.1619,1.1619,1.1619,1.1619,1.1619,1.1619,1.1619,1.1619,1.1619,1.1619,1.1619,1.1619,1.1619,1.1619,1.1619,1.1619,1.1619,1.1619,1.1613,1.1545,1.1436,1.128,1.0988,1.0887,1.0793,1.0712,1.0738,1.0738,1.0724,1.0717,1.0717,1.0717,1.0717,1.0717,1.0717,1.0717,1.0717,1.0717,1.0717,1.0717,1.0717,1.0717,1.0717,1.0717,1.0717,1.0717,1.0717,1.0717,1.0717,1.0717,1.0717,1.0717,1.0717,1.0717,1.0717,1.0717,1.0717,1.0717,1.0717,1.0717,1.0717,1.0717,1.0717,1.0717,1.0717,1.0717,1.0717,1.0717,1.0717,1.0717,1.0629,1.05,1.0344,1.0161,1.0005,0.991,0.9863,0.9849,0.9836,0.9822,0.9822,0.9822,0.9822,0.9822,0.9822,0.9822,0.9822,0.9822,0.9822,0.9822,0.9822,0.9822,0.9822,0.9822,0.9822,0.9822,0.9822,0.9822,0.9822,0.9822,1.2501,1.2501,1.2501,1.2501,1.2501,1.2501,1.2501,1.2481,1.2352,1.2142,1.1904,1.1714,1.1619,1.1619,1.1619,1.1619,1.1619,1.1619,1.1619,1.1619,1.1619,1.1619,1.1619,1.1619,1.1619,1.1619,1.1619,1.1619,1.1619,1.1619,1.1619,1.1619,1.1619,1.1619,1.1565,1.1484,1.1335,1.124,1.1118,1.1009,1.0826,1.0786,1.0752,1.0724,1.0717,1.0717,1.0717,1.0717,1.0717,1.0717,1.0717,1.0717,1.0717,1.0717,1.0717,1.0717,1.0717,1.0717,1.0717,1.0717,1.0717,1.0717,1.0717,1.0731,1.0751,1.0731,1.0724,1.0717,1.0738,1.0758,1.0731,1.0724,1.0717,1.0717,1.0717,1.0717,1.0717,1.0717,1.0717,1.0717,1.0717,1.0717,1.0717,1.0717,1.0717,1.0697,1.0568,1.0426,1.0256,1.0114,1.0032,0.9951,0.9937,0.9883,0.9863,0.9842,0.9822,0.9822,0.9822,0.9822,0.9822,0.9822,0.9822,0.9822,0.9822,0.9822,0.9822,0.9822,0.9822,0.9822,0.9822,0.9822,0.9822,0.9822,0.9822,1.2501,1.2501,1.2501,1.2501,1.2501,1.2501,1.2481,1.2413,1.2284,1.2054,1.1762,1.166,1.1619,1.1619,1.1619,1.1619,1.1619,1.1619,1.1619,1.1619,1.1619,1.1619,1.1619,1.1619,1.1619,1.1619,1.1619,1.1619,1.1619,1.1619,1.1619,1.1619,1.1619,1.1619,1.1592,1.1525,1.1436,1.1369,1.1294,1.1158,1.1029,1.1009,1.0941,1.0826,1.0806,1.0758,1.0738,1.0717,1.0717,1.0717,1.0717,1.0717,1.0717,1.0717,1.0717,1.0717,1.0717,1.0717,1.0724,1.0717,1.0744,1.0799,1.0806,1.0826,1.0839,1.0846,1.0894,1.088,1.0873,1.0846,1.0833,1.0846,1.0819,1.0826,1.0738,1.0717,1.0717,1.0717,1.0717,1.0717,1.0717,1.0717,1.0717,1.0717,1.0717,1.069,1.0575,1.0473,1.0385,1.027,1.0195,1.012,1.0059,0.9985,0.9856,0.9876,0.9836,0.9822,0.9822,0.9822,0.9822,0.9822,0.9822,0.9822,0.9822,0.9822,0.9822,0.9822,0.9822,0.9822,0.9822,0.9822,0.9822,0.9822,0.9822,1.2501,1.2501,1.2501,1.2501,1.2501,1.2501,1.2433,1.2325,1.2155,1.1918,1.1667,1.1619,1.1619,1.1619,1.1619,1.1619,1.1619,1.1619,1.1619,1.1619,1.1619,1.1619,1.1619,1.1619,1.1619,1.1619,1.1619,1.1619,1.1619,1.1619,1.1619,1.1619,1.1619,1.1619,1.1619,1.1613,1.1538,1.1416,1.1396,1.1301,1.1192,1.1158,1.1077,1.0941,1.084,1.0853,1.0744,1.0717,1.0717,1.0717,1.0717,1.0717,1.0717,1.0717,1.0717,1.0717,1.0717,1.0724,1.0731,1.0724,1.0819,1.0921,1.0941,1.0975,1.109,1.1193,1.1097,1.1043,1.1084,1.1104,1.1084,1.1029,1.0968,1.0921,1.0839,1.0778,1.0785,1.0772,1.0785,1.0731,1.0717,1.0717,1.0717,1.0717,1.0717,1.067,1.0568,1.0507,1.0473,1.0439,1.0371,1.0283,1.0209,1.0093,1.0012,0.9842,0.9849,0.9829,0.9822,0.9822,0.9822,0.9822,0.9822,0.9822,0.9822,0.9822,0.9822,0.9822,0.9822,0.9822,0.9822,0.9822,0.9822,0.9822,0.9822,1.2501,1.2501,1.2501,1.2501,1.2501,1.2501,1.2474,1.2393,1.2162,1.1891,1.1667,1.1619,1.1619,1.1619,1.1619,1.1619,1.1619,1.1619,1.1619,1.1619,1.1619,1.1619,1.1619,1.1619,1.1619,1.1619,1.1619,1.1619,1.1619,1.1619,1.1619,1.1619,1.1619,1.1619,1.1619,1.1619,1.1579,1.1552,1.1531,1.147,1.1335,1.1301,1.1206,1.0921,1.0907,1.0833,1.0751,1.0744,1.0731,1.0724,1.0717,1.0717,1.0717,1.0717,1.0717,1.0717,1.0724,1.0778,1.0867,1.0948,1.1029,1.1084,1.1097,1.1118,1.1165,1.1234,1.1227,1.1248,1.1206,1.1199,1.1131,1.1124,1.109,1.109,1.1029,1.0962,1.0941,1.0833,1.0806,1.0772,1.0717,1.0731,1.0738,1.0724,1.0717,1.0717,1.0636,1.0629,1.0609,1.0609,1.0575,1.0466,1.0371,1.0229,1.0114,1.0032,0.9856,0.9808,0.9842,0.9822,0.9822,0.9822,0.9822,0.9822,0.9822,0.9822,0.9822,0.9822,0.9822,0.9822,0.9822,0.9822,0.9822,0.9822,0.9822,1.2501,1.2501,1.2501,1.2501,1.2501,1.2501,1.2454,1.2311,1.204,1.1796,1.1647,1.1619,1.1619,1.1619,1.1619,1.1619,1.1619,1.1619,1.1619,1.1619,1.1619,1.1619,1.1619,1.1619,1.1619,1.1619,1.1619,1.1619,1.1619,1.1619,1.1619,1.1619,1.1619,1.1619,1.1619,1.1613,1.1613,1.1599,1.1586,1.1565,1.1491,1.1443,1.1355,1.1192,1.1097,1.1023,1.0867,1.0792,1.0772,1.0744,1.0724,1.0717,1.0717,1.0717,1.0717,1.0717,1.0731,1.0826,1.0989,1.1077,1.1172,1.1328,1.128,1.1274,1.1301,1.1355,1.1348,1.1341,1.1307,1.1314,1.1307,1.1294,1.124,1.124,1.1179,1.1111,1.1009,1.0894,1.0833,1.0799,1.0765,1.0772,1.0765,1.0738,1.0717,1.0717,1.0711,1.0717,1.0717,1.0704,1.069,1.0609,1.0507,1.0378,1.027,1.0188,1.0066,0.9862,0.9829,0.9815,0.9822,0.9822,0.9822,0.9822,0.9822,0.9822,0.9822,0.9822,0.9822,0.9822,0.9822,0.9822,0.9822,0.9822,0.9822,1.2501,1.2501,1.2501,1.2501,1.2501,1.2467,1.2311,1.2054,1.1769,1.1647,1.1619,1.1619,1.1619,1.1619,1.1619,1.1619,1.1619,1.1619,1.1619,1.1619,1.1619,1.1619,1.1619,1.1619,1.1619,1.1619,1.1619,1.1619,1.1619,1.1619,1.1619,1.1619,1.1619,1.1619,1.1619,1.1619,1.1619,1.1619,1.1613,1.1599,1.1572,1.1579,1.1477,1.1355,1.1294,1.1172,1.1029,1.086,1.0786,1.0792,1.0731,1.0724,1.0717,1.0717,1.0717,1.0724,1.0724,1.0928,1.109,1.1234,1.1328,1.1484,1.1457,1.1497,1.1525,1.1531,1.1518,1.1525,1.1518,1.1552,1.1572,1.1484,1.1402,1.1355,1.1287,1.1185,1.1056,1.0914,1.0914,1.0867,1.0786,1.0779,1.0826,1.0792,1.0738,1.0717,1.0717,1.0717,1.0717,1.0717,1.0704,1.0697,1.0602,1.0521,1.0426,1.0324,1.0168,0.995,0.993,0.9903,0.9842,0.9822,0.9822,0.9822,0.9822,0.9822,0.9822,0.9822,0.9822,0.9822,0.9822,0.9822,0.9822,0.9822,0.9822,1.2501,1.2501,1.2501,1.2501,1.2467,1.2277,1.221,1.2108,1.185,1.1721,1.1619,1.1619,1.1619,1.1619,1.1619,1.1619,1.1619,1.1619,1.1619,1.1619,1.1619,1.1619,1.1619,1.1619,1.1619,1.1619,1.1619,1.1619,1.1619,1.1619,1.1619,1.1619,1.1619,1.1619,1.1619,1.1619,1.1619,1.1619,1.1619,1.1619,1.1619,1.1619,1.1525,1.145,1.1416,1.128,1.1151,1.1016,1.0941,1.082,1.0772,1.0724,1.0717,1.0717,1.0724,1.0751,1.0887,1.1097,1.1185,1.1362,1.1518,1.1579,1.1565,1.1572,1.1606,1.1619,1.1619,1.1619,1.1619,1.1619,1.1619,1.1558,1.1511,1.1477,1.1423,1.1348,1.1233,1.1165,1.1084,1.0941,1.0934,1.0813,1.0793,1.0812,1.0758,1.0738,1.0717,1.0717,1.0717,1.0717,1.0717,1.0711,1.0683,1.0602,1.0534,1.0439,1.027,1.0058,1.0051,0.999,0.9856,0.9849,0.9829,0.9822,0.9822,0.9822,0.9822,0.9822,0.9822,0.9822,0.9822,0.9822,0.9822,0.9822,0.9822,1.2501,1.2501,1.2501,1.2467,1.2372,1.2101,1.1972,1.1945,1.1816,1.1694,1.1626,1.1619,1.1619,1.1619,1.1619,1.1619,1.1619,1.1619,1.1619,1.1619,1.1619,1.1619,1.1619,1.1619,1.1619,1.1619,1.1619,1.1619,1.1619,1.1619,1.1619,1.1619,1.1619,1.1619,1.1619,1.1619,1.1619,1.1619,1.1619,1.1619,1.1619,1.1619,1.1552,1.1504,1.1477,1.1389,1.1267,1.1145,1.1077,1.0907,1.0766,1.0772,1.0751,1.0717,1.0717,1.0758,1.0907,1.1063,1.1179,1.1369,1.1518,1.1599,1.1619,1.1613,1.1613,1.1619,1.1619,1.1619,1.1619,1.1619,1.1619,1.1613,1.1613,1.1606,1.1572,1.1538,1.1463,1.1396,1.124,1.1056,1.0968,1.0914,1.0867,1.0826,1.0806,1.0812,1.0772,1.0717,1.0717,1.0717,1.0717,1.0717,1.0711,1.0677,1.0609,1.0555,1.0432,1.0317,1.0304,1.0202,0.9998,0.9897,0.9835,0.9802,0.9822,0.9822,0.9822,0.9822,0.9822,0.9822,0.9822,0.9822,0.9822,0.9822,0.9822,1.2501,1.2501,1.2488,1.2406,1.2257,1.1972,1.1843,1.1816,1.1694,1.1619,1.1619,1.1619,1.1619,1.1619,1.1619,1.1619,1.1619,1.1619,1.1619,1.1619,1.1619,1.1619,1.1619,1.1619,1.1619,1.1619,1.1619,1.1619,1.1619,1.1619,1.1619,1.1619,1.1619,1.1619,1.1619,1.1619,1.1619,1.1619,1.1619,1.1619,1.1619,1.1619,1.1619,1.1606,1.1586,1.1545,1.1443,1.1348,1.1267,1.1015,1.0867,1.0799,1.0765,1.0717,1.0717,1.0792,1.0921,1.105,1.1192,1.1369,1.1497,1.1579,1.1619,1.1619,1.1619,1.1619,1.1619,1.1619,1.1619,1.1619,1.1619,1.1619,1.1619,1.1619,1.1599,1.1565,1.1518,1.1443,1.1321,1.1165,1.107,1.1009,1.0941,1.0907,1.0826,1.0793,1.0819,1.0731,1.0717,1.0717,1.0717,1.0717,1.0717,1.0711,1.0697,1.0643,1.0595,1.0534,1.0473,1.0297,1.0046,0.9916,0.9903,0.9835,0.9822,0.9822,0.9822,0.9822,0.9822,0.9822,0.9822,0.9822,0.9822,0.9822,0.9822,1.2501,1.2488,1.2386,1.2318,1.225,1.1959,1.183,1.1816,1.1681,1.1619,1.1619,1.1619,1.1619,1.1619,1.1619,1.1619,1.1619,1.1619,1.1619,1.1619,1.1619,1.1619,1.1619,1.1619,1.1619,1.1619,1.1619,1.1619,1.1619,1.1619,1.1619,1.1619,1.1619,1.1619,1.1619,1.1619,1.1619,1.1619,1.1619,1.1619,1.1619,1.1619,1.1619,1.1619,1.1606,1.1606,1.1518,1.1443,1.1382,1.1274,1.105,1.0887,1.0731,1.0731,1.0724,1.0765,1.0968,1.1111,1.1226,1.1389,1.1545,1.1586,1.1619,1.1619,1.1619,1.1619,1.1619,1.1619,1.1619,1.1619,1.1619,1.1619,1.1619,1.1619,1.1619,1.1586,1.1552,1.147,1.1382,1.1287,1.1185,1.1111,1.1043,1.0968,1.0887,1.0826,1.0772,1.0717,1.0717,1.0717,1.0717,1.0717,1.0717,1.0717,1.0717,1.0704,1.0656,1.0595,1.0521,1.0324,1.0044,0.995,0.9889,0.9815,0.9822,0.9822,0.9822,0.9822,0.9822,0.9822,0.9822,0.9822,0.9822,0.9822,0.9822,1.2501,1.2474,1.2277,1.2149,1.2054,1.183,1.1735,1.1721,1.1653,1.1619,1.1619,1.1619,1.1619,1.1619,1.1619,1.1619,1.1619,1.1619,1.1619,1.1619,1.1619,1.1619,1.1619,1.1619,1.1619,1.1619,1.1619,1.1619,1.1619,1.1619,1.1619,1.1619,1.1619,1.1619,1.1619,1.1619,1.1619,1.1619,1.1619,1.1619,1.1619,1.1619,1.1619,1.1619,1.1619,1.1619,1.1599,1.1525,1.1463,1.1369,1.1158,1.0995,1.09,1.0907,1.0887,1.0928,1.107,1.1267,1.1328,1.145,1.1613,1.1619,1.1619,1.1619,1.1619,1.1619,1.1619,1.1619,1.1619,1.1619,1.1619,1.1619,1.1619,1.1619,1.1619,1.1599,1.1552,1.1477,1.1416,1.1355,1.1274,1.1219,1.1151,1.109,1.1002,1.0873,1.0806,1.0724,1.0717,1.0717,1.0717,1.0717,1.0717,1.0717,1.0717,1.0711,1.069,1.0636,1.0575,1.0419,1.0243,1.0053,0.9924,0.9876,0.9842,0.9822,0.9822,0.9822,0.9822,0.9822,0.9822,0.9822,0.9822,0.9822,0.9822,1.2488,1.2433,1.2182,1.1979,1.1823,1.1681,1.1626,1.1619,1.1619,1.1619,1.1619,1.1619,1.1619,1.1619,1.1619,1.1619,1.1619,1.1619,1.1619,1.1619,1.1619,1.1619,1.1619,1.1619,1.1619,1.1619,1.1619,1.1619,1.1619,1.1619,1.1619,1.1619,1.1619,1.1619,1.1619,1.1619,1.1619,1.1619,1.1619,1.1619,1.1619,1.1619,1.1619,1.1619,1.1619,1.1619,1.1619,1.1592,1.1531,1.143,1.128,1.1131,1.1043,1.1043,1.1036,1.107,1.1199,1.1335,1.1409,1.1518,1.1592,1.1619,1.1619,1.1619,1.1619,1.1619,1.1619,1.1619,1.1619,1.1619,1.1619,1.1619,1.1619,1.1619,1.1619,1.1619,1.1558,1.1504,1.147,1.1423,1.1382,1.1328,1.1226,1.1234,1.1063,1.0941,1.0846,1.0772,1.0717,1.0717,1.0717,1.0717,1.0717,1.0717,1.0717,1.0717,1.0704,1.0697,1.0636,1.0514,1.0378,1.0202,1.0032,0.9849,0.9815,0.9815,0.9836,0.9822,0.9822,0.9822,0.9822,0.9822,0.9822,0.9822,0.9822,1.2433,1.2311,1.2135,1.1972,1.1816,1.1681,1.1619,1.1619,1.1619,1.1619,1.1619,1.1619,1.1619,1.1619,1.1619,1.1619,1.1619,1.1619,1.1619,1.1619,1.1619,1.1619,1.1619,1.1619,1.1619,1.1619,1.1619,1.1619,1.1619,1.1619,1.1619,1.1619,1.1619,1.1619,1.1619,1.1619,1.1619,1.1619,1.1619,1.1619,1.1619,1.1619,1.1619,1.1619,1.1619,1.1619,1.1619,1.1619,1.1599,1.1538,1.143,1.128,1.1199,1.1172,1.1172,1.1192,1.1328,1.1396,1.1477,1.1558,1.1606,1.1619,1.1619,1.1619,1.1619,1.1619,1.1619,1.1619,1.1619,1.1619,1.1619,1.1619,1.1619,1.1619,1.1619,1.1619,1.1586,1.1579,1.1565,1.1538,1.1518,1.1375,1.1192,1.1111,1.1016,1.0894,1.0785,1.0717,1.0717,1.0717,1.0724,1.0717,1.0717,1.0717,1.0717,1.0717,1.0717,1.0717,1.0697,1.0582,1.0466,1.0344,1.0195,1.0053,0.9923,0.9916,0.9862,0.9869,0.9829,0.9836,0.9822,0.9822,0.9822,0.9822,0.9822]}]]